GFSSW_850_spd_003.txt.gz
Wind_Speed
10 9 9 8 9 7 8 9 11 10 11 9 9 9 6 7 7 7 9 9 11 15 17 13 7 7 3 3 3 5 5 3 2 2 4 3 2 5 7 7 2 1 4 7 22
7 7 7 7 7 7 9 11 11 12 10 11 9 7 5 6 10 12 11 14 16 18 16 17 9 9 4 5 4 6 5 6 3 3 3 2 3 1 3 5 4 6 7 16 21
3 4 5 6 7 9 11 12 14 10 12 11 7 7 3 4 10 11 16 17 18 14 17 17 7 9 6 7 6 2 4 3 4 5 4 3 0 1 7 2 9 12 15 21 20
2 5 6 8 10 13 13 14 11 11 11 8 7 8 7 2 4 11 13 14 15 15 13 15 17 7 5 5 5 5 1 6 3 4 3 3 1 1 2 4 8 11 11 19 17
7 8 10 12 15 15 15 12 10 10 10 7 7 7 6 9 7 10 9 10 11 12 15 16 22 7 4 3 3 3 2 3 0 1 2 2 4 4 7 6 11 13 19 19 16
11 14 16 17 17 16 14 12 10 10 8 5 5 3 3 6 9 13 7 8 7 12 16 16 11 6 4 3 3 1 3 6 5 7 5 2 4 3 4 9 15 18 22 19 16
16 18 18 17 16 14 14 13 13 10 8 6 5 5 6 5 8 10 9 5 7 8 11 12 12 10 6 3 4 3 5 6 4 6 5 2 5 6 5 4 18 21 21 22 20
17 18 17 17 16 15 15 15 14 12 8 4 6 6 4 6 5 5 7 5 3 5 8 8 10 7 4 2 6 5 5 6 6 1 2 3 9 10 3 7 16 24 24 24 20
17 17 16 16 15 14 14 13 12 9 4 2 3 6 4 4 6 7 10 14 5 5 7 5 5 4 5 4 5 7 1 3 5 6 3 4 8 15 10 14 17 21 25 22 18
16 16 15 14 13 12 10 10 9 6 3 3 4 2 5 7 7 10 14 8 7 12 6 7 4 4 5 6 1 3 3 4 4 5 7 4 9 10 12 10 14 13 15 13 12
13 14 14 13 12 11 8 10 5 4 6 5 6 5 6 6 6 9 15 6 6 6 4 5 6 2 3 1 3 1 2 2 4 3 7 4 8 12 14 3 5 6 13 15 14
12 13 12 11 10 9 9 7 7 3 3 6 9 5 5 7 5 14 12 4 5 3 3 6 2 1 4 5 3 2 2 4 5 5 3 7 9 8 10 5 6 20 20 18 15
10 11 11 10 8 6 8 9 6 3 3 3 4 5 5 5 5 9 12 4 4 4 4 5 1 5 4 5 6 4 2 3 5 7 1 6 6 5 5 8 8 10 13 13 13
10 10 10 7 5 7 10 7 3 1 5 6 5 4 6 3 5 10 9 4 5 2 2 2 3 3 6 3 2 4 2 2 6 4 2 5 3 5 3 2 3 5 9 11 9
11 11 10 7 6 6 6 3 3 0 5 4 2 2 5 3 3 12 9 1 3 3 5 1 3 6 6 4 2 6 7 4 2 3 2 8 4 6 5 2 1 4 8 6 5
11 12 11 8 7 5 4 1 1 6 1 2 2 3 4 6 5 9 19 5 6 5 6 4 3 3 2 3 4 8 4 6 4 2 2 1 2 6 4 4 1 4 6 7 5
8 10 11 10 6 4 4 1 5 6 2 2 1 3 3 5 6 5 6 11 5 5 6 7 4 5 4 5 6 8 6 3 5 5 4 1 2 6 4 4 1 4 5 4 2
8 7 7 7 6 6 3 5 6 3 2 3 3 3 4 5 5 6 3 5 7 5 3 4 5 5 6 1 3 3 3 4 3 1 5 6 2 4 1 3 5 8 0 1 4
8 9 6 6 7 5 2 5 6 6 2 2 3 4 5 5 3 4 4 3 3 5 4 4 4 4 1 3 1 4 4 2 6 2 3 4 5 5 4 6 4 3 4 2 5
7 11 10 7 6 3 5 3 1 1 1 2 3 1 2 6 4 4 4 3 3 7 2 3 4 2 6 3 6 6 2 4 4 2 3 5 5 5 4 5 5 3 12 8 7
3 4 6 4 2 3 4 4 2 5 2 3 2 3 3 2 3 2 0 2 2 3 8 2 2 6 3 4 1 5 4 5 3 3 3 2 6 5 5 8 5 10 7 7 6
3 4 4 2 4 3 2 2 3 5 9 6 4 3 3 3 4 3 2 2 0 2 2 2 3 3 3 7 4 4 6 4 3 5 3 3 6 3 5 5 10 5 11 13 13
4 4 7 3 3 2 1 4 5 4 5 3 3 4 5 2 3 2 2 4 4 3 1 2 2 3 7 6 3 3 3 3 3 3 6 3 5 3 20 5 6 11 14 18 20
3 3 6 7 7 6 4 2 3 5 5 6 4 6 4 5 6 2 5 5 9 4 1 2 2 5 5 5 4 7 5 3 5 3 4 10 16 15 6 4 14 20 22 23 26
3 2 2 1 5 5 4 2 3 2 3 7 6 4 3 3 3 2 3 5 5 3 3 3 2 3 5 7 5 13 12 16 7 10 6 8 8 10 6 5 13 19 22 24 28
3 5 5 4 2 4 5 1 4 2 3 2 6 1 4 4 4 2 1 1 5 3 3 2 3 3 5 6 8 14 14 10 13 10 8 9 10 7 5 10 14 21 26 25 25
6 8 4 3 3 4 2 1 2 5 5 5 11 4 2 4 4 6 9 9 10 5 4 2 4 2 5 4 8 7 7 4 4 5 5 5 7 2 6 15 20 24 28 24 30

GFSSW_850_spd_006.txt.gz
Wind_Speed
12 12 12 10 8 7 7 8 8 9 7 9 8 5 4 6 9 12 16 12 13 13 11 4 1 2 10 7 6 4 5 2 3 4 2 2 2 3 3 5 3 2 6 7 21
10 10 9 8 7 8 8 8 10 9 11 10 6 7 3 8 16 17 15 17 13 13 12 5 8 10 8 5 4 6 5 4 4 4 1 3 1 3 2 3 2 3 6 16 23
7 7 7 7 8 8 9 11 12 12 13 9 7 7 1 8 9 13 14 15 14 14 15 11 14 14 8 8 5 3 4 3 2 1 2 1 1 2 9 2 9 11 14 20 22
5 6 7 8 9 10 12 14 13 14 12 7 7 7 2 3 4 12 11 12 15 12 15 15 14 11 5 5 5 6 4 3 2 3 3 3 2 2 8 6 8 9 13 18 19
5 7 8 9 12 14 15 14 14 13 9 6 6 3 6 9 8 13 11 8 11 11 15 14 14 7 4 3 4 4 2 3 2 6 4 2 4 4 11 8 8 11 17 20 17
8 11 13 15 16 16 15 13 13 12 8 6 6 5 7 8 11 14 5 6 7 13 15 17 12 7 7 4 4 2 1 1 1 4 2 2 3 3 3 5 11 13 19 21 18
15 17 17 17 17 16 14 14 13 10 8 7 7 7 11 7 10 11 9 7 7 10 13 12 13 7 4 3 5 4 5 6 8 5 1 2 5 6 9 6 9 16 20 21 18
17 17 17 17 16 15 15 15 12 10 8 7 9 9 7 8 8 7 10 2 3 8 8 8 8 7 6 2 6 6 6 5 6 3 4 3 8 13 5 4 12 15 20 23 21
15 17 17 17 17 16 14 13 11 10 5 6 7 6 4 6 10 12 16 8 5 8 7 6 6 7 7 4 5 8 1 2 7 6 5 1 8 13 9 18 21 12 20 22 21
16 17 17 16 14 11 11 13 12 7 4 6 8 6 9 8 9 11 10 7 5 6 4 7 6 5 5 6 1 2 2 2 3 5 7 4 8 9 17 13 13 9 10 19 15
15 16 15 14 12 11 13 14 7 7 13 10 6 6 7 5 9 14 8 6 7 9 5 7 8 3 3 1 0 0 1 2 3 1 5 4 6 9 13 9 7 3 8 10 11
14 15 13 11 11 12 10 8 8 5 7 10 10 8 8 9 8 21 11 5 7 3 2 6 4 1 5 5 4 3 2 4 5 3 0 6 7 6 10 8 10 14 16 16 15
12 12 12 10 10 9 9 13 8 4 5 6 7 7 6 7 9 14 14 5 6 6 5 5 1 5 4 6 6 4 2 2 5 6 1 5 4 6 4 11 13 11 11 12 11
11 11 9 8 6 13 12 8 5 3 5 8 6 5 7 3 5 17 10 5 6 3 2 4 4 5 6 4 2 4 2 2 4 2 2 4 2 5 6 3 7 5 7 8 7
11 10 9 6 8 9 8 4 3 1 5 5 5 3 8 7 2 19 11 7 4 4 5 2 3 6 7 2 1 6 4 2 1 2 3 8 4 6 5 3 1 4 7 6 6
11 11 8 6 8 7 5 2 2 7 1 3 2 4 5 12 6 9 17 9 7 6 7 2 2 3 2 3 2 6 3 5 4 2 3 3 3 5 3 3 2 2 4 5 4
10 11 9 7 5 5 3 1 5 6 3 2 3 4 5 6 6 7 7 9 4 4 6 6 4 5 4 5 6 9 6 3 5 5 4 3 1 6 5 3 3 5 3 2 5
8 9 9 7 4 5 4 5 6 3 1 1 3 5 5 4 5 7 3 5 5 5 3 4 5 5 6 1 2 3 4 4 2 1 4 5 3 2 4 8 7 5 4 4 6
9 9 8 8 7 6 2 5 6 5 1 2 3 5 4 3 4 5 4 2 3 4 3 3 3 5 2 2 1 2 4 2 5 2 3 3 4 5 4 9 15 13 10 11 10
11 11 9 8 7 4 5 3 1 4 1 2 3 0 2 5 3 4 2 1 1 5 0 1 2 1 4 2 7 6 4 4 4 2 3 5 6 3 7 10 8 6 9 11 11
3 5 5 6 6 3 4 4 3 4 3 3 2 3 3 2 3 2 1 2 2 3 7 2 2 5 2 4 1 4 3 4 3 3 3 2 6 4 4 2 5 5 10 13 14
2 4 3 5 4 3 2 1 3 3 7 5 5 3 3 3 3 2 2 3 5 3 3 2 4 3 4 1 1 2 3 3 4 4 2 3 6 2 5 5 6 2 9 14 18
4 4 6 4 3 2 0 4 5 4 5 3 3 4 5 3 4 3 4 3 6 3 2 1 2 3 8 5 4 3 2 4 5 3 6 2 5 6 6 5 2 7 12 18 25
3 2 5 7 7 6 4 2 3 7 6 8 4 5 5 5 6 2 2 3 6 4 5 2 2 5 5 6 4 5 4 4 5 3 3 10 16 18 14 7 13 15 19 25 30
3 2 2 0 5 6 4 2 3 3 4 6 5 5 4 3 3 3 3 5 5 4 3 4 2 4 5 8 7 11 11 7 8 8 6 15 9 11 9 7 10 17 25 26 29
3 4 5 5 4 5 5 1 3 3 3 2 6 2 4 4 4 2 2 2 5 2 2 3 3 0 4 3 4 8 12 10 9 7 11 14 15 12 9 5 15 27 28 25 27
4 7 4 3 3 4 2 4 4 7 5 4 12 4 3 5 6 4 7 6 2 2 2 0 3 2 5 3 8 8 6 5 3 5 6 6 11 2 3 11 22 25 25 26 15

GFSSW_850_spd_009.txt.gz
Wind_Speed
13 13 12 11 10 10 9 8 9 11 9 9 6 5 6 8 13 12 13 11 8 6 3 2 1 5 9 7 5 4 4 3 4 6 3 2 3 3 5 7 4 4 8 9 21
10 11 11 10 11 10 9 9 12 13 12 9 6 4 7 13 12 15 13 13 11 8 4 3 8 8 6 4 3 5 3 4 3 3 2 3 2 4 3 3 4 6 8 15 22
8 8 10 12 11 10 10 12 15 15 13 8 6 5 7 9 8 14 12 13 11 9 10 13 14 13 8 6 5 3 3 5 2 5 5 3 3 2 7 1 6 10 11 17 22
7 9 10 10 10 11 13 16 16 16 12 8 6 6 5 2 3 10 8 10 10 12 16 12 8 4 6 4 4 6 5 3 5 5 5 3 2 1 7 3 6 6 12 17 24
6 8 9 10 12 15 17 18 17 14 10 7 6 5 9 12 9 10 7 6 10 11 15 14 12 7 4 3 5 5 3 4 3 6 4 5 3 2 9 9 8 10 13 18 18
6 9 11 14 17 19 18 17 16 13 10 8 6 8 10 12 10 10 4 4 7 11 13 11 8 12 8 3 4 4 5 4 4 1 1 1 1 1 1 2 10 11 17 19 17
10 13 16 18 19 19 18 18 17 13 11 8 7 13 13 6 8 7 5 3 7 8 11 10 11 5 5 3 5 5 5 3 11 3 3 2 2 4 4 5 3 11 17 21 21
15 16 18 18 18 19 20 19 15 13 9 9 9 9 6 8 7 9 4 3 5 5 9 10 10 15 7 6 7 5 5 3 4 7 5 3 5 5 4 5 7 7 13 21 24
15 17 17 17 17 19 19 17 14 10 6 7 7 7 4 5 8 10 7 8 7 10 11 9 13 11 7 4 3 8 3 3 4 5 5 4 6 5 18 13 14 9 8 18 23
19 20 19 17 17 17 17 15 11 5 3 9 8 7 7 6 12 7 7 8 7 6 7 9 8 5 4 4 2 1 1 1 3 5 6 3 7 12 14 4 5 3 3 12 16
18 17 16 14 14 15 15 14 8 11 15 10 9 11 8 8 16 11 8 9 10 10 5 9 8 4 2 0 3 3 2 2 3 2 5 3 6 9 12 12 9 8 9 11 8
15 16 13 13 14 13 13 9 8 9 10 13 12 10 12 11 8 18 10 5 7 4 2 6 4 0 4 4 2 2 3 2 3 1 1 5 4 4 11 8 8 10 14 15 17
14 14 12 12 11 12 12 11 9 7 6 9 10 10 6 13 12 15 10 5 7 5 5 5 0 3 2 4 4 1 2 2 3 6 2 4 2 6 4 7 9 11 13 15 13
12 12 10 9 9 13 12 9 7 3 5 8 6 6 7 3 7 15 9 4 6 3 3 5 4 3 3 3 1 2 2 4 3 1 1 4 3 4 5 3 3 5 8 7 5
11 10 7 4 8 8 9 6 4 0 5 4 5 5 12 9 1 19 10 15 4 2 3 0 2 4 5 2 1 2 1 1 1 3 2 5 0 2 3 2 2 3 1 3 3
11 10 7 7 8 10 7 4 1 6 1 2 3 4 6 13 7 10 8 11 5 5 6 2 2 3 2 2 1 4 2 3 2 2 2 1 2 2 3 5 4 2 5 5 2
11 10 8 7 8 7 5 2 5 5 3 1 3 4 5 5 6 8 6 9 4 3 5 5 3 5 5 4 3 8 3 1 2 3 1 1 1 2 7 7 5 7 7 8 8
11 11 10 9 6 6 4 5 6 3 2 1 3 3 4 3 4 6 3 5 6 5 3 3 1 4 6 2 2 4 3 2 1 2 4 2 0 3 5 8 8 10 9 11 12
11 10 10 8 6 6 2 5 6 5 2 4 3 4 2 3 4 4 4 2 4 4 3 2 2 3 4 3 2 1 5 1 5 1 2 3 1 5 5 11 12 10 10 12 12
10 10 9 9 8 6 5 3 1 4 2 2 3 1 2 3 3 3 2 2 2 6 1 1 2 2 3 1 8 4 4 1 3 2 3 4 4 3 2 4 2 5 7 9 10
6 5 5 9 8 3 4 3 3 2 2 3 3 3 3 3 3 2 1 3 4 2 7 1 1 2 1 4 1 2 2 5 3 1 2 3 5 5 5 3 1 4 0 6 10
3 3 4 10 4 3 3 5 4 2 5 4 5 4 3 3 4 3 3 1 4 1 2 1 2 1 2 1 1 1 3 3 2 2 1 0 7 3 6 3 1 5 3 8 16
4 5 4 7 3 1 1 3 5 2 5 3 3 3 3 3 4 3 3 2 6 3 1 2 2 2 2 2 2 1 2 4 4 2 7 3 6 3 8 7 11 7 10 16 27
4 2 3 4 6 7 5 2 4 6 5 7 4 4 4 4 5 3 2 2 3 3 4 2 2 4 4 3 2 4 4 5 4 4 4 12 18 21 18 15 11 10 12 22 25
2 2 2 1 3 6 4 3 4 3 4 4 4 3 5 3 2 2 1 2 2 2 2 3 3 3 4 8 5 10 12 11 12 12 7 14 15 19 15 12 9 12 21 21 21
3 5 6 4 4 5 4 1 4 3 3 2 6 2 3 4 4 4 3 2 3 1 2 2 2 1 3 5 4 8 14 12 13 13 13 18 20 20 15 4 6 17 20 18 13
5 8 4 3 2 4 2 4 5 8 6 4 14 5 4 5 6 3 5 3 2 3 2 0 3 1 3 5 8 7 4 4 3 5 4 6 8 6 4 5 19 22 15 8 5

GFSSW_850_spd_012.txt.gz
Wind_Speed
14 14 13 13 13 11 11 9 10 11 10 11 8 5 7 9 9 8 5 3 3 3 3 2 2 5 8 4 3 2 6 8 9 8 10 10 7 4 3 8 3 3 4 9 19
12 12 12 12 13 12 10 9 11 13 12 12 7 6 13 12 9 7 9 7 5 4 4 4 10 9 6 4 2 2 5 6 4 5 10 8 4 7 6 7 6 6 5 13 19
10 10 11 13 11 10 10 12 14 14 13 10 7 10 13 8 4 8 8 8 5 4 6 10 12 7 8 6 2 2 8 9 7 8 7 8 6 5 6 7 8 8 10 16 18
9 10 9 9 10 11 13 16 17 16 13 9 7 11 8 3 2 3 7 9 7 11 14 11 7 4 4 6 6 10 8 5 7 6 7 7 5 4 5 7 4 5 9 15 16
7 7 8 10 11 13 17 19 18 16 11 8 9 12 9 7 5 3 5 7 9 9 8 8 8 7 6 10 12 13 10 8 7 8 5 4 3 1 3 5 4 8 11 12 13
6 8 9 11 14 18 20 20 19 13 10 9 9 11 7 7 6 6 1 4 5 5 6 4 4 8 9 6 1 7 9 7 5 4 3 4 4 3 6 2 7 8 10 13 12
7 10 12 16 20 22 21 21 17 13 10 9 10 12 6 5 4 3 1 2 2 5 5 8 10 3 7 10 5 10 9 6 6 5 3 3 7 4 3 0 3 9 11 14 14
12 15 18 20 22 22 23 20 16 12 10 10 15 12 5 6 4 2 4 5 4 6 8 11 11 8 4 8 5 6 4 5 6 2 3 6 10 8 4 4 8 5 10 16 18
16 17 19 20 21 23 22 19 15 10 9 11 11 6 7 3 1 1 9 7 6 9 10 9 9 6 4 7 6 2 3 2 7 3 4 3 2 6 9 9 13 11 10 15 17
17 18 19 19 21 21 19 16 11 8 9 9 8 7 3 3 2 4 8 10 6 8 5 2 3 5 4 5 1 3 3 2 1 5 6 3 5 6 9 5 6 7 8 11 14
18 18 17 18 18 19 18 15 9 7 6 5 7 8 5 3 10 4 8 8 5 4 3 5 3 6 7 6 4 1 1 3 3 4 9 1 2 8 9 7 6 5 6 9 11
16 16 16 17 17 16 14 5 7 13 12 11 11 11 12 7 7 10 5 2 1 5 3 4 7 5 4 4 1 2 3 2 1 1 5 2 3 7 10 11 9 10 12 12 13
15 15 14 14 14 13 11 10 15 9 8 8 8 5 3 10 9 11 7 5 7 6 3 3 6 2 1 5 4 2 2 4 5 6 3 3 6 6 6 9 10 12 14 14 12
13 11 12 13 11 14 11 11 10 5 3 3 2 4 3 2 5 10 5 2 3 9 8 7 3 2 2 4 7 2 2 8 7 6 3 3 4 4 4 7 8 10 10 9 9
13 11 9 6 12 8 10 9 7 2 3 1 4 4 7 4 0 10 8 6 5 5 4 4 4 4 4 4 5 5 8 5 3 6 4 3 6 8 4 6 5 6 7 8 8
13 11 8 8 10 10 8 6 3 2 3 4 2 5 8 12 6 4 7 9 4 7 10 7 3 4 5 2 2 5 3 2 1 2 4 2 5 6 2 4 5 7 7 7 6
14 12 9 8 9 10 7 4 4 3 1 6 5 4 7 5 7 10 12 11 4 3 2 4 5 2 7 4 4 8 3 2 2 3 1 1 6 7 5 7 7 7 8 9 9
15 13 10 9 10 9 7 3 4 2 1 3 5 7 4 3 6 6 4 9 13 6 3 2 4 8 9 5 5 6 6 3 3 2 3 4 3 7 6 6 7 8 8 7 7
15 13 11 10 9 8 4 2 3 4 4 7 8 4 4 4 2 3 8 5 9 10 3 2 3 3 6 6 4 3 4 1 2 1 3 1 4 8 6 6 7 7 5 5 4
15 13 10 9 9 7 2 2 2 1 2 3 4 1 4 4 2 2 3 3 2 7 4 2 2 1 1 3 8 4 3 2 2 2 4 2 7 6 10 4 3 3 1 0 3
14 6 7 11 9 2 2 3 4 2 1 2 4 4 4 4 4 3 3 3 3 3 5 3 3 2 3 2 2 3 2 2 1 2 3 4 6 4 3 2 2 6 6 5 7
5 3 8 13 4 2 4 4 3 4 3 4 5 5 4 3 3 3 4 3 3 2 2 4 1 1 1 2 3 2 1 0 2 2 2 4 7 3 2 3 4 13 6 7 9
4 5 6 9 3 3 4 4 4 3 3 3 3 2 3 4 4 5 3 2 3 1 2 1 0 2 3 4 3 5 2 1 1 1 9 4 4 3 2 9 14 11 10 8 13
4 3 3 2 3 10 10 5 5 5 4 7 5 7 7 5 3 6 5 2 1 2 1 1 2 4 4 6 4 6 7 7 9 5 8 13 18 17 14 14 15 12 7 13 17
3 2 3 4 4 10 6 6 10 5 4 3 4 3 5 4 4 4 3 4 2 2 1 2 3 3 7 10 13 12 13 12 15 16 11 16 16 16 15 14 14 5 14 20 17
4 4 4 4 7 11 1 7 8 5 2 4 7 7 5 5 2 5 4 3 2 4 1 2 1 3 3 7 11 13 16 15 13 14 14 16 16 8 11 9 6 16 20 17 10
4 9 5 1 4 3 3 7 8 9 5 5 15 10 8 8 6 6 5 5 3 1 2 1 2 1 3 8 13 6 3 2 4 4 8 11 10 9 7 10 16 18 14 5 6

GFSSW_850_spd_015.txt.gz
Wind_Speed
16 15 14 15 14 14 12 10 10 10 9 9 8 5 6 6 5 4 2 3 6 6 6 4 5 6 7 5 5 7 5 7 7 7 8 8 8 2 1 8 1 4 9 19 19
15 15 14 15 14 12 11 10 11 11 11 11 7 8 10 6 5 3 1 2 3 6 5 6 8 10 7 6 7 10 4 12 7 5 9 8 5 7 8 9 9 8 9 16 18
14 13 12 12 11 11 11 11 12 14 14 10 8 11 10 5 4 8 3 5 1 4 5 6 7 7 7 9 6 4 7 8 4 2 7 9 6 5 6 8 10 12 12 16 16
12 11 11 10 11 11 12 13 16 16 13 9 9 13 8 3 2 1 4 8 3 5 5 7 9 9 11 7 5 4 8 5 7 5 2 5 7 4 4 11 8 8 13 16 17
10 9 10 11 12 12 14 17 18 16 11 9 11 11 7 6 5 2 5 8 6 2 6 6 4 2 2 6 5 10 9 9 8 5 2 4 5 2 5 8 7 8 12 13 14
8 9 9 10 12 14 18 19 18 14 10 9 12 12 7 5 0 1 4 4 3 3 3 4 1 2 5 9 1 8 9 9 7 6 4 6 6 8 6 7 10 11 12 13 12
7 9 11 13 16 19 20 20 16 12 10 10 12 12 7 5 1 2 4 2 4 3 1 1 2 7 9 6 5 9 8 9 8 9 5 7 10 11 8 6 11 13 12 12 11
8 10 13 17 21 22 22 19 15 11 9 10 14 12 1 3 2 2 3 2 2 2 3 4 5 2 4 7 8 11 9 11 9 9 5 12 13 11 6 6 11 11 14 13 13
11 14 18 22 23 23 21 17 13 10 9 12 10 5 3 2 3 3 2 3 2 2 3 5 4 5 6 12 10 9 11 3 9 4 2 8 3 16 3 8 13 14 12 12 13
14 17 19 21 22 22 18 15 10 9 10 7 4 6 3 2 3 2 3 4 5 7 6 6 8 10 11 11 9 7 4 9 2 7 6 9 10 5 5 8 12 14 13 11 13
15 16 17 20 21 19 17 12 8 5 6 5 11 3 8 3 4 4 5 5 8 10 10 6 11 4 10 7 8 5 4 5 5 5 6 5 7 3 4 4 6 7 6 7 9
15 16 17 19 19 18 16 5 2 10 12 8 8 7 3 4 8 7 4 9 10 10 5 9 5 5 2 2 3 4 5 1 1 2 6 5 5 5 7 6 7 8 10 11 12
12 14 15 15 15 14 6 3 18 9 8 7 4 5 3 5 4 4 2 4 6 5 5 9 9 2 4 1 7 3 7 6 10 8 10 9 9 10 8 12 12 13 14 14 14
12 14 16 15 12 10 5 9 11 4 4 6 5 3 2 3 5 6 3 2 2 3 6 5 4 0 2 2 8 8 4 8 10 8 6 11 3 9 12 10 11 13 12 11 9
11 11 13 12 8 8 8 10 7 5 3 4 5 2 3 2 5 5 5 3 4 7 5 5 3 0 1 5 6 6 8 8 8 9 9 10 8 10 10 11 10 9 8 8 7
11 9 9 6 8 9 9 8 4 4 3 6 4 7 9 8 6 5 5 6 3 4 7 8 3 4 6 4 4 7 8 6 6 4 5 3 7 9 7 9 5 8 6 5 5
13 10 8 10 7 10 8 6 4 4 3 7 8 5 8 8 8 6 5 5 0 5 5 7 4 4 6 9 6 8 7 4 3 4 1 4 7 9 8 7 7 7 6 5 6
14 11 9 8 10 10 8 6 6 3 6 4 9 10 5 7 4 4 5 8 9 6 3 4 7 5 6 5 6 5 7 3 4 3 5 8 5 8 10 9 7 6 5 5 5
15 12 7 9 10 10 10 6 3 7 8 11 12 9 7 5 3 5 9 7 7 9 4 3 4 5 5 5 6 3 4 3 1 1 3 5 6 9 10 9 6 3 0 2 3
11 10 7 10 10 8 6 2 2 2 2 13 7 4 6 7 6 4 2 3 3 8 5 3 2 1 3 4 4 7 3 3 1 3 4 3 10 7 10 8 6 4 3 7 8
11 11 8 10 10 9 5 3 5 6 2 3 3 4 6 5 3 3 3 5 2 4 5 6 3 5 3 2 8 2 1 3 4 3 4 5 5 8 5 4 4 7 10 11 11
8 5 10 14 9 6 5 6 4 8 4 3 2 4 6 4 3 3 5 5 3 4 3 6 2 2 4 4 3 3 4 4 2 3 3 4 8 7 5 3 6 11 13 7 12
6 6 10 14 4 3 5 6 3 7 3 4 3 1 4 5 4 6 5 4 4 4 6 6 1 3 5 6 4 4 1 2 1 2 10 7 6 3 4 10 10 13 11 9 10
6 3 6 8 5 9 9 9 7 3 4 4 7 7 8 6 4 7 7 4 2 4 4 3 1 3 5 8 6 8 9 9 10 7 11 12 17 14 11 11 16 16 11 11 15
2 2 4 6 6 9 9 10 10 5 3 7 4 4 7 4 6 5 7 7 3 2 1 3 2 4 9 11 11 12 13 14 15 15 14 16 17 16 12 11 13 9 13 16 18
5 4 3 3 8 10 5 10 12 5 8 7 7 8 6 6 2 6 5 3 2 4 1 2 1 3 4 7 11 15 17 18 16 11 13 14 13 10 10 10 11 18 21 18 14
4 8 7 3 9 8 7 9 9 10 2 4 11 8 9 9 10 10 8 5 4 2 3 1 0 2 4 10 13 6 3 3 7 8 8 9 12 8 11 15 17 16 13 11 10

GFSSW_850_spd_018.txt.gz
Wind_Speed
18 17 17 15 15 15 13 12 10 9 9 10 9 6 5 6 8 8 7 6 10 8 7 6 8 8 9 15 16 22 11 6 7 9 11 8 5 2 7 9 7 6 10 24 21
18 18 15 15 14 13 12 10 10 9 11 11 9 7 7 9 11 10 7 5 7 8 8 7 9 10 13 11 10 10 8 11 10 10 11 8 6 9 6 10 8 10 22 20 20
16 16 14 14 12 12 11 10 10 11 12 11 8 8 10 8 7 7 3 1 4 6 7 9 7 12 19 8 11 7 9 9 8 9 6 8 12 6 7 7 14 16 18 18 17
15 13 12 12 11 11 11 11 12 14 14 10 8 10 9 5 1 6 4 5 3 5 3 8 11 18 8 10 4 2 6 9 13 3 2 7 12 4 3 13 10 19 16 19 17
12 12 11 11 11 11 12 12 14 15 12 8 8 12 7 8 4 4 8 7 3 3 8 10 14 8 5 5 5 7 5 12 9 7 3 7 6 4 1 8 6 13 14 17 15
10 11 10 10 10 12 13 15 17 15 10 8 9 10 8 11 2 0 3 2 3 6 5 5 4 4 4 7 4 10 9 11 9 7 4 5 8 7 9 15 10 8 14 13 15
9 9 10 11 12 14 16 19 18 13 9 9 10 12 8 6 2 1 1 4 2 7 8 3 5 7 3 5 2 7 7 6 7 8 7 6 7 11 12 9 12 12 10 15 14
6 8 10 12 15 18 20 20 15 10 9 10 13 13 7 4 2 4 2 4 1 2 3 2 3 9 5 7 6 9 8 9 11 10 6 8 10 14 12 12 11 16 15 13 13
6 9 12 16 19 21 20 15 11 9 7 11 12 10 7 1 4 2 3 4 3 2 1 2 4 5 2 7 8 8 9 8 9 9 2 11 12 15 14 8 10 10 13 14 11
8 12 15 18 21 20 16 13 9 8 10 10 8 10 7 2 3 3 3 3 3 3 4 4 7 7 10 9 2 13 10 4 5 9 6 9 10 9 7 4 11 14 15 17 13
10 13 16 18 19 18 17 13 7 3 11 7 12 3 4 3 6 3 5 5 4 8 10 9 9 4 13 9 7 10 7 7 12 7 3 9 10 3 10 7 4 6 2 7 23
10 12 14 16 17 17 15 6 3 4 8 1 5 3 2 1 7 6 6 8 6 11 4 4 2 7 5 8 6 6 6 6 5 6 3 10 9 10 7 7 6 7 8 21 21
9 11 14 15 15 15 9 4 2 7 7 6 4 6 2 4 4 4 2 7 9 11 6 10 10 5 5 2 7 5 5 9 8 11 10 12 11 12 9 5 11 15 15 18 15
9 12 14 13 9 9 5 2 4 0 5 7 7 4 3 5 4 0 4 5 2 3 2 8 4 3 1 2 7 7 6 6 9 9 8 12 7 13 13 10 13 15 15 15 14
8 10 12 13 3 8 4 5 3 6 4 5 6 3 5 3 10 4 2 4 5 2 4 6 3 1 2 7 6 5 5 7 9 10 10 12 7 14 16 13 12 14 14 11 11
7 9 10 3 2 3 5 5 4 4 4 6 7 8 8 5 1 6 4 3 3 3 4 8 4 7 7 4 3 7 9 11 8 9 3 12 1 4 3 13 13 15 12 9 9
8 8 7 5 4 5 7 6 4 3 6 7 9 8 10 6 5 7 6 4 5 5 6 6 6 5 5 10 6 6 9 4 2 3 1 4 3 8 9 8 12 13 12 9 6
10 8 6 7 5 8 7 6 6 4 5 8 11 9 7 8 4 2 10 8 8 9 4 8 6 4 5 6 7 4 6 2 4 4 4 4 3 9 12 11 12 12 10 8 7
11 7 2 6 6 8 6 6 2 4 8 7 11 8 4 4 2 3 11 8 6 9 7 3 7 6 6 6 7 5 5 3 1 2 1 5 12 13 11 9 10 9 4 5 1
10 6 7 6 7 8 5 7 1 5 2 10 9 4 8 8 8 7 4 2 4 8 6 4 3 3 3 3 3 4 1 2 2 2 3 8 7 6 7 6 6 5 4 6 6
11 8 8 10 8 8 5 4 1 2 5 5 4 5 2 6 3 4 5 6 5 5 7 7 3 5 5 6 7 1 2 2 3 0 2 3 1 8 6 5 3 6 9 9 8
10 6 10 12 8 11 8 2 1 7 2 2 4 3 4 4 2 4 10 8 4 4 4 4 2 1 8 5 3 3 4 3 1 3 1 1 7 8 4 6 12 12 13 9 8
9 6 14 17 5 4 4 5 4 7 7 5 2 1 3 5 3 6 8 4 4 6 4 4 1 2 7 5 4 2 3 2 3 2 4 4 5 5 8 18 16 10 13 14 10
8 3 6 10 10 11 8 7 5 3 4 1 5 4 5 5 3 6 9 4 5 8 3 3 1 1 2 5 6 7 9 10 10 4 6 8 14 15 10 9 3 9 10 11 11
6 5 10 6 9 6 11 9 10 6 5 7 5 6 6 3 6 5 11 8 5 2 1 3 0 4 7 8 7 10 12 13 13 12 9 11 14 11 10 8 14 14 14 15 17
6 2 6 5 15 10 5 6 11 7 8 8 4 7 8 6 3 7 6 5 3 4 2 3 1 4 3 3 10 13 15 12 12 11 10 11 13 9 13 17 16 15 16 17 12
4 1 4 1 5 6 6 9 9 10 2 5 7 7 10 13 14 13 13 9 7 4 4 2 1 2 2 9 9 2 2 7 9 11 9 6 8 14 9 12 16 14 13 10 13

GFSSW_850_spd_021.txt.gz
Wind_Speed
19 18 16 16 15 14 14 12 11 11 11 10 9 9 9 9 8 10 10 7 9 8 7 8 8 4 1 9 15 22 2 9 16 8 5 7 6 17 17 17 21 11 31 32 28
18 17 15 15 14 13 12 11 11 11 11 10 9 10 10 9 9 14 8 10 8 9 11 10 8 5 8 10 11 9 4 4 2 12 8 6 14 7 14 17 24 28 31 30 27
18 16 15 14 13 11 11 10 11 11 11 10 10 10 9 5 8 14 7 5 6 8 8 9 11 16 14 16 10 1 5 4 11 21 20 18 12 7 17 6 28 32 31 26 22
16 15 14 12 12 10 11 11 11 12 12 11 10 10 5 5 3 6 3 4 6 7 10 8 9 14 3 5 10 5 12 17 8 16 18 13 11 3 7 20 25 31 28 25 19
14 13 12 12 11 11 12 12 12 13 12 9 10 7 4 5 8 5 4 3 4 6 9 9 17 17 8 9 4 9 8 14 7 11 12 18 6 6 17 17 28 28 26 23 20
12 12 11 10 10 10 11 11 13 14 11 8 9 5 4 6 2 1 1 5 8 6 14 19 9 8 2 9 4 12 15 12 7 5 5 3 6 2 17 20 28 29 26 23 21
10 10 9 9 10 11 12 15 16 12 9 7 7 6 8 13 6 2 1 6 5 7 13 4 5 12 7 6 5 15 6 6 7 12 4 3 2 7 23 21 21 20 25 22 21
7 7 8 10 11 13 15 17 14 10 8 7 7 8 7 5 5 4 3 2 4 6 8 5 4 8 7 10 3 3 4 5 6 12 9 9 7 7 22 23 23 20 19 23 22
4 7 9 11 14 17 18 15 11 8 6 7 6 5 8 5 8 1 7 6 3 2 4 2 1 4 3 3 2 2 5 6 6 17 6 4 7 13 21 19 18 23 20 19 22
4 8 11 14 18 18 17 13 8 6 6 6 5 3 12 3 8 6 4 4 2 3 3 3 4 1 5 4 3 4 5 6 7 4 3 2 3 1 14 10 8 7 13 13 25
7 11 15 18 19 18 16 12 6 2 13 12 11 10 8 4 6 10 5 3 4 6 4 12 5 4 4 3 4 5 4 9 5 6 2 3 4 5 11 7 5 11 34 33 32
9 12 14 15 17 17 17 6 1 1 7 18 11 9 2 4 6 9 11 4 4 6 7 3 4 4 1 2 3 5 7 6 4 4 3 3 5 4 10 9 27 31 33 32 26
10 11 13 15 15 16 14 5 6 5 5 4 5 7 3 4 4 8 3 9 8 6 5 6 3 2 4 7 9 9 6 5 3 6 3 3 2 6 6 23 31 32 31 26 25
9 11 13 12 9 8 11 3 8 4 4 3 3 3 1 6 4 4 5 5 3 3 11 7 4 4 5 8 7 5 6 5 6 5 2 4 1 2 8 12 20 28 30 29 26
9 11 12 12 2 7 6 7 3 6 4 7 4 8 6 1 12 3 5 4 4 4 7 2 5 7 9 4 4 2 2 3 3 4 3 7 3 3 8 11 12 21 25 23 20
9 11 12 4 2 5 6 2 2 5 2 3 6 5 5 4 2 7 3 2 2 7 9 5 10 4 4 4 2 5 4 6 4 2 2 7 4 2 5 11 7 18 19 18 15
10 11 8 5 2 3 2 3 4 4 6 5 4 7 7 2 5 6 5 3 3 3 2 3 4 3 3 4 1 3 6 4 4 4 3 4 6 2 6 10 19 19 24 22 18
10 8 5 5 2 5 3 4 1 5 4 5 6 4 7 3 4 3 6 4 8 6 2 5 2 5 6 5 2 4 4 4 1 1 4 3 3 1 10 25 25 23 17 11 9
10 6 5 4 4 5 2 2 4 4 5 6 4 5 4 3 2 4 8 3 5 7 4 4 3 4 6 4 3 5 5 1 5 2 3 1 3 5 8 9 15 12 15 17 15
10 6 5 5 5 4 4 4 1 5 5 5 5 5 7 8 4 4 4 4 3 5 4 5 4 2 3 2 4 5 2 5 4 2 2 3 4 3 5 4 3 3 9 12 16
12 5 8 6 5 3 2 5 3 7 12 5 3 2 2 7 6 5 4 5 7 2 10 4 4 3 2 4 4 4 2 4 2 4 4 1 3 3 5 4 3 12 15 14 16
11 1 10 12 4 4 3 3 2 3 4 3 3 5 3 5 5 5 4 4 8 9 3 3 4 3 3 2 2 0 3 4 4 3 1 4 5 3 9 17 14 14 18 15 12
6 5 10 15 3 2 6 3 1 5 4 1 5 6 5 4 5 9 5 6 9 5 2 3 2 3 4 4 4 1 4 4 5 3 5 5 5 2 5 10 4 14 15 10 7
3 2 4 10 8 4 4 3 2 6 3 5 5 3 3 4 4 4 4 2 6 4 2 3 2 5 5 3 1 2 5 4 6 3 3 6 7 9 5 4 13 16 14 12 11
4 4 10 3 6 5 5 8 6 2 1 3 1 3 4 3 4 5 5 4 2 1 1 3 3 4 4 5 4 3 5 7 5 5 4 7 4 8 7 9 13 12 13 11 9
4 4 14 11 20 4 5 6 8 8 6 4 3 6 7 4 2 6 8 5 4 5 4 4 1 2 1 6 7 4 7 8 8 2 3 5 4 9 14 16 17 11 11 10 11
4 4 1 3 5 4 3 0 1 9 3 5 5 11 14 7 21 17 19 16 10 5 3 3 4 3 2 4 5 4 4 5 4 3 3 2 1 11 12 15 12 10 9 9 13

GFSSW_850_spd_024.txt.gz
Wind_Speed
20 20 19 19 18 17 15 14 13 12 12 12 11 11 10 12 12 12 13 6 6 8 3 6 6 5 7 7 11 6 2 4 6 3 11 12 11 21 21 24 8 5 32 36 30
20 20 19 18 17 16 14 13 12 12 10 11 11 10 10 10 11 17 6 8 6 7 8 9 8 6 4 3 6 5 2 3 5 10 5 10 20 12 9 20 18 26 34 35 32
20 20 19 18 16 15 13 12 12 11 10 10 11 8 8 7 11 11 8 7 5 8 9 10 7 5 8 4 5 6 4 2 10 14 20 12 9 13 20 2 29 34 37 35 32
18 18 17 17 15 13 13 12 12 11 10 11 9 6 4 5 4 3 2 3 5 9 10 9 9 5 5 5 9 4 2 9 7 12 16 10 14 6 10 12 25 35 38 34 29
17 16 15 14 13 13 12 12 11 11 12 11 7 4 4 6 9 4 2 3 5 8 10 12 10 8 6 5 5 8 4 10 12 11 12 11 11 6 8 24 28 35 33 30 28
15 14 13 12 11 11 11 11 11 12 12 8 5 3 6 5 1 6 3 5 4 3 7 12 8 12 11 7 9 10 13 9 9 7 6 6 6 8 14 33 35 34 30 26 24
13 13 11 11 10 10 11 12 12 12 10 6 4 6 9 15 4 1 7 9 4 6 7 9 2 4 1 6 17 17 6 5 1 4 3 7 3 5 21 36 37 35 30 26 21
10 10 9 9 10 11 12 13 14 12 7 4 5 5 9 5 8 6 4 3 1 4 3 5 3 8 7 5 6 5 5 3 3 5 2 6 6 6 30 35 35 36 33 30 27
7 8 9 10 11 13 14 15 13 8 5 3 3 4 9 8 7 2 2 4 4 2 4 3 3 5 6 4 5 5 3 4 2 11 3 3 6 8 28 33 34 36 30 24 17
6 8 10 12 15 17 16 12 8 6 4 4 3 3 11 6 6 4 5 4 4 4 5 4 5 4 4 4 3 5 5 3 7 5 2 4 6 5 24 26 25 11 16 19 20
7 9 13 15 18 17 17 12 6 2 9 8 7 4 6 7 8 9 7 4 1 3 1 6 5 3 6 5 4 5 5 7 2 1 4 5 3 3 8 10 24 30 33 36 36
9 12 14 17 18 18 16 6 6 5 4 19 8 15 11 4 3 10 7 3 2 2 3 6 3 5 5 6 7 5 8 4 5 7 4 6 5 5 9 12 29 35 35 36 31
11 14 16 18 16 16 14 6 5 5 3 3 11 12 4 1 5 9 9 2 3 1 2 6 4 2 6 6 7 5 5 3 2 3 3 8 5 6 9 24 24 27 30 28 26
12 15 15 14 11 10 9 5 5 5 4 3 2 3 3 6 3 4 2 1 3 1 8 4 5 7 6 5 1 2 3 3 2 4 2 3 1 5 6 9 11 19 28 28 26
13 15 15 14 4 6 1 4 5 3 3 3 2 7 3 1 7 3 4 1 1 2 7 2 5 7 6 0 1 3 2 1 1 3 4 6 6 4 6 10 9 16 27 25 22
14 15 14 7 5 5 4 4 3 6 2 4 6 5 3 1 3 5 2 2 3 6 6 4 4 3 2 3 0 1 2 7 4 3 3 5 5 4 4 7 8 11 24 24 18
15 15 11 7 5 4 3 3 5 4 2 5 5 5 4 3 3 3 4 6 4 4 3 5 3 4 4 4 6 7 5 3 4 4 3 5 5 2 6 8 11 15 21 21 18
17 15 10 6 3 4 2 4 2 4 4 3 5 6 5 3 3 3 3 3 6 4 3 4 3 4 6 2 1 3 5 5 4 2 3 5 3 1 5 24 25 23 19 14 14
15 12 8 6 3 3 3 3 5 3 2 7 5 5 2 2 5 6 3 3 1 2 5 4 1 1 1 1 2 3 4 4 6 3 3 1 3 2 6 10 18 8 9 12 10
14 10 8 6 5 3 4 5 3 4 3 4 5 5 5 6 4 4 2 2 0 5 3 3 4 2 2 5 7 5 2 4 4 2 1 3 2 4 5 6 6 9 14 16 18
14 8 9 8 4 2 3 5 2 6 7 4 1 5 5 7 6 3 2 3 5 3 6 2 4 4 4 2 1 4 3 5 4 3 4 2 4 4 7 5 8 16 21 18 16
13 3 12 11 3 0 2 4 2 4 5 4 3 3 5 4 4 3 3 2 7 2 3 2 5 3 1 3 2 2 3 4 4 2 2 3 4 4 10 16 20 22 19 15 14
13 5 10 14 3 2 5 3 2 2 2 2 3 4 4 4 6 3 3 4 10 4 2 2 2 3 6 6 5 3 1 5 6 3 5 5 5 9 6 10 15 17 17 16 13
8 3 4 7 3 6 2 2 2 5 2 4 3 6 5 5 6 5 2 4 6 4 3 2 3 5 6 4 3 3 2 4 5 3 3 6 6 4 5 11 15 15 13 13 6
4 4 9 4 4 3 3 5 3 2 2 4 4 3 4 3 3 4 3 2 4 2 3 3 3 1 2 4 2 1 2 2 4 5 5 6 6 4 5 7 10 11 12 7 3
4 3 8 8 13 6 5 6 8 3 3 0 2 4 5 4 5 7 6 3 4 2 2 4 1 2 1 5 6 3 5 5 4 3 4 6 3 5 13 8 9 11 8 5 5
6 3 7 1 6 4 4 6 8 9 2 4 12 7 9 5 16 17 11 11 9 6 2 3 4 3 3 4 5 5 6 3 1 3 4 5 5 9 4 8 11 9 5 2 5

GFSSW_850_spd_027.txt.gz
Wind_Speed
21 21 22 21 20 19 18 16 16 15 15 14 12 10 12 13 13 16 17 6 6 5 7 6 8 6 6 4 3 2 4 2 3 14 10 14 6 13 7 19 4 2 21 33 34
21 21 22 22 20 18 17 16 15 14 14 13 10 10 10 11 14 18 5 9 8 7 9 9 7 5 4 3 6 4 4 8 7 8 9 11 19 15 7 7 5 19 26 37 34
22 21 22 21 19 17 16 15 13 14 13 11 9 8 6 8 12 9 6 9 10 9 8 8 8 6 5 5 6 6 3 2 4 13 26 17 13 5 21 2 19 30 38 39 36
20 21 20 19 16 15 14 13 13 13 12 9 8 5 5 6 4 3 2 5 9 10 9 10 7 5 3 4 7 3 3 6 6 16 17 11 14 13 5 11 26 25 37 39 36
19 20 18 17 14 13 12 12 12 12 10 8 6 4 5 6 9 4 2 3 4 8 11 14 14 7 3 4 3 5 5 6 10 10 10 11 7 7 6 22 27 28 39 38 35
18 18 16 14 12 11 11 11 11 10 8 7 5 6 6 5 1 5 6 8 9 8 7 12 11 11 6 8 4 8 5 8 8 10 6 7 4 1 6 29 32 36 38 34 33
17 16 13 12 10 10 10 10 10 9 8 7 6 7 8 13 3 5 5 5 6 2 3 2 6 18 8 5 10 14 6 5 2 2 3 11 3 4 22 31 36 37 34 34 30
15 12 11 10 9 9 9 10 10 9 8 6 5 4 9 6 10 3 3 3 2 2 2 2 2 3 3 14 6 4 5 3 3 4 1 3 7 2 25 32 33 34 34 31 27
12 10 9 10 10 10 10 10 10 8 6 4 4 3 9 5 7 2 1 1 6 2 3 3 3 5 5 6 4 7 2 2 3 4 2 3 4 3 27 32 27 20 16 17 15
10 8 9 11 11 12 12 12 8 6 5 4 2 2 9 2 4 4 2 0 2 2 5 5 4 4 3 5 3 4 1 2 5 5 4 1 9 2 28 19 12 13 13 13 13
7 9 10 12 14 16 16 12 5 3 9 7 3 5 2 6 6 8 4 1 3 6 4 5 6 0 3 1 3 2 2 3 3 1 5 3 6 8 4 18 21 20 22 24 24
7 10 12 15 18 18 16 6 4 2 5 17 12 10 15 8 4 7 5 3 3 2 3 7 2 0 7 5 5 5 6 3 1 5 6 6 8 11 12 9 18 26 28 33 33
10 13 17 19 19 19 14 6 3 3 1 4 16 13 8 5 3 7 4 3 3 2 2 4 3 5 6 6 8 4 4 3 3 4 6 5 6 7 7 19 21 22 28 29 27
14 17 18 18 17 14 10 2 3 6 4 4 3 4 5 7 3 5 5 2 3 4 7 5 5 5 6 6 4 2 1 3 3 4 3 3 2 4 4 7 10 19 23 24 25
16 18 19 16 9 11 5 1 3 2 4 3 3 6 5 3 6 2 3 1 2 5 6 2 3 5 6 1 3 3 2 3 3 3 3 4 5 2 5 2 4 11 21 24 23
19 20 20 10 11 10 3 1 3 6 2 3 4 3 4 2 2 4 4 4 6 5 6 3 2 3 2 2 1 1 4 6 4 3 3 3 4 4 6 6 6 11 20 21 19
20 21 18 11 10 7 1 4 5 4 1 4 3 3 3 2 3 3 4 5 3 5 3 5 4 5 2 2 3 5 5 2 3 3 4 5 3 5 5 5 7 13 21 19 18
21 21 15 11 9 5 3 5 2 3 4 2 5 3 5 3 4 3 3 3 5 4 3 4 4 3 5 2 3 3 4 4 5 3 3 5 2 4 1 20 21 23 21 18 16
23 19 13 10 7 5 4 3 5 6 3 6 5 4 2 2 5 5 3 2 0 2 5 4 1 2 0 1 3 1 3 3 6 3 3 2 2 6 2 11 21 24 22 18 14
22 17 13 10 7 7 5 4 4 4 2 5 5 5 5 5 4 4 1 2 1 4 3 5 3 1 3 2 4 4 4 3 4 2 1 3 3 4 8 7 8 8 18 17 17
20 10 14 11 9 6 3 6 4 4 2 4 5 4 5 6 4 3 1 3 3 2 6 3 4 4 2 3 1 4 2 6 5 3 4 1 5 5 10 8 8 12 21 22 21
17 3 16 15 5 2 3 4 3 2 6 4 4 3 5 4 4 3 4 1 4 0 2 2 5 3 1 5 3 1 3 4 4 2 1 3 5 3 6 15 22 23 25 22 20
13 5 13 15 4 1 4 4 1 2 3 2 2 2 2 5 6 2 3 1 2 3 4 2 2 3 6 6 5 1 2 5 6 3 4 4 5 2 6 6 12 20 18 17 15
10 3 3 6 4 7 3 3 1 4 3 3 3 5 5 5 6 5 3 2 2 4 4 3 3 5 6 4 3 3 3 4 5 3 3 6 4 5 4 7 14 18 19 17 12
7 4 9 4 2 4 5 2 3 2 2 3 4 2 4 4 3 4 2 2 4 2 3 4 3 2 3 4 2 1 4 6 6 5 6 5 7 5 9 8 14 17 18 13 7
7 5 6 7 17 6 3 5 6 2 3 0 5 3 2 6 6 7 6 3 3 3 3 4 1 1 1 5 6 3 5 6 5 4 7 3 5 5 15 12 13 18 14 10 5
7 5 7 1 5 6 5 6 8 6 5 3 9 5 4 2 6 11 6 9 8 5 3 3 4 3 3 4 4 6 9 9 5 4 7 6 8 12 7 13 15 16 12 9 5

GFSSW_850_spd_030.txt.gz
Wind_Speed
20 21 23 23 23 22 21 21 19 18 17 13 13 13 13 12 12 15 21 11 5 9 6 6 7 5 6 4 5 3 3 3 5 9 15 12 9 14 4 15 4 6 10 25 29
21 21 22 23 23 22 21 20 18 16 15 12 12 12 10 10 12 19 11 7 9 8 6 7 5 5 3 3 4 4 2 3 7 10 11 9 16 15 7 9 3 10 16 33 31
21 22 22 22 22 21 20 19 17 14 13 10 10 9 6 7 12 3 1 9 10 9 5 6 5 3 3 3 3 3 5 5 9 16 13 12 10 10 14 2 8 25 35 33 33
21 22 21 21 19 19 18 17 15 13 11 8 8 5 5 6 3 4 2 4 9 11 9 9 5 4 3 3 5 1 10 7 4 12 20 12 15 7 13 5 11 27 34 35 34
21 20 20 20 18 17 16 15 13 10 8 6 6 5 5 5 7 3 4 3 7 12 13 12 13 8 4 5 5 3 3 4 11 15 20 18 7 9 5 9 22 27 33 35 34
20 18 19 18 16 16 14 12 10 7 6 6 7 5 5 4 4 3 10 6 8 8 12 17 8 12 5 4 4 7 5 4 7 11 10 9 5 7 6 20 25 30 34 34 32
18 17 18 16 15 14 11 10 8 5 6 7 6 6 9 10 3 11 10 7 7 8 11 11 17 10 4 3 3 6 4 5 5 3 4 10 3 2 17 26 29 33 34 33 31
17 16 16 15 14 11 8 7 5 6 8 6 5 5 9 3 9 9 4 5 5 4 7 7 8 9 5 10 6 5 5 4 3 2 2 4 6 0 21 29 28 28 27 28 28
16 14 13 14 12 9 7 6 7 8 6 4 4 4 7 2 6 3 4 3 3 3 2 4 8 5 5 5 5 7 3 1 1 2 3 3 0 10 20 23 18 23 22 23 24
15 12 11 12 9 9 10 11 9 7 6 4 4 2 6 1 3 5 3 3 2 5 3 4 3 4 5 5 4 5 4 1 3 2 2 4 5 8 9 14 13 15 13 15 16
13 10 11 10 10 13 15 13 6 3 10 8 4 4 3 8 5 5 2 2 2 5 2 5 7 3 5 5 4 4 3 3 2 2 7 6 5 8 3 12 11 12 13 12 12
12 11 11 11 14 17 18 6 4 1 5 15 15 12 13 9 2 5 3 1 3 3 1 6 4 3 4 4 6 6 5 2 2 6 6 6 8 8 11 4 8 15 17 17 16
11 12 13 16 20 20 16 5 2 3 3 4 13 9 2 4 3 5 5 3 3 3 4 6 1 4 4 5 8 4 4 1 2 3 7 4 4 5 6 11 15 16 21 24 25
12 15 18 20 18 19 12 1 1 1 4 4 4 2 4 4 2 6 5 2 4 4 5 5 3 5 6 5 3 3 0 2 4 3 3 3 3 2 3 4 6 18 22 23 21
15 18 20 22 10 16 5 3 2 1 3 3 3 3 3 4 7 2 3 2 4 4 4 1 2 5 7 1 2 1 5 4 3 5 4 4 4 3 6 3 5 10 18 20 18
18 21 22 15 14 13 6 3 4 6 3 2 5 3 3 3 2 3 2 7 6 5 6 3 3 3 2 2 3 4 5 8 5 3 2 1 4 3 5 6 6 12 18 20 17
22 24 24 13 14 11 5 6 5 4 1 3 4 3 3 2 4 4 5 5 4 5 4 6 4 5 3 3 3 6 5 3 3 3 4 3 3 6 5 5 11 15 21 21 18
23 25 22 14 15 10 8 4 2 3 5 1 4 3 4 3 4 4 3 3 5 4 3 4 4 3 5 2 4 3 5 5 5 3 3 3 3 4 4 10 23 23 23 20 18
24 25 19 15 14 10 5 4 6 6 3 6 4 5 1 2 5 5 3 2 1 1 5 4 0 2 2 2 3 2 3 3 6 2 3 2 3 4 5 4 19 24 20 20 20
27 23 18 16 14 11 5 5 3 4 1 4 4 3 4 3 4 4 1 2 2 3 2 5 4 2 2 3 6 2 5 3 3 2 3 3 4 5 5 7 8 12 22 20 18
27 11 17 17 14 7 4 5 4 6 4 4 5 4 4 5 3 2 3 1 1 2 4 3 4 4 1 3 3 2 2 6 4 3 4 1 5 5 12 12 12 15 20 22 22
18 4 18 19 5 1 4 5 3 2 3 3 4 3 5 3 4 3 4 1 2 1 3 1 5 2 2 2 2 2 3 5 4 3 1 3 5 2 6 14 16 17 19 22 23
13 7 15 17 4 1 2 2 3 2 3 2 3 2 3 4 5 2 3 1 1 2 6 5 1 3 6 5 4 2 3 4 5 3 5 5 5 1 4 9 12 20 22 22 19
13 3 4 5 4 8 5 3 2 1 3 4 4 4 4 4 6 5 3 1 1 3 5 4 3 5 7 4 2 4 4 4 5 3 4 6 4 4 4 6 11 17 20 20 17
7 3 7 3 2 4 4 4 4 2 3 4 4 3 5 4 3 3 2 2 3 3 3 3 4 2 1 3 1 2 5 6 7 5 6 5 7 7 9 9 18 21 21 19 15
8 6 6 4 18 6 3 5 6 3 3 2 5 1 2 5 6 8 6 4 4 3 3 3 2 1 2 4 5 3 5 6 5 3 7 3 9 7 5 14 17 22 23 19 14
7 10 11 0 3 6 6 6 7 7 3 2 6 5 4 1 5 11 8 11 7 5 3 3 5 3 4 4 5 6 9 11 6 5 7 7 9 7 4 13 20 22 23 19 14

GFSSW_850_spd_033.txt.gz
Wind_Speed
19 20 21 23 23 23 21 20 20 19 18 15 15 14 13 13 13 16 19 8 5 12 5 3 5 7 6 4 4 2 1 3 7 10 11 12 7 13 7 5 5 7 6 16 27
19 21 22 22 23 23 21 20 19 18 17 13 12 12 11 11 14 17 9 7 8 8 7 6 6 6 3 4 4 3 3 7 7 10 9 10 14 14 6 12 4 6 10 25 24
20 22 21 22 23 22 20 19 17 16 14 11 9 9 7 9 13 1 2 8 11 8 5 7 5 6 4 4 7 6 4 6 9 15 22 15 10 12 14 10 7 12 26 28 26
20 21 21 21 21 21 18 18 15 15 11 9 7 7 6 6 3 4 1 6 10 12 9 9 8 4 4 5 7 3 4 3 3 18 15 15 9 6 8 3 8 17 34 31 29
20 20 19 21 20 19 17 16 13 12 8 7 6 6 5 6 9 2 8 1 9 14 15 13 14 8 4 5 6 3 1 2 7 12 8 17 6 6 8 1 12 24 33 31 29
20 19 19 20 19 17 15 14 11 8 7 6 6 6 6 4 4 1 8 7 6 11 16 15 7 11 3 1 3 2 5 7 8 13 16 8 5 6 6 14 20 29 30 28 27
20 19 18 18 17 14 13 11 9 6 6 6 7 6 10 11 3 5 9 9 5 8 11 13 17 6 2 1 5 7 5 5 5 5 4 16 4 2 11 20 26 30 28 29 27
19 18 17 16 15 11 10 9 7 6 6 7 5 6 8 4 7 7 7 5 3 5 7 7 5 12 6 2 4 4 4 4 2 4 4 4 3 8 13 23 21 23 24 27 25
18 17 16 14 12 8 8 8 7 7 7 6 5 6 6 5 6 3 3 3 5 1 3 6 9 5 5 3 3 6 3 3 4 4 4 3 3 9 9 13 12 14 17 24 23
16 15 15 12 9 7 9 8 7 7 6 5 6 3 5 2 4 3 2 2 1 4 5 5 5 3 2 2 4 4 4 2 3 2 9 7 4 7 2 9 10 13 16 19 21
16 14 14 10 9 10 12 11 5 3 13 8 4 2 3 4 7 5 1 1 0 2 2 1 3 3 3 3 3 4 3 3 2 2 6 4 4 6 3 7 11 11 13 13 13
15 13 12 11 12 14 18 10 6 1 5 17 14 12 11 7 3 6 3 2 3 1 1 4 3 1 4 3 5 4 7 3 3 3 4 4 6 7 6 2 4 11 12 13 11
15 14 13 14 16 18 21 8 5 6 2 5 13 9 3 8 4 4 5 5 3 2 2 4 2 4 3 4 7 4 5 2 3 4 6 3 3 2 5 6 4 6 10 12 13
15 15 15 17 16 19 19 6 4 4 2 2 4 4 7 5 0 5 6 3 3 4 4 4 3 3 4 3 2 4 1 4 4 2 2 3 3 2 1 3 4 9 13 19 24
17 17 18 20 9 22 7 8 4 3 3 3 4 6 7 6 7 2 5 4 5 4 3 1 2 4 4 1 2 3 3 4 3 4 2 2 2 1 0 4 8 13 16 19 19
20 20 22 26 15 20 9 6 5 4 3 3 6 5 4 2 2 2 3 6 6 4 6 2 2 3 2 3 4 8 4 5 3 2 1 1 3 3 5 5 11 14 15 16 16
22 23 27 27 13 16 11 8 3 3 2 2 3 4 3 2 3 3 4 4 2 4 3 4 3 2 3 4 3 4 4 2 1 1 3 1 2 5 4 6 17 20 18 18 17
24 26 29 25 15 16 10 2 3 2 4 1 3 4 5 4 2 3 3 2 4 5 3 3 0 2 3 1 4 2 3 4 4 3 1 1 4 1 2 5 19 21 20 21 21
25 28 29 24 16 13 8 3 6 6 4 7 3 5 2 2 4 3 2 2 1 1 4 3 1 2 3 1 1 3 2 2 6 1 1 2 3 5 1 5 15 21 19 22 23
28 26 29 22 17 15 3 5 4 4 2 2 4 3 4 3 3 3 1 1 2 1 1 5 3 1 0 2 6 1 7 3 2 3 3 2 4 5 4 8 12 18 23 22 23
26 13 18 21 19 9 4 5 5 7 6 5 5 4 3 5 3 2 3 1 1 2 4 3 3 2 1 1 5 2 2 5 4 1 2 1 4 4 8 11 16 23 24 23 22
21 3 22 23 5 1 4 6 4 3 4 4 4 4 5 3 3 3 6 2 2 2 5 1 4 3 2 0 1 1 3 4 3 4 1 0 5 2 5 10 13 17 17 19 19
16 7 22 23 4 1 2 3 3 1 2 3 3 3 2 4 4 2 3 1 4 3 6 5 1 3 2 2 1 3 3 4 5 2 5 4 4 1 4 6 15 16 16 17 19
15 3 6 9 5 8 5 3 2 2 1 5 5 4 4 3 4 5 3 1 2 3 5 4 3 4 6 3 1 4 4 5 4 3 4 6 4 4 6 7 10 15 19 19 23
8 3 8 4 2 5 4 5 5 3 2 3 4 3 5 4 2 3 2 2 3 5 3 2 4 2 1 1 2 2 4 8 8 4 6 4 9 6 9 11 13 13 18 23 24
9 6 5 4 17 6 1 6 7 3 1 1 6 3 2 6 6 8 7 4 4 2 2 2 3 2 3 1 3 3 5 7 8 3 10 4 13 9 4 5 14 20 24 24 24
9 11 13 1 3 5 5 6 7 7 4 5 7 5 4 1 4 8 7 11 7 5 3 2 5 3 3 3 3 5 9 12 6 6 8 10 10 6 5 10 17 21 26 26 26

GFSSW_850_spd_036.txt.gz
Wind_Speed
18 19 19 20 20 21 21 21 20 22 19 17 16 16 14 14 13 17 19 10 6 11 6 5 4 8 5 7 5 4 7 9 11 15 15 10 11 9 11 12 3 4 2 8 24
17 19 20 20 20 21 21 21 20 20 18 14 14 14 12 13 15 17 7 10 9 11 10 7 9 8 8 8 7 9 8 7 4 7 14 22 12 15 11 15 8 4 7 20 27
18 19 20 21 21 21 20 20 19 19 15 12 11 11 10 11 13 3 3 7 14 12 9 9 9 9 9 8 10 10 8 5 6 11 9 15 15 13 18 10 12 13 19 26 26
18 19 20 20 20 20 20 18 17 16 12 10 9 9 8 7 1 1 2 8 13 13 11 12 11 10 8 9 13 8 12 4 2 12 9 7 7 7 14 5 5 8 22 26 25
19 19 19 20 19 19 18 17 14 13 9 8 7 7 7 7 10 3 7 4 13 14 13 12 13 11 11 11 9 14 5 5 7 12 15 7 11 9 7 6 10 19 24 22 22
19 18 18 18 19 18 17 15 12 10 7 7 7 7 5 9 7 5 3 4 8 16 14 13 6 10 3 6 12 5 3 6 4 13 12 11 7 12 4 10 14 22 22 20 22
18 18 17 17 17 17 15 13 10 8 6 7 7 6 9 15 4 6 8 8 6 11 12 13 12 7 3 4 3 9 11 10 7 12 5 11 11 6 5 13 17 18 18 17 18
17 17 17 16 15 15 13 10 8 7 7 7 6 6 8 4 8 9 9 5 4 9 11 5 11 10 6 1 4 4 9 8 6 8 5 11 11 6 8 14 17 18 18 17 18
17 16 15 15 14 13 11 8 7 6 8 6 5 4 8 6 8 5 3 3 1 6 8 3 9 6 5 9 8 7 8 9 9 2 7 7 9 3 11 14 15 17 18 18 17
17 15 14 14 13 11 10 5 4 6 8 5 6 4 7 4 5 4 2 2 2 9 6 4 5 5 6 10 10 8 6 11 12 7 13 9 8 7 10 15 16 17 16 17 17
16 15 13 13 11 11 9 5 3 5 12 9 2 5 4 5 7 4 3 6 4 7 4 7 6 9 14 3 4 3 4 10 8 5 7 4 7 5 8 14 16 16 16 15 15
17 15 13 13 11 12 13 8 6 1 6 20 14 13 15 9 4 7 4 4 3 6 3 6 6 4 5 4 4 5 8 6 5 4 5 8 6 4 6 11 13 14 14 15 13
17 15 14 13 12 16 18 22 5 4 5 6 12 10 5 7 6 8 4 4 10 9 2 5 5 5 6 7 7 4 3 7 5 7 2 9 8 8 4 7 9 10 11 12 12
18 16 16 13 12 16 20 17 5 3 4 7 7 6 7 6 5 4 5 3 1 2 3 3 3 4 7 6 5 6 3 6 10 10 7 8 8 11 8 8 9 11 12 12 13
20 18 17 15 9 17 10 14 6 5 5 11 7 6 7 8 5 4 6 4 6 8 5 4 6 7 5 3 2 4 4 4 4 6 5 9 7 8 8 10 11 12 14 15 16
21 19 18 21 19 18 10 8 9 4 5 8 9 9 10 5 4 5 3 4 5 3 2 5 3 1 3 6 1 10 7 6 3 3 7 4 7 9 5 4 11 14 18 20 19
23 22 23 24 16 16 12 10 5 7 4 8 11 12 11 7 5 7 8 8 7 9 9 6 4 4 4 8 6 6 6 3 3 4 6 2 6 11 3 3 9 19 23 21 18
23 23 25 29 19 18 15 8 8 8 9 2 8 15 12 9 5 4 8 9 4 8 10 9 6 5 2 3 1 3 4 3 4 3 1 3 5 2 1 1 7 19 22 21 19
24 24 28 33 26 15 12 11 8 6 9 10 10 15 8 8 5 7 6 8 4 4 7 7 4 5 3 2 3 5 4 3 2 1 3 4 4 8 3 5 11 19 22 22 22
26 25 29 30 25 8 8 11 9 3 5 11 13 13 14 13 10 10 9 4 4 2 3 4 4 2 4 2 7 4 9 3 3 3 4 4 5 2 6 9 12 18 22 23 22
20 12 19 29 24 14 10 12 7 8 7 11 13 9 11 9 9 11 10 4 3 4 1 5 3 5 3 7 6 4 4 0 1 2 2 3 1 3 2 5 13 19 23 24 22
19 9 21 28 14 14 12 9 5 8 6 6 7 7 12 11 7 8 10 2 5 5 5 2 1 4 6 3 1 3 6 9 4 4 1 2 3 3 1 3 9 16 20 22 20
21 11 23 31 12 10 7 5 5 6 9 9 7 6 5 9 6 5 6 2 3 5 7 7 3 4 5 5 5 7 9 5 4 1 6 3 2 3 4 5 9 12 16 19 20
21 7 8 14 11 16 13 12 8 3 5 5 5 4 7 6 1 7 8 2 3 2 3 4 3 7 10 2 0 6 11 12 11 4 5 9 10 7 8 8 9 14 17 21 22
19 8 15 12 11 13 15 15 11 7 4 7 4 8 8 5 6 6 6 6 3 6 3 3 6 4 2 0 3 5 8 13 16 14 8 12 11 11 7 9 11 13 17 19 21
16 8 10 22 17 13 11 11 15 6 5 7 8 10 7 5 7 10 10 7 5 7 5 2 3 3 3 3 3 7 10 11 15 16 15 19 20 16 11 9 11 15 18 21 22
21 17 23 8 10 11 11 11 14 11 3 3 12 8 6 4 5 9 8 9 6 7 6 4 6 4 2 2 3 6 16 18 13 13 15 14 16 3 7 11 13 15 18 20 22

GFSSW_850_spd_039.txt.gz
Wind_Speed
18 17 17 18 19 20 22 22 22 22 22 22 20 18 16 14 15 17 19 14 9 11 8 6 9 12 12 14 13 14 11 14 7 14 11 18 10 6 4 7 5 4 3 8 16
17 17 18 18 18 19 21 22 22 21 20 20 18 16 13 13 18 19 15 10 12 9 12 11 11 12 17 14 14 13 12 16 15 8 2 16 5 11 10 12 6 2 5 16 18
17 17 18 19 18 18 20 21 21 20 19 17 15 12 10 11 14 3 4 6 11 10 13 9 9 12 17 12 15 15 15 4 3 13 34 3 11 13 14 14 20 18 14 17 18
18 18 18 19 18 18 19 19 20 18 17 15 12 9 7 5 4 6 5 5 10 14 11 10 11 13 13 12 16 15 17 5 7 5 14 13 14 8 9 25 9 11 17 21 19
18 18 18 18 18 18 18 19 18 18 16 12 10 8 6 7 13 5 5 2 11 13 12 11 12 12 11 12 13 15 4 3 1 8 9 11 7 5 2 7 4 16 20 20 18
18 18 18 17 17 17 17 18 16 15 14 10 9 7 5 12 5 5 4 1 9 14 12 11 10 11 11 6 11 12 14 3 6 11 18 8 4 4 8 7 12 19 20 19 20
18 18 17 17 17 17 16 17 14 13 12 9 8 5 9 18 3 5 6 2 8 13 13 11 12 7 5 8 4 4 7 9 7 12 7 12 3 17 5 11 16 19 20 20 22
18 18 17 16 16 15 15 15 11 11 10 7 6 4 9 6 10 12 9 9 10 11 13 6 10 12 12 5 6 8 6 12 7 13 7 15 12 7 11 13 17 19 19 20 21
18 17 16 15 15 14 13 12 9 10 7 4 4 4 8 7 11 7 9 6 5 9 9 5 7 11 8 9 8 10 8 11 11 13 11 12 15 11 15 14 18 19 20 21 20
19 17 16 15 14 13 10 8 6 7 5 4 7 8 10 9 8 6 5 7 4 9 8 7 8 8 9 10 10 13 14 14 11 11 10 10 9 10 17 16 16 17 18 18 20
19 17 16 15 13 11 7 2 3 5 12 13 2 13 1 3 9 9 8 8 6 11 12 13 7 12 15 15 9 4 7 11 14 11 13 12 10 13 16 16 18 18 19 20 20
19 17 16 14 13 10 11 9 5 4 8 20 20 15 16 7 7 11 8 10 8 13 6 7 9 7 10 3 7 6 6 7 10 11 9 10 12 12 15 19 19 19 20 21 20
19 18 16 14 12 14 16 15 4 6 7 12 19 17 13 10 13 17 10 10 16 17 9 1 6 5 6 7 6 7 2 8 7 11 14 9 14 15 12 14 14 19 20 20 21
20 19 17 11 10 10 15 14 13 6 5 12 13 10 12 8 11 12 10 8 9 13 10 20 18 6 8 6 6 10 2 1 4 12 13 17 13 19 18 16 15 17 17 19 18
21 21 17 13 4 9 1 9 7 2 5 15 17 7 10 14 4 16 10 10 12 15 10 3 9 9 8 4 5 8 3 4 6 12 7 13 8 18 15 15 15 17 19 19 19
23 23 18 19 21 11 6 8 6 5 9 9 14 13 14 15 9 14 16 11 4 4 12 2 8 3 5 3 4 4 4 6 7 10 8 15 13 5 12 14 17 14 16 18 18
25 24 24 19 9 11 9 12 6 8 6 12 18 18 17 10 11 11 16 15 12 11 12 12 10 4 5 6 3 8 9 8 5 4 8 4 5 12 7 4 5 14 18 19 20
26 25 24 25 14 8 12 10 11 13 15 7 16 16 16 13 12 12 15 16 19 14 10 12 8 12 7 9 5 9 11 5 6 7 7 8 7 3 9 2 4 14 18 20 20
27 24 25 30 23 14 18 14 11 10 14 9 12 16 16 14 8 13 15 17 14 15 6 15 5 7 2 3 5 6 7 5 4 1 5 10 9 9 5 6 7 15 19 21 21
25 20 27 26 29 13 12 19 19 10 8 12 16 17 17 14 12 14 14 15 9 5 8 4 3 4 5 5 6 8 3 3 4 3 7 4 6 5 7 7 8 14 19 21 21
24 12 18 25 28 12 13 20 18 11 12 12 17 15 15 14 16 15 13 7 8 10 8 7 9 7 5 10 11 7 8 6 4 3 4 4 2 8 3 6 9 13 18 20 22
29 11 25 34 15 14 16 22 25 12 13 10 8 13 14 14 12 12 16 12 13 8 11 4 4 7 10 5 5 10 8 9 5 6 4 4 5 4 5 3 7 12 17 20 22
31 15 27 30 14 14 21 21 23 15 13 13 12 12 12 11 11 12 11 6 5 7 6 6 7 9 7 6 7 8 9 8 8 2 9 4 3 6 7 4 5 9 14 19 23
28 10 12 23 31 20 24 21 19 15 13 17 15 13 10 12 11 10 9 4 5 5 1 1 11 9 10 9 5 12 12 11 12 8 10 12 13 6 9 7 8 10 13 18 22
27 15 19 16 22 14 23 18 22 13 11 15 12 15 14 11 14 8 10 7 6 5 5 4 10 12 14 5 7 9 9 10 16 17 15 12 15 12 9 6 10 10 13 16 18
14 24 32 31 30 19 21 23 24 19 16 16 15 17 15 10 11 11 12 10 8 9 8 5 6 3 6 9 9 12 14 14 15 16 17 19 18 16 12 11 8 13 12 15 18
26 27 35 29 24 17 17 22 24 15 4 10 18 16 12 3 7 9 6 3 4 8 11 6 4 4 5 3 5 6 15 18 18 17 14 16 16 11 8 7 11 12 10 13 15

GFSSW_850_spd_042.txt.gz
Wind_Speed
17 17 17 17 18 19 21 22 22 23 24 25 24 22 20 18 16 16 19 9 8 9 12 6 10 11 13 17 18 20 12 14 19 10 5 25 19 34 7 8 7 8 13 20 19
17 17 17 18 18 19 20 21 23 22 23 23 22 19 18 18 19 19 13 9 9 12 10 10 11 11 15 19 20 13 12 20 3 11 6 9 16 41 4 4 10 14 21 22 20
16 17 18 18 18 19 20 21 22 22 22 22 19 17 15 16 15 2 4 4 7 12 11 13 12 12 14 19 18 17 15 16 3 18 19 13 27 39 4 8 11 8 22 22 21
16 17 17 18 18 19 20 21 22 21 20 19 16 14 13 11 1 6 7 4 4 8 11 11 12 14 14 16 16 14 18 21 4 15 17 14 19 11 11 3 17 7 20 23 20
17 16 17 17 17 18 20 21 21 20 18 16 14 13 10 7 14 5 6 3 5 9 10 11 10 12 13 14 13 14 17 8 7 5 8 11 8 8 14 9 25 23 22 22 17
18 17 17 16 17 18 19 20 21 19 17 14 11 12 9 12 3 4 5 3 6 11 9 11 9 10 14 17 12 10 16 4 3 4 3 9 7 13 6 6 26 20 21 19 18
18 17 17 16 17 17 18 19 19 17 14 12 9 10 10 22 5 1 6 3 7 10 11 9 10 9 7 11 13 5 7 4 2 3 3 13 9 2 6 11 13 16 18 17 18
18 17 16 15 16 17 17 17 17 14 11 9 7 7 10 6 9 11 10 10 10 12 13 10 6 11 12 15 8 8 6 5 6 12 11 13 9 8 7 15 17 19 19 19 19
18 17 16 15 15 16 16 16 14 12 10 6 3 5 11 5 12 12 11 12 6 8 9 8 7 12 12 10 9 1 6 9 15 14 6 11 14 14 13 15 19 20 21 21 22
18 17 15 15 15 14 14 13 12 10 8 6 7 9 14 10 10 10 9 8 7 8 7 8 8 7 9 8 5 8 14 16 12 13 11 16 14 14 18 19 19 20 20 22 23
18 17 15 15 14 13 11 7 8 3 12 12 9 12 5 2 5 10 11 9 10 10 11 13 6 8 6 5 13 11 15 15 11 13 8 8 10 12 18 16 21 20 21 20 21
19 16 15 15 14 13 11 7 2 8 11 20 21 20 16 8 9 15 14 12 11 9 12 10 5 6 14 17 19 16 1 10 13 9 10 13 11 14 14 17 19 20 23 23 23
20 16 14 14 14 16 16 18 9 15 8 17 25 23 17 13 16 17 13 16 13 4 9 15 3 13 12 16 12 8 12 7 9 7 11 11 13 15 15 18 21 25 26 28 28
21 17 15 11 10 11 14 7 10 7 5 10 18 16 17 11 16 23 22 18 5 10 9 4 11 16 17 11 5 2 11 8 16 15 7 9 9 17 13 13 16 23 24 25 26
22 19 17 12 7 8 7 2 5 3 4 11 17 9 16 18 8 20 8 15 6 12 4 4 14 18 20 7 5 3 9 16 16 6 4 7 6 12 12 18 16 13 16 19 24
22 21 17 19 20 12 2 7 5 5 7 6 13 13 18 17 20 10 18 15 11 1 6 10 18 21 2 2 2 13 10 15 9 9 7 16 11 14 13 11 19 13 19 19 17
24 23 22 17 10 9 8 6 5 7 10 11 18 16 17 15 16 12 15 17 12 8 8 8 16 4 5 6 6 8 10 3 7 7 4 9 5 5 19 19 17 20 18 18 19
24 24 24 25 13 3 10 6 11 11 21 3 15 15 20 17 15 14 13 16 18 18 9 11 9 13 8 7 4 15 7 3 2 5 7 5 5 5 12 11 8 16 15 16 16
26 26 26 28 22 10 16 11 11 13 21 8 13 14 18 18 10 14 15 16 18 18 11 6 3 13 10 3 10 9 4 4 7 3 2 6 17 7 8 8 8 14 17 18 19
32 22 26 27 25 14 10 18 15 25 12 12 15 15 17 18 14 11 14 13 17 18 13 6 3 14 16 6 4 5 6 4 2 2 4 8 10 9 6 8 6 11 16 18 19
31 14 16 27 27 16 15 18 22 26 21 10 14 15 19 14 15 13 10 12 18 9 7 7 11 8 6 8 8 6 7 5 6 4 1 4 3 7 6 8 6 9 17 20 21
22 8 24 38 16 18 15 22 29 19 18 12 10 16 15 14 13 14 14 13 9 9 9 13 5 4 12 3 5 9 11 9 3 5 2 1 6 4 5 6 6 9 15 20 23
17 18 33 36 12 14 19 25 28 23 18 14 15 13 12 13 10 14 10 7 9 8 3 4 4 5 9 6 8 8 12 9 8 2 4 3 3 5 4 2 5 5 12 17 20
15 9 13 31 27 21 23 22 26 32 20 16 15 15 12 14 9 9 9 3 4 1 3 4 5 9 6 11 5 6 11 11 10 3 4 9 14 9 10 10 8 11 7 10 18
16 11 13 12 20 19 21 21 25 23 23 21 16 17 12 8 11 11 11 7 4 3 2 3 8 12 14 14 7 9 12 8 11 10 10 11 15 12 11 7 7 4 9 10 13
17 11 26 10 27 21 20 27 27 24 20 20 16 18 13 11 12 10 11 8 7 7 8 5 6 4 8 9 13 11 15 15 15 15 14 14 14 11 11 9 11 9 9 10 9
33 27 26 21 21 19 21 25 25 19 22 24 18 14 16 7 7 12 3 16 8 10 9 7 3 2 2 6 7 5 10 16 16 15 13 11 10 8 12 8 6 4 8 6 7

GFSSW_850_spd_045.txt.gz
Wind_Speed
15 15 16 16 17 17 19 20 21 23 24 26 25 23 22 21 19 19 19 7 6 6 8 6 6 5 7 17 16 20 1 11 10 0 4 7 3 2 6 26 9 7 17 27 28
15 15 15 15 16 17 18 20 21 23 24 24 23 21 20 21 21 16 6 3 6 10 9 7 7 9 12 15 13 2 4 7 3 6 6 7 18 20 12 20 4 20 18 22 27
15 14 15 16 16 16 18 19 20 22 24 23 21 18 17 18 17 4 8 5 3 7 10 10 14 20 15 18 21 14 10 9 5 8 10 11 4 8 5 1 9 12 7 15 29
16 16 15 15 16 17 17 18 20 21 22 21 18 15 14 12 1 3 9 6 2 5 8 7 10 11 6 7 24 6 17 20 10 10 10 9 3 3 7 5 16 21 14 12 27
16 16 16 15 16 16 17 18 19 21 21 18 16 13 11 8 12 2 6 6 2 5 7 8 15 15 7 6 14 7 8 11 15 17 11 23 16 2 5 5 12 17 13 16 16
16 16 16 15 16 16 17 18 18 20 19 16 13 11 8 7 1 9 8 5 4 5 5 10 14 14 13 10 6 11 17 3 6 10 12 18 8 16 13 14 18 26 15 20 18
17 16 16 15 16 16 16 17 18 18 16 14 11 10 12 20 6 4 6 4 4 3 4 12 16 14 14 9 21 14 6 5 4 6 5 17 5 5 10 21 20 21 21 19 22
18 16 16 15 15 15 15 16 17 17 14 11 9 9 11 5 10 11 8 10 10 12 12 14 15 8 8 14 10 7 3 2 2 10 7 9 5 8 26 28 25 24 23 22 27
19 16 16 15 15 15 15 15 16 15 12 9 5 6 13 3 14 14 11 13 16 13 10 12 7 5 10 3 5 4 3 3 2 2 8 5 5 16 22 30 27 25 22 24 29
19 16 15 15 14 14 14 14 15 14 11 10 8 8 12 8 7 10 12 10 10 4 4 5 4 2 3 2 3 1 3 3 6 7 12 6 7 6 23 28 28 30 27 25 28
21 17 16 15 13 14 13 11 8 3 7 11 7 12 16 14 5 11 9 14 7 8 2 7 4 5 8 6 4 5 6 8 9 8 6 9 9 11 20 23 23 30 31 28 28
21 19 16 15 13 13 12 8 6 9 12 19 25 30 26 16 8 10 13 10 11 5 1 6 7 8 7 8 7 6 11 10 13 5 4 7 8 11 12 17 28 29 31 31 29
21 19 15 14 12 13 14 16 10 9 6 15 23 22 21 11 13 16 17 19 6 4 8 6 11 17 3 9 13 3 6 2 2 5 5 3 5 6 7 13 26 32 31 31 31
23 19 15 12 9 7 6 9 6 3 3 6 9 13 17 14 11 20 18 16 5 10 13 6 7 10 8 13 6 4 5 5 3 5 2 2 3 1 5 10 12 24 33 34 33
24 18 17 11 8 10 4 2 4 4 4 5 12 7 15 17 4 13 19 17 6 6 5 6 1 2 5 6 6 6 7 10 8 7 10 4 5 6 2 5 6 5 29 37 40
24 21 19 17 21 7 2 5 11 1 7 4 11 8 9 18 15 7 17 8 1 2 3 6 8 1 2 8 11 3 2 4 4 1 1 5 5 4 6 8 5 5 19 20 37
27 24 23 19 18 6 5 4 1 4 7 7 12 11 10 6 9 9 6 6 5 4 3 4 5 10 12 6 3 7 3 3 5 6 5 8 3 8 11 12 8 18 36 17 20
27 26 25 25 17 9 8 1 9 12 11 2 10 9 11 7 10 11 5 6 8 7 3 5 1 5 3 3 4 3 3 4 4 2 6 7 6 5 14 13 26 28 30 22 17
27 24 29 28 22 10 6 9 6 7 7 4 14 11 9 12 7 9 7 6 11 12 7 5 3 8 10 11 3 2 4 4 6 2 2 4 4 5 7 4 7 17 20 21 21
29 26 32 28 26 16 6 14 6 15 11 7 7 8 8 12 10 9 8 8 6 13 8 2 5 2 3 9 8 7 7 1 3 3 3 4 3 3 6 3 8 9 19 20 19
26 13 20 28 26 16 14 12 14 30 19 6 5 7 8 8 9 6 6 6 9 4 11 6 4 2 11 4 8 1 3 2 3 5 4 1 4 1 7 8 9 14 26 25 24
26 9 22 34 13 9 15 10 10 22 21 13 6 3 7 9 7 8 7 9 15 13 9 8 4 4 9 18 15 6 6 6 5 4 3 5 5 2 7 9 15 17 29 30 29
17 16 29 41 11 13 9 15 26 15 18 6 6 3 2 5 6 6 6 5 2 5 6 3 2 4 1 9 8 4 6 4 3 4 4 5 5 2 5 5 10 12 19 29 30
16 7 15 34 27 20 17 15 23 20 21 25 13 7 5 5 4 7 3 2 6 6 6 5 0 5 6 6 3 3 4 5 4 4 4 5 5 10 7 8 10 13 8 23 31
15 12 18 12 21 14 18 14 20 18 22 18 11 9 7 5 4 5 5 3 4 3 3 4 3 1 4 5 5 2 1 4 6 6 6 9 8 9 5 5 5 17 11 6 8
12 12 22 3 24 17 19 21 26 21 15 20 16 9 9 6 7 6 8 5 5 1 5 2 2 3 1 5 7 4 7 6 7 6 3 2 4 5 5 11 13 13 11 11 11
25 26 30 11 17 16 22 23 24 16 17 29 12 6 8 8 8 4 14 18 12 9 7 6 4 3 2 4 6 6 7 6 6 4 3 2 4 8 10 11 13 14 17 11 10

GFSSW_850_spd_048.txt.gz
Wind_Speed
13 13 14 15 16 16 16 18 19 20 22 24 24 24 23 23 19 15 12 7 4 5 7 6 6 5 4 4 9 8 2 3 3 2 2 5 3 7 8 7 6 7 12 20 25
13 13 13 14 15 15 16 17 19 20 21 23 23 23 22 21 18 4 5 4 3 7 6 5 6 5 5 4 2 4 3 5 7 3 5 11 6 4 2 7 2 21 27 29 29
14 14 14 14 15 15 16 17 18 19 21 22 22 21 19 17 10 3 7 3 3 4 4 7 6 8 7 12 10 4 4 6 8 12 7 12 5 5 11 2 5 23 33 29 26
14 14 14 14 15 15 16 16 17 18 20 21 20 19 16 12 2 1 5 6 3 3 4 5 3 2 3 5 3 3 12 14 10 13 9 8 9 9 7 9 20 28 27 25 26
16 15 15 15 14 14 15 15 17 17 19 19 18 17 14 9 8 5 4 4 1 1 4 7 5 4 3 5 8 4 7 8 10 21 12 12 3 6 7 17 27 26 25 21 27
18 16 15 15 14 14 14 15 16 17 17 18 16 15 12 6 1 6 3 4 2 2 6 9 5 7 12 4 3 14 16 9 18 21 13 9 3 4 9 23 29 27 28 23 31
20 18 16 16 15 14 14 15 16 16 16 16 15 14 16 18 3 5 6 4 3 2 2 4 9 10 9 7 11 12 2 5 10 17 7 21 1 1 13 23 26 21 23 28 34
22 20 16 16 15 14 14 15 15 16 15 14 13 14 12 4 11 13 11 9 9 11 5 7 12 12 4 10 10 6 4 2 5 9 10 4 4 5 12 16 20 18 20 30 32
25 20 16 16 15 15 14 15 16 16 15 12 10 9 13 7 13 15 14 12 10 15 13 10 7 7 7 3 5 5 2 4 1 6 5 5 3 6 16 17 18 20 24 26 34
25 23 17 16 15 15 14 15 15 15 13 11 11 9 8 0 10 10 21 17 11 5 9 1 3 3 5 4 3 4 1 3 2 3 4 6 5 6 25 26 27 27 26 31 34
26 23 18 15 14 14 13 11 8 3 6 10 5 15 17 10 6 11 13 13 13 6 3 2 4 3 7 7 7 9 1 4 6 6 5 11 6 6 23 22 23 31 27 31 39
26 25 19 15 14 13 12 9 1 3 12 20 22 27 28 22 10 8 8 11 8 4 2 4 3 5 7 4 3 3 2 9 9 8 9 6 9 6 17 22 30 30 31 39 35
25 22 18 15 13 11 10 10 11 14 6 17 22 20 24 12 11 15 5 15 5 5 5 5 6 4 1 5 7 4 3 5 6 4 4 5 3 4 5 12 24 31 41 41 44
23 20 20 15 12 9 1 10 1 8 2 7 6 8 14 11 6 20 17 6 4 8 7 4 2 2 5 2 2 7 7 7 1 4 1 3 3 3 7 8 12 25 29 38 41
23 22 20 16 9 12 4 4 7 3 3 4 6 4 14 13 1 10 19 11 5 7 6 9 3 3 4 6 4 9 4 6 1 3 3 1 2 7 4 7 9 22 32 42 45
25 22 21 21 21 11 5 3 9 3 7 3 9 8 7 11 3 4 10 15 5 6 0 5 4 4 4 1 3 8 2 7 7 4 1 5 5 6 5 11 12 20 28 29 35
26 24 27 22 19 13 7 9 3 5 5 5 6 7 6 7 4 5 3 5 6 4 1 2 3 2 1 8 8 2 4 3 3 3 6 2 3 8 6 7 8 15 22 26 37
26 27 27 28 16 14 11 2 9 7 7 4 6 9 9 7 7 6 5 5 3 5 3 4 1 1 2 3 4 4 4 5 4 3 4 5 4 6 7 5 5 15 17 18 15
25 30 27 32 22 14 8 9 8 6 5 4 4 6 5 8 5 6 8 9 9 7 7 4 3 3 4 4 3 1 2 5 5 2 3 4 4 6 5 4 7 5 12 13 18
27 27 31 33 26 17 6 15 6 9 6 4 6 7 10 10 7 7 6 6 5 10 9 7 2 1 4 3 2 6 4 2 3 2 3 3 3 4 3 3 1 3 8 13 22
26 13 24 34 24 12 12 12 12 31 9 4 2 2 8 8 9 7 6 5 9 6 10 5 5 4 4 7 8 3 3 2 4 4 4 1 5 6 7 8 10 10 16 21 24
25 7 26 40 11 8 14 13 19 22 15 5 5 7 6 9 9 9 11 9 7 12 10 7 5 4 8 3 6 6 5 4 5 4 1 4 5 4 9 9 14 19 22 25 25
20 14 30 41 11 12 9 22 22 10 5 6 5 4 4 6 5 7 8 4 2 8 10 7 1 2 6 6 4 3 6 6 4 4 6 5 5 2 3 5 16 21 26 30 31
17 8 13 32 28 19 16 13 19 26 19 15 7 7 4 3 5 7 5 1 2 4 15 13 5 7 7 7 3 3 6 5 6 3 4 6 6 6 9 8 12 19 21 31 34
16 10 17 13 22 16 17 13 16 15 19 10 8 16 8 5 4 5 2 4 2 7 2 5 6 5 5 4 3 1 1 2 3 4 5 7 7 8 4 5 5 15 3 5 28
13 9 24 5 27 23 16 24 26 23 8 16 11 9 5 9 7 7 7 4 6 2 4 2 3 3 3 2 3 3 2 3 4 3 4 4 2 6 8 15 18 12 16 14 9
34 20 24 18 19 18 28 21 23 23 15 29 14 13 9 10 13 13 20 17 12 9 6 6 6 3 4 3 3 5 6 6 3 2 5 5 5 4 8 11 11 17 17 15 14

GFSSW_850_spd_051.txt.gz
Wind_Speed
14 14 14 15 15 16 16 17 18 18 20 22 23 23 24 25 21 17 7 5 3 4 6 5 5 1 3 2 7 5 3 1 4 5 5 4 3 3 1 5 5 7 13 15 27
14 14 14 14 15 15 16 16 17 18 19 21 23 22 22 23 19 1 2 4 4 6 5 4 2 1 1 1 3 4 3 7 6 5 4 8 5 9 5 14 6 20 17 28 26
15 15 14 15 15 15 15 16 16 17 19 21 22 21 20 19 14 2 3 3 4 5 6 4 1 1 2 3 5 2 4 4 12 14 7 9 6 4 9 1 13 30 34 30 29
18 17 15 15 16 15 15 16 16 17 19 20 21 19 18 14 3 4 2 4 2 4 3 2 2 1 2 3 3 2 13 10 11 9 11 7 7 1 3 3 17 27 34 32 28
22 19 17 16 16 16 15 16 16 16 18 20 20 19 16 9 11 8 2 1 1 2 2 5 2 1 3 6 6 3 5 11 8 16 13 11 4 6 5 15 27 31 28 28 26
24 21 19 17 17 16 16 16 16 16 18 19 19 17 14 7 5 6 4 1 2 3 3 5 1 5 7 5 1 6 8 6 14 12 14 10 3 6 10 28 31 28 27 25 28
27 24 21 18 18 17 17 16 16 16 17 19 18 17 17 19 7 7 9 5 2 3 3 2 6 4 7 6 8 8 4 3 2 7 6 8 2 4 27 27 29 29 29 30 21
28 25 23 21 19 18 18 16 16 16 17 18 16 16 12 9 12 14 9 9 6 5 9 9 9 6 3 8 7 4 3 3 4 5 3 5 4 6 31 31 23 25 25 29 29
26 25 23 21 19 18 18 17 16 17 19 17 15 9 12 5 9 12 12 12 8 7 11 14 11 2 3 3 5 5 2 2 3 10 3 2 4 5 32 31 25 25 25 27 29
25 25 23 21 18 18 18 17 16 18 17 13 14 7 10 1 3 6 17 14 8 9 4 5 1 3 3 4 2 4 3 1 3 4 4 5 6 6 23 25 26 27 27 30 28
23 25 23 21 19 17 16 12 9 6 8 10 2 8 12 13 11 5 16 19 12 2 3 2 3 2 5 5 6 3 5 4 3 4 3 7 6 8 18 18 16 23 30 37 35
21 22 21 19 18 16 14 8 5 4 11 18 24 29 28 26 8 5 10 11 8 5 2 4 3 6 5 2 4 0 4 6 6 5 5 4 10 4 8 12 27 30 31 33 34
21 21 20 20 18 17 13 6 10 12 6 13 18 18 27 16 10 11 10 13 4 6 6 5 4 2 3 4 1 1 2 5 6 5 2 4 5 3 5 10 20 25 38 36 41
23 22 18 17 17 17 8 0 4 7 2 6 6 7 15 10 5 20 10 7 2 10 6 4 2 3 2 2 4 3 3 8 3 2 4 1 3 4 6 14 12 23 28 37 39
24 22 20 20 11 9 8 2 6 4 3 4 4 3 17 20 3 11 22 11 7 6 5 8 5 5 4 5 4 6 3 3 3 2 2 2 3 6 4 9 15 22 29 39 45
24 24 22 23 25 10 8 0 7 4 7 3 8 7 6 6 2 2 11 10 6 5 3 5 1 2 5 1 4 2 1 4 3 1 2 2 5 5 4 10 17 20 33 37 45
24 25 28 26 24 18 14 6 3 4 4 4 5 6 5 6 3 1 5 6 6 5 4 2 1 3 2 2 3 6 5 3 4 4 5 3 2 8 7 7 8 15 31 41 42
25 28 31 29 25 15 10 3 8 6 6 4 3 5 8 6 5 5 5 5 3 4 3 5 4 4 1 3 4 2 5 4 4 2 4 3 4 6 5 14 0 10 29 35 36
24 30 33 33 29 15 8 11 7 6 4 3 3 4 4 4 6 5 8 7 9 8 7 4 3 3 3 1 4 1 0 2 6 3 3 3 7 10 7 4 7 3 12 21 31
28 28 37 36 32 21 5 18 6 5 4 4 8 6 8 8 7 7 8 5 5 9 8 7 2 2 4 3 7 4 5 1 2 3 2 4 4 5 6 5 4 7 11 20 20
28 12 21 32 31 17 13 11 11 20 7 3 2 2 7 7 9 6 8 4 7 6 5 6 5 2 1 6 7 2 1 1 4 4 4 1 5 6 7 6 6 7 5 13 19
30 5 24 40 12 10 14 7 8 18 2 3 3 5 4 7 7 8 9 8 13 13 9 7 6 4 9 2 2 2 5 5 4 4 1 4 6 4 8 8 8 13 9 9 12
23 14 30 44 13 13 8 17 9 6 6 6 4 1 4 2 4 7 8 6 10 9 10 8 1 3 6 5 4 4 5 4 4 4 6 5 6 3 6 6 16 17 18 16 18
18 6 14 33 34 20 20 13 23 22 11 4 3 3 2 3 6 6 7 4 10 12 13 14 5 8 8 8 4 4 5 5 6 3 4 6 6 6 8 5 10 15 23 22 23
21 10 16 13 23 17 20 12 16 16 14 10 5 9 3 3 3 4 2 3 1 8 6 5 6 5 5 4 5 4 3 7 5 5 6 6 7 7 6 8 10 12 9 10 17
21 6 20 3 27 28 18 22 25 22 8 10 15 3 10 9 7 3 4 3 6 2 5 1 3 3 2 3 2 4 7 6 6 4 6 5 5 3 1 5 13 11 12 10 7
33 16 9 12 17 19 29 20 21 17 18 21 15 16 11 14 17 22 20 9 8 10 6 6 6 4 4 2 3 5 8 7 6 4 6 6 8 4 4 7 9 13 15 13 11

GFSSW_850_spd_054.txt.gz
Wind_Speed
15 15 15 15 15 15 16 17 17 18 19 20 20 23 24 25 22 17 5 5 3 3 6 4 2 1 1 5 4 3 4 2 4 3 5 4 1 3 1 2 3 2 8 13 19
17 16 15 16 16 16 16 16 17 17 19 20 20 22 23 24 21 2 3 4 4 2 3 4 4 3 2 2 3 4 3 6 6 4 4 5 8 5 3 3 5 6 9 18 18
20 18 17 17 17 17 16 16 17 17 18 19 20 21 22 21 15 2 1 4 4 5 4 4 4 3 1 2 5 6 6 5 7 17 11 6 3 3 7 2 10 16 26 29 21
25 22 20 19 18 18 17 17 17 18 18 19 20 21 21 17 2 3 4 5 3 5 4 5 7 4 1 2 3 2 10 10 8 4 9 9 7 6 6 4 10 20 27 27 21
26 26 24 22 20 19 19 18 18 18 19 19 19 20 19 11 11 9 5 2 3 4 4 7 5 3 2 4 4 4 5 4 8 8 9 13 5 5 4 8 17 22 21 19 19
27 27 25 24 22 20 19 19 18 18 19 20 20 19 16 7 6 7 7 3 2 4 4 6 2 2 3 5 2 4 7 5 6 8 10 7 5 3 4 17 21 20 19 15 17
30 28 26 24 22 21 19 19 19 19 19 20 19 19 19 22 7 8 11 7 3 2 2 2 5 5 4 5 3 5 4 4 1 4 4 12 3 3 15 19 21 16 17 17 19
29 28 26 23 23 22 20 19 19 19 20 20 19 18 13 13 9 14 13 10 7 5 4 5 4 6 3 7 6 3 4 2 0 2 3 3 4 2 22 25 22 19 18 21 20
25 25 24 22 21 20 21 19 20 20 21 20 18 11 13 6 7 13 15 12 8 6 8 7 9 2 2 3 4 5 2 2 4 6 2 4 1 7 26 21 20 22 24 26 25
22 23 23 22 20 20 20 20 20 20 18 15 14 7 12 4 5 7 15 13 10 6 1 3 2 3 4 4 3 1 1 4 4 5 4 3 7 6 22 22 22 26 27 25 25
22 20 22 21 17 20 18 16 11 8 9 12 4 7 6 6 8 7 15 14 10 1 2 3 3 4 8 6 4 3 2 4 5 2 4 7 7 9 19 17 17 22 27 29 28
23 19 17 16 16 18 17 11 8 7 11 19 25 31 28 25 9 8 12 11 7 5 3 4 5 8 5 4 4 3 2 3 6 3 3 2 7 7 15 21 27 29 31 34 31
25 20 14 13 15 18 17 15 13 12 7 13 22 19 25 20 12 11 17 13 4 5 6 6 4 5 3 2 1 1 1 3 3 6 1 1 3 4 6 9 19 25 36 32 33
24 21 16 13 14 17 16 7 12 9 3 6 6 7 15 13 6 17 16 13 2 10 7 5 4 3 3 4 4 2 3 1 4 2 3 3 4 4 4 12 10 23 29 34 35
23 21 18 17 8 7 7 5 3 4 3 3 4 6 13 17 10 14 17 7 9 6 6 6 4 5 4 6 6 7 4 2 2 2 3 2 2 6 1 5 11 18 29 37 39
22 21 20 21 24 12 11 4 6 1 7 3 7 7 7 6 3 7 13 11 5 5 1 5 1 3 4 0 3 4 4 5 4 3 2 4 4 5 4 7 6 14 28 39 43
23 21 25 23 24 22 18 6 2 5 4 4 5 5 5 6 4 4 7 7 6 5 3 2 2 3 2 1 4 4 5 3 4 3 5 1 1 8 6 5 7 11 29 40 45
24 22 29 29 22 16 11 3 10 6 6 4 1 5 7 5 4 5 7 7 3 5 3 6 4 5 3 4 6 2 6 5 2 2 4 3 4 5 3 10 8 11 20 34 41
25 26 29 32 26 21 13 11 6 6 4 3 2 4 5 5 6 4 7 7 8 7 7 5 4 1 1 0 3 3 2 4 6 2 2 3 6 10 3 2 5 5 6 19 30
30 27 34 32 31 24 5 17 7 5 4 3 5 5 8 7 5 8 8 5 7 10 5 7 2 0 1 1 1 2 5 3 3 1 3 4 4 5 7 7 6 5 3 6 15
29 13 15 35 33 16 13 12 15 20 4 3 3 2 5 7 8 6 9 3 8 7 5 5 4 2 1 4 6 2 0 5 5 4 3 1 5 7 6 5 5 5 5 2 9
28 7 18 40 18 12 15 7 10 17 8 4 2 4 4 6 6 7 10 9 14 12 9 6 6 5 8 1 3 4 7 6 5 4 1 3 6 5 8 6 5 10 6 6 3
18 15 18 42 14 16 9 14 6 8 5 5 3 1 2 1 3 7 7 6 16 8 9 7 1 1 7 4 1 4 5 4 5 3 6 4 6 3 6 8 9 11 12 10 9
15 6 13 33 34 19 22 17 18 14 7 2 2 3 1 3 4 1 7 4 13 12 10 10 4 7 8 8 5 4 6 6 6 4 4 6 6 8 7 6 9 11 13 16 16
18 9 13 13 24 16 21 14 20 15 16 15 2 5 0 3 4 2 1 2 2 5 5 7 8 6 5 4 5 6 5 8 7 6 7 7 8 8 6 6 10 13 10 9 13
14 7 14 1 26 23 15 23 22 19 8 12 6 5 8 6 4 4 4 1 5 4 6 3 5 4 3 2 2 3 3 8 6 3 5 4 6 6 1 0 5 6 6 11 12
25 20 19 18 17 17 26 16 16 16 24 9 19 13 7 10 11 14 17 16 8 3 6 9 7 4 5 2 5 4 8 6 5 5 6 7 10 6 3 5 4 9 12 14 14

GFSSW_850_spd_057.txt.gz
Wind_Speed
17 16 17 17 17 18 18 17 17 17 18 19 19 20 22 22 21 17 1 2 1 6 8 6 5 5 4 5 3 3 1 2 4 3 4 3 4 4 3 3 3 1 4 7 19
20 18 17 18 18 18 19 19 18 18 18 19 20 20 21 22 21 3 1 1 1 6 6 6 6 6 4 4 5 3 2 6 6 4 5 5 3 4 2 2 1 1 5 15 16
23 23 20 19 19 19 19 19 19 19 19 19 20 20 21 20 16 4 2 2 2 5 5 5 7 7 4 5 6 4 4 3 10 16 8 2 2 5 4 4 6 8 17 20 14
23 24 24 23 21 21 20 19 19 20 20 20 20 21 20 16 2 5 4 3 3 6 6 8 8 5 3 2 4 3 11 10 7 7 6 5 5 6 5 3 6 9 19 19 19
24 24 24 23 23 21 21 20 19 19 20 20 20 21 20 10 12 11 7 3 4 6 5 8 10 5 1 3 4 4 5 7 10 10 6 7 3 3 3 3 7 14 18 18 16
28 25 26 24 22 21 20 20 20 20 20 20 20 21 18 7 6 8 8 6 5 6 7 10 3 1 2 3 3 5 7 7 4 3 4 4 3 1 3 8 12 17 18 13 13
27 27 26 26 25 22 21 20 20 20 21 21 20 21 21 22 10 10 12 8 5 4 5 5 1 2 3 3 3 4 5 2 3 3 2 8 0 2 9 10 12 15 13 17 15
21 24 25 25 24 22 22 20 20 21 22 21 20 19 14 14 14 14 14 11 7 6 6 5 5 3 3 5 4 1 2 3 1 6 4 3 3 3 12 12 12 11 14 14 19
21 20 22 22 19 18 20 20 19 20 23 22 18 11 13 8 8 13 16 12 7 7 6 5 4 2 1 2 2 3 2 2 1 4 4 4 3 6 14 13 12 13 13 13 16
23 20 19 19 18 18 19 20 19 21 21 17 15 7 14 5 5 9 13 13 8 5 3 4 3 1 1 2 4 3 1 2 2 2 3 4 8 7 16 16 16 13 14 17 18
22 22 19 15 16 15 14 16 10 7 7 12 3 6 2 4 5 8 11 13 11 5 3 1 2 6 10 4 2 3 1 2 1 2 4 6 9 8 17 16 16 18 17 19 22
23 20 18 13 11 10 12 8 9 7 11 19 24 33 29 20 6 8 12 12 8 5 4 1 5 7 3 3 3 4 1 2 3 2 4 1 8 4 18 23 26 24 23 24 22
21 19 15 10 8 11 13 14 13 10 6 13 23 22 25 23 15 14 17 13 5 6 6 5 3 5 4 4 5 4 4 4 1 1 1 3 4 2 7 15 19 22 24 23 25
22 19 14 10 8 14 16 8 8 7 3 6 6 8 16 13 8 21 21 15 2 11 8 5 2 5 5 5 6 3 5 5 2 2 2 3 3 4 4 11 13 23 24 27 27
23 19 16 17 6 7 5 6 3 8 4 2 3 5 11 14 13 17 25 10 9 7 6 5 5 4 4 5 6 5 2 2 2 3 1 2 3 3 0 7 16 23 28 30 30
25 21 17 22 20 12 13 7 7 2 8 2 6 6 7 7 3 15 12 6 8 5 1 4 2 3 4 1 4 4 3 5 3 2 1 1 3 3 5 5 3 13 25 30 34
27 23 21 24 21 18 11 2 3 7 4 3 4 5 5 6 3 4 8 7 7 6 5 1 2 2 3 3 2 2 3 0 1 1 3 3 2 7 3 7 8 9 15 27 39
30 26 23 28 18 19 13 3 10 5 6 4 2 4 5 5 3 3 11 11 3 5 4 6 3 6 4 4 5 4 3 4 3 3 1 0 4 3 3 10 9 10 14 13 26
29 27 28 31 26 19 16 9 6 8 3 3 2 4 4 4 4 4 7 14 9 7 7 6 5 1 1 2 2 4 2 1 6 2 0 2 5 8 3 4 4 7 8 7 11
33 30 34 33 31 24 8 19 8 6 0 2 5 5 9 6 5 7 8 5 7 8 6 7 3 1 1 2 4 1 8 3 1 3 3 2 3 4 4 3 4 3 5 7 4
35 19 18 33 33 19 15 15 18 8 4 1 2 2 4 6 7 6 10 2 10 8 4 5 3 1 1 5 8 3 2 3 4 1 2 2 3 6 5 2 4 3 2 3 3
33 9 20 38 19 16 18 18 11 21 1 3 1 3 3 5 5 6 11 7 17 16 10 6 4 4 6 1 1 2 6 5 3 3 0 1 5 3 6 5 8 10 6 2 2
20 15 24 50 14 16 16 22 16 9 12 6 4 2 2 1 3 5 6 5 18 8 11 8 2 2 1 1 2 3 4 4 5 3 7 4 4 3 4 4 5 10 9 6 5
16 6 15 35 34 19 21 20 24 25 4 4 3 2 2 2 2 2 5 3 15 7 11 15 4 6 10 7 4 4 6 7 6 3 5 7 8 9 9 7 9 9 12 13 11
20 6 13 11 23 18 20 18 26 14 25 13 3 6 2 4 2 2 2 3 2 5 5 5 7 6 4 4 5 5 5 12 11 10 8 11 10 10 7 4 5 7 6 7 6
18 8 16 7 34 21 19 21 26 23 11 18 12 9 10 6 2 4 4 1 1 2 2 2 5 5 3 2 7 5 8 7 7 4 9 8 7 11 4 4 1 3 6 10 12
31 29 26 21 19 18 21 21 15 17 19 13 16 3 3 13 7 5 7 9 7 2 5 4 5 4 5 2 5 4 7 9 5 5 6 8 11 6 6 6 6 6 10 12 14

GFSSW_850_spd_060.txt.gz
Wind_Speed
18 18 17 16 16 15 16 17 17 17 17 17 18 20 22 22 21 20 2 3 4 9 10 9 8 7 5 5 4 5 6 6 3 4 2 3 4 3 3 5 5 1 4 3 14
19 19 20 20 18 17 16 17 17 17 18 18 18 20 22 23 22 11 6 4 4 9 11 10 9 9 6 6 6 8 6 2 4 6 8 4 8 4 9 5 5 8 6 11 19
22 20 21 22 21 20 18 17 19 19 19 19 19 20 21 21 17 3 6 3 4 8 9 8 7 9 8 6 7 5 9 4 9 12 13 15 8 6 7 4 4 4 16 23 20
24 22 21 22 22 24 22 19 18 19 20 19 20 20 20 15 5 4 7 5 5 9 8 7 8 9 8 8 5 8 11 11 10 10 10 10 4 3 5 5 8 2 15 19 15
27 27 23 23 24 23 22 21 18 19 20 20 19 20 21 9 12 13 11 7 7 10 10 9 10 7 8 4 5 11 8 6 12 12 9 4 5 1 1 3 6 12 14 13 13
21 24 27 24 23 22 23 21 19 19 19 21 20 19 16 13 9 8 9 10 9 11 9 9 5 3 5 5 8 4 12 11 5 1 2 6 4 3 4 7 10 12 11 10 10
20 20 23 26 26 24 24 22 21 19 20 20 21 20 19 21 15 11 11 11 10 10 7 9 3 5 1 6 4 11 13 4 3 4 3 4 7 5 4 9 10 11 8 7 8
23 21 20 21 23 21 20 21 20 19 20 21 21 19 13 15 13 12 14 14 12 9 8 7 5 4 5 4 8 10 6 11 7 8 4 6 3 4 8 11 11 12 10 9 12
24 23 21 18 19 21 18 18 19 19 20 22 18 9 13 13 15 13 18 14 11 9 11 6 5 6 5 10 9 10 10 6 6 7 4 9 4 7 9 11 12 13 15 13 14
21 22 22 20 16 18 17 15 17 18 20 19 15 7 17 5 5 8 18 16 6 11 7 8 8 8 8 9 8 8 8 8 4 8 8 9 10 6 11 12 13 14 15 16 17
21 20 21 19 16 13 10 7 7 6 8 12 4 6 3 3 6 10 14 17 13 12 11 10 9 10 5 5 6 4 6 5 3 3 6 9 10 6 11 13 16 18 17 18 18
21 19 17 15 13 10 7 6 6 5 12 19 24 28 27 10 4 10 15 17 16 15 8 7 12 6 3 5 7 8 9 6 3 4 5 6 11 2 9 15 16 17 18 18 18
22 20 16 12 10 12 10 9 11 8 8 11 20 20 20 21 15 15 19 21 18 17 14 13 3 2 9 9 9 8 9 3 3 2 8 10 11 6 5 11 13 18 18 20 21
24 20 17 10 11 10 9 10 9 3 5 5 8 8 16 12 11 26 22 21 9 19 14 11 10 7 9 10 10 10 7 6 6 7 7 3 3 5 7 9 14 18 21 21 22
22 22 19 19 7 9 5 9 8 6 6 7 5 5 8 21 11 21 25 18 20 13 10 11 10 11 13 13 8 6 4 6 8 8 5 7 6 6 5 8 12 18 23 23 23
26 25 21 20 20 14 12 15 10 5 9 4 7 8 8 18 8 18 19 14 20 12 10 9 4 5 5 3 8 4 7 4 4 3 7 3 6 4 5 4 2 9 20 23 25
33 25 25 19 19 17 17 10 5 9 2 7 5 8 12 12 11 17 22 21 17 18 15 14 13 5 6 8 7 10 9 6 5 5 4 4 5 8 2 3 6 8 8 13 23
36 26 29 25 19 18 15 4 14 7 11 1 3 7 9 16 9 20 21 21 22 19 15 15 14 14 11 11 8 15 11 4 5 4 4 4 5 3 2 6 8 7 8 9 14
35 32 32 29 27 19 18 13 11 13 7 6 6 6 7 14 7 16 21 23 22 21 11 16 13 5 8 4 7 7 8 1 2 1 2 4 4 11 2 4 3 3 2 2 5
37 33 36 29 31 24 12 23 16 9 6 7 10 10 11 12 10 15 20 20 24 21 17 8 11 5 7 6 4 6 10 5 4 4 5 4 4 4 2 4 3 3 5 6 2
33 16 22 31 30 20 16 20 24 17 9 5 10 5 6 12 17 17 16 6 23 20 18 11 7 6 6 11 12 6 6 2 1 3 3 3 4 0 2 1 1 1 3 3 3
33 8 25 38 17 10 19 31 16 22 13 6 3 4 5 8 14 17 17 17 26 24 22 16 8 8 13 4 3 6 9 11 5 5 3 3 6 8 8 6 6 6 5 5 3
24 9 27 44 14 15 22 28 29 18 22 8 7 5 2 4 7 17 11 11 15 22 21 14 10 9 9 6 5 8 10 11 6 2 11 6 4 6 5 6 8 8 4 4 5
20 6 14 36 42 28 20 23 30 32 17 21 5 7 3 3 6 5 8 3 13 23 17 23 13 19 13 12 9 12 14 15 13 7 10 11 15 12 13 12 10 9 6 5 6
22 10 18 16 21 27 28 21 30 20 30 18 17 11 11 4 2 4 3 5 6 4 8 13 18 16 15 13 13 16 15 15 17 17 15 12 12 10 12 11 7 4 3 3 2
12 20 29 19 38 33 26 25 30 31 23 23 15 19 10 3 2 4 2 2 2 4 7 6 11 12 16 14 13 16 16 17 17 17 12 16 14 12 13 6 7 4 4 4 5
26 25 30 18 25 22 23 27 26 28 25 30 19 9 12 15 10 9 6 7 4 2 6 6 8 7 12 6 6 7 15 16 15 14 15 15 14 11 9 10 9 6 6 8 10

GFSSW_850_spd_063.txt.gz
Wind_Speed
17 19 19 16 18 19 18 17 17 18 19 19 19 20 21 23 21 18 11 10 7 9 8 8 8 10 9 12 10 10 11 12 4 6 4 9 1 7 1 13 6 5 11 2 7
23 21 20 21 18 18 21 19 18 19 19 20 20 20 22 23 23 19 13 11 7 10 10 10 10 10 13 11 9 12 12 8 8 9 8 12 9 5 7 18 15 7 2 4 12
26 24 23 23 22 23 23 26 21 20 20 21 21 21 20 21 18 1 7 7 7 10 9 10 9 12 15 12 13 13 13 8 5 6 12 13 7 9 14 4 20 3 11 10 12
24 26 27 25 24 23 22 23 22 21 21 21 21 22 20 14 6 3 7 7 6 10 9 10 12 14 14 12 12 9 14 12 10 8 11 13 12 8 12 15 6 9 13 13 11
21 22 26 28 27 25 24 24 24 20 20 22 22 21 20 9 16 15 14 11 10 11 12 12 14 15 14 9 8 11 13 11 11 14 12 10 12 7 2 7 12 13 12 11 8
22 21 20 22 26 26 25 24 24 22 20 21 22 22 13 15 9 14 9 15 12 13 12 13 13 12 11 10 11 8 10 16 14 15 9 11 11 8 10 11 14 15 12 10 9
21 22 21 21 21 23 25 25 24 23 22 21 20 21 17 27 10 11 10 11 12 14 12 13 11 11 5 10 14 12 14 18 13 14 13 10 15 22 13 12 15 15 14 10 8
21 20 21 21 21 20 20 21 21 19 20 19 19 16 16 14 11 16 13 13 12 13 12 11 11 12 11 12 12 15 16 17 8 10 9 9 3 25 11 14 14 13 13 12 10
21 22 22 21 20 19 20 19 18 18 18 17 14 7 19 13 19 19 17 18 14 12 11 9 11 16 12 12 14 15 16 8 12 12 6 11 8 24 12 10 13 13 13 13 13
22 21 20 20 19 19 17 14 13 15 16 13 11 8 21 11 8 12 19 20 18 13 13 13 13 13 13 13 13 11 14 14 8 8 8 13 16 13 6 10 12 13 13 14 15
22 21 20 19 17 15 13 10 8 6 17 13 6 16 5 8 8 11 19 22 18 18 17 21 13 15 17 11 12 11 11 9 8 5 7 8 19 9 13 9 11 13 15 14 16
23 22 19 18 15 12 10 5 7 7 13 22 29 29 25 6 6 16 21 23 21 20 20 13 16 17 5 4 7 11 13 12 3 3 6 6 18 5 8 10 13 15 15 17 18
24 20 20 17 16 16 14 12 7 7 10 19 28 33 32 24 20 20 26 30 22 21 20 17 13 10 6 10 9 11 14 2 2 17 13 14 17 9 8 13 14 13 14 16 20
25 20 19 17 15 13 16 10 9 5 7 12 9 11 26 24 16 27 27 30 15 22 21 19 12 8 12 13 10 13 11 8 10 10 8 15 3 18 13 13 13 17 19 22 22
29 21 19 19 7 11 1 12 9 2 7 6 10 5 11 24 9 28 28 30 24 20 16 17 17 13 14 13 11 14 5 7 11 12 15 14 7 10 12 10 14 17 23 23 24
28 27 21 21 20 16 6 8 12 7 15 8 9 10 13 25 21 7 37 31 26 19 19 20 15 16 19 15 7 6 7 10 11 11 11 7 12 6 10 11 7 17 21 24 23
26 31 25 19 19 15 10 13 7 13 3 13 8 11 15 13 20 15 29 26 22 21 22 20 14 14 8 10 9 11 13 9 8 3 8 10 6 7 13 4 1 2 9 20 23
27 27 30 25 22 15 20 8 16 16 30 5 4 11 13 12 17 20 22 24 25 27 14 18 20 21 14 16 12 16 16 7 8 6 2 6 6 4 7 3 1 4 6 8 13
26 25 34 30 26 25 13 14 22 27 13 28 7 12 12 12 11 20 25 26 27 25 18 18 21 22 15 14 14 12 15 9 7 2 3 6 7 6 6 4 3 1 4 5 6
31 26 38 30 30 24 7 22 24 24 25 17 22 14 12 15 12 16 22 25 26 28 23 10 15 11 14 8 11 8 10 8 7 4 8 6 7 5 7 4 6 5 5 5 4
33 17 27 29 31 16 9 24 33 27 14 17 18 20 13 13 18 18 17 11 28 28 22 12 14 13 12 16 15 12 10 9 4 7 5 5 4 4 3 6 4 1 2 3 4
35 10 21 37 17 19 19 26 38 35 22 15 11 19 11 13 17 9 22 22 19 21 25 21 12 12 17 16 20 13 18 17 9 11 7 8 11 4 6 8 6 8 4 3 2
20 13 22 46 14 17 31 33 29 30 26 20 14 11 12 9 10 18 9 11 9 24 24 19 11 13 16 10 9 12 13 13 14 11 11 8 7 2 3 3 7 9 8 7 8
17 7 16 42 43 31 31 27 30 38 29 23 16 8 9 10 10 6 16 8 7 15 25 24 15 17 15 16 15 18 17 18 16 9 12 14 16 10 9 15 11 13 8 9 9
23 9 16 14 26 30 29 27 33 32 37 27 21 18 12 8 10 11 10 6 6 9 8 19 21 19 20 17 13 16 20 20 20 19 18 15 17 13 6 9 9 6 4 7 7
17 19 27 13 34 32 27 32 34 31 30 30 22 22 17 10 7 9 6 7 8 11 14 19 16 21 19 19 18 13 16 18 19 18 17 19 19 13 9 13 8 7 5 8 6
30 35 33 21 28 23 25 31 31 30 36 34 29 18 20 10 4 2 7 3 5 3 14 16 14 16 17 19 19 18 18 18 18 17 15 17 16 16 12 10 9 11 9 9 8

GFSSW_850_spd_066.txt.gz
Wind_Speed
24 23 21 20 20 20 20 20 19 19 20 20 21 22 23 25 24 21 19 10 10 8 7 3 8 11 11 15 17 14 11 14 13 11 10 9 8 13 4 8 20 29 16 5 8
24 25 24 23 21 21 21 22 25 22 22 23 23 23 23 26 25 25 16 16 15 11 10 9 10 11 14 19 16 11 12 19 10 10 12 9 16 6 4 17 14 30 11 6 12
21 24 26 26 26 25 25 24 24 25 22 24 25 25 22 24 22 1 4 7 10 9 11 11 13 14 16 21 16 16 14 17 16 8 11 16 19 9 11 5 7 12 12 13 10
21 21 21 24 26 26 26 26 27 28 24 22 23 24 23 18 7 5 8 6 8 9 14 11 14 16 15 18 19 15 14 18 19 16 13 12 16 18 4 3 4 19 15 14 13
23 22 21 21 22 25 26 27 27 27 26 22 22 21 23 10 20 17 15 14 13 11 14 13 16 17 15 20 18 12 14 16 22 14 18 15 11 17 13 20 17 16 13 13 11
22 23 22 22 21 20 21 23 24 26 25 24 22 21 15 23 11 12 13 13 16 14 13 15 16 16 20 19 18 18 16 16 19 23 14 13 5 7 26 35 15 12 12 11 10
20 21 21 21 22 21 20 20 21 21 23 21 19 18 19 34 15 12 11 13 14 16 15 15 16 18 16 16 18 19 17 17 19 20 13 17 10 3 13 9 7 11 11 11 8
21 21 20 22 21 21 21 19 18 18 20 19 16 15 19 18 13 18 20 18 16 16 16 16 14 15 19 20 22 17 17 16 14 6 15 13 7 5 7 6 12 11 12 12 13
22 22 21 21 22 20 20 18 17 17 18 15 15 9 19 12 19 21 18 20 17 15 15 14 11 17 17 16 14 16 15 19 16 10 14 8 2 8 21 15 22 15 14 12 20
23 22 21 20 21 20 18 14 14 18 13 9 12 11 23 15 10 14 19 20 19 15 15 15 11 13 14 13 15 16 11 20 12 9 12 11 15 13 15 28 34 19 17 14 23
26 21 20 20 20 20 15 11 10 6 13 14 10 12 17 6 9 9 15 20 21 22 16 21 13 16 19 20 22 16 13 15 4 4 4 9 9 16 25 29 23 21 22 24 18
21 24 19 20 19 19 12 8 7 8 13 23 31 31 32 20 10 17 17 21 24 21 19 16 19 19 21 21 7 12 14 15 2 2 3 11 7 21 17 14 15 19 21 22 22
21 19 21 19 19 22 19 21 11 14 11 24 33 33 39 30 30 20 25 28 22 21 21 20 20 20 21 11 9 13 14 3 18 4 13 13 13 9 2 13 10 18 20 25 24
23 21 21 17 18 14 17 15 15 8 7 14 16 11 35 30 28 33 27 30 17 23 23 24 23 13 16 10 13 14 10 11 11 10 7 6 9 11 11 11 13 14 18 21 24
23 22 20 21 10 6 0 11 9 6 6 6 12 4 9 28 7 29 34 30 25 22 17 21 20 19 14 15 15 13 6 11 10 12 14 10 5 11 13 15 14 13 17 21 21
26 22 22 21 20 16 7 6 12 6 11 6 10 8 12 26 31 16 35 32 31 24 20 21 20 19 18 15 13 10 9 9 12 11 11 14 6 9 5 10 11 20 24 23 28
25 23 24 21 21 14 13 6 7 11 10 12 14 11 16 18 25 21 27 25 23 22 20 18 22 17 16 16 18 9 10 7 6 8 8 6 9 7 12 12 14 8 27 30 27
28 25 25 25 21 15 12 6 15 21 29 5 19 16 17 17 19 24 21 23 24 21 14 16 16 24 13 17 14 14 14 8 6 3 4 12 6 5 10 11 6 2 3 15 27
28 29 26 26 26 19 7 14 15 27 24 28 9 11 15 17 11 21 25 22 24 24 21 19 21 20 16 15 18 14 13 16 9 9 5 5 14 6 9 5 8 5 2 10 12
32 30 32 26 28 21 6 17 27 29 31 21 28 13 13 17 16 17 22 19 22 24 17 16 13 22 21 19 18 16 9 10 6 4 6 6 7 3 8 6 8 8 8 7 2
34 17 23 30 29 17 11 28 34 30 38 23 25 20 24 16 17 17 13 16 19 17 26 25 15 15 17 16 18 11 11 11 13 7 1 4 2 2 7 6 7 6 9 6 6
34 9 24 39 17 11 24 25 37 29 39 28 24 25 18 20 13 19 21 16 19 20 23 25 9 10 16 17 16 17 17 15 6 8 5 2 5 4 11 5 9 9 8 6 5
20 15 28 46 13 19 23 33 28 30 25 24 28 21 14 19 14 15 14 10 5 19 20 20 16 10 15 16 16 19 14 14 13 11 11 8 4 2 2 3 1 4 11 14 9
19 6 14 39 39 27 25 27 28 43 31 26 23 22 19 16 12 8 17 5 5 7 33 22 17 15 11 15 14 14 16 19 18 7 7 9 11 16 3 9 11 16 19 12 15
24 10 18 15 23 29 25 14 27 30 33 29 22 20 23 15 15 15 10 10 3 5 5 4 16 17 17 19 20 21 18 19 19 13 15 12 15 15 12 7 7 4 10 5 5
16 12 30 11 27 26 25 28 25 30 29 34 26 18 17 17 16 19 18 9 5 7 9 6 12 17 16 19 19 14 19 22 20 19 16 17 17 14 14 11 11 8 10 6 8
29 39 29 21 22 17 26 30 31 23 31 37 30 19 12 21 4 11 9 5 4 3 10 9 7 12 15 17 18 17 17 14 14 15 15 15 11 11 12 10 8 8 9 9 11

GFSSW_850_spd_069.txt.gz
Wind_Speed
21 23 23 23 23 23 23 23 23 22 23 22 24 23 23 25 24 26 27 15 9 8 7 5 7 7 3 13 15 22 3 8 14 15 3 4 2 4 8 13 9 3 3 10 6
20 20 21 23 24 24 25 25 26 25 26 24 24 24 23 25 26 24 9 9 11 13 11 9 7 6 12 18 19 3 4 11 17 9 6 1 7 7 6 7 7 15 11 8 10
20 20 21 20 21 23 25 25 26 26 26 28 24 24 22 21 22 5 8 6 8 11 12 13 14 16 18 22 27 16 10 16 16 25 15 7 9 28 10 11 28 5 17 12 9
20 20 19 19 19 20 22 23 25 25 26 27 24 22 22 16 5 2 11 9 8 10 12 15 9 14 7 9 30 5 21 16 16 24 13 5 8 10 28 8 29 8 4 6 12
20 21 21 19 19 19 19 19 21 22 22 24 23 20 22 9 25 19 16 12 12 13 15 16 12 15 9 9 17 9 11 15 21 20 19 15 10 11 10 4 11 12 5 8 10
20 20 21 21 20 20 19 19 18 19 20 21 19 18 15 16 15 6 13 16 17 16 18 15 13 17 21 17 9 21 20 15 21 20 23 10 8 6 4 5 17 13 10 12 10
20 21 20 20 22 22 20 19 17 17 17 18 16 14 16 38 12 12 16 14 14 14 16 15 16 19 18 10 17 20 12 10 11 20 12 18 3 6 8 12 16 15 13 14 13
20 19 20 22 21 24 22 21 18 16 17 16 14 13 15 25 18 21 26 21 15 17 18 17 19 23 20 14 16 8 9 6 12 11 17 10 3 6 18 16 15 20 17 17 19
22 22 20 21 21 23 24 21 18 16 18 13 15 6 15 8 16 10 25 22 19 16 19 18 19 17 9 5 6 5 10 13 19 17 6 6 3 10 16 14 13 19 19 19 20
21 20 22 19 20 22 26 21 13 18 16 10 11 9 16 8 10 15 9 20 21 17 16 16 8 4 3 2 9 8 9 11 7 1 6 3 7 5 14 15 12 10 13 23 26
22 21 19 20 18 19 22 16 6 4 7 14 13 13 17 10 14 8 11 19 17 18 10 14 4 13 13 13 17 16 18 8 5 5 7 6 6 9 14 19 17 27 23 31 30
24 21 20 18 16 17 18 12 9 9 14 20 28 34 37 30 14 14 12 19 16 14 10 8 18 15 16 16 17 18 12 9 2 7 2 5 5 10 10 7 21 30 28 33 29
25 22 19 17 17 19 20 19 14 17 8 17 31 34 41 26 23 32 20 26 11 12 16 15 12 18 19 18 18 12 5 7 6 5 7 4 7 5 10 12 24 30 37 37 43
21 22 18 15 14 9 12 10 7 11 5 8 11 15 28 24 11 37 30 24 9 16 17 14 19 19 19 20 14 5 10 10 4 4 3 5 5 3 6 13 15 30 34 36 44
21 20 17 16 11 7 11 5 6 7 4 7 7 10 9 26 10 17 40 23 18 18 12 14 16 22 21 19 11 9 5 1 5 5 4 4 2 5 9 10 8 11 34 38 44
22 22 18 18 21 18 14 18 1 4 10 7 8 8 8 27 12 5 24 31 10 14 10 19 22 15 20 8 7 8 2 3 3 1 4 4 4 7 5 9 13 10 32 39 40
23 23 22 20 24 10 10 12 5 6 7 9 5 9 9 9 17 9 11 13 11 14 18 18 19 21 13 9 8 6 2 3 4 2 5 5 6 9 10 8 9 13 30 40 39
24 24 25 24 21 14 7 2 12 16 26 8 2 13 9 8 16 15 9 15 16 10 5 13 14 18 8 13 7 6 8 5 5 3 3 6 5 6 8 10 7 14 37 39 40
23 26 28 25 22 20 9 8 16 14 15 21 17 9 9 11 6 14 15 14 18 18 13 11 11 2 12 6 9 5 6 7 6 2 4 4 7 6 4 5 7 8 26 32 37
28 29 33 27 22 22 10 26 15 24 16 11 7 11 4 10 9 13 9 10 14 21 21 4 6 13 21 9 9 7 4 3 3 4 3 8 7 2 4 8 7 6 6 10 26
30 15 19 31 24 21 19 21 18 24 25 9 12 14 19 17 11 7 7 10 15 17 19 16 7 11 9 13 14 5 9 4 6 6 5 2 4 4 7 6 7 8 14 12 8
31 7 13 38 17 16 22 26 16 15 21 17 16 20 18 18 15 15 11 9 16 7 21 17 3 12 17 18 18 14 10 8 5 5 4 5 5 6 10 5 11 14 17 17 14
20 13 23 47 14 20 18 24 26 18 19 11 12 10 15 16 9 3 10 7 14 11 11 8 5 7 11 15 16 17 7 10 8 4 6 6 5 6 9 3 12 13 19 22 19
17 6 13 42 37 19 20 20 20 26 20 25 16 19 21 15 14 6 7 1 4 8 28 14 9 16 14 10 6 4 7 9 8 4 4 6 6 7 6 5 4 11 14 20 21
20 8 18 15 25 20 19 11 23 18 29 15 11 21 18 13 6 3 4 6 7 7 7 9 15 17 16 17 18 19 14 15 16 11 7 5 8 8 8 10 11 8 21 19 24
15 9 23 1 20 22 20 24 22 24 14 28 22 17 12 14 7 5 8 5 7 7 7 8 6 10 16 14 18 14 15 14 12 8 5 16 13 12 17 12 13 19 21 17 19
30 37 28 20 15 16 28 27 21 16 27 24 20 15 17 17 9 1 7 16 8 6 10 6 5 6 12 14 15 6 18 13 14 11 10 9 9 6 7 6 8 20 25 21 21

GFSSW_850_spd_072.txt.gz
Wind_Speed
19 18 18 19 21 22 22 22 24 24 22 24 24 23 24 25 25 23 23 16 8 7 4 5 7 7 8 10 14 3 2 5 7 5 8 21 4 13 17 15 6 2 2 7 9
18 19 18 18 19 20 20 22 22 22 24 24 25 24 23 25 25 24 7 6 5 7 6 8 8 7 5 5 4 5 3 8 7 9 8 4 1 2 5 6 3 4 3 4 5
20 20 20 19 19 19 18 19 19 20 20 22 24 23 20 20 24 7 1 4 2 5 8 9 11 7 11 18 12 4 7 11 23 27 27 7 3 4 15 2 8 10 6 4 3
18 20 22 20 21 20 19 18 18 17 18 19 21 21 19 13 7 7 5 4 6 6 10 11 13 5 4 5 6 3 14 18 26 33 19 3 10 3 5 10 11 8 10 13 5
17 19 20 21 22 21 21 20 18 17 17 18 18 18 18 9 29 15 20 14 10 11 12 13 13 7 4 5 7 6 10 20 20 25 11 2 4 6 9 14 6 10 9 11 9
20 16 19 23 22 22 22 20 20 18 16 17 16 13 9 11 12 9 15 15 14 14 16 16 11 15 8 9 4 12 14 17 21 21 14 4 4 2 13 10 11 13 9 9 8
18 20 18 19 22 24 24 21 21 19 17 17 14 10 13 33 16 14 13 18 19 16 14 19 16 16 4 7 14 8 9 10 13 10 9 7 3 6 5 13 18 13 12 12 9
16 16 21 20 22 24 25 24 20 19 18 17 14 8 16 24 21 25 25 25 21 17 15 12 13 17 16 17 11 6 4 4 7 4 18 4 13 5 14 18 15 14 15 9 10
18 18 17 20 22 23 26 23 20 18 19 14 13 8 17 11 13 5 15 32 25 19 17 14 18 22 14 2 4 2 5 6 10 12 9 7 6 5 18 18 18 20 17 13 14
18 18 18 18 19 20 25 23 15 15 16 11 9 6 19 17 4 10 10 15 21 13 17 15 10 5 2 4 8 6 4 5 7 12 4 1 4 9 23 17 18 21 16 17 19
20 17 18 18 17 16 23 20 5 4 5 12 11 13 18 11 15 16 6 11 19 12 9 6 3 14 13 10 6 5 6 8 13 21 5 7 6 15 13 18 15 20 19 20 22
19 19 17 17 15 13 16 16 10 4 14 22 27 36 40 35 16 26 9 14 10 10 7 4 18 16 7 7 10 11 12 15 15 14 3 4 5 8 12 16 24 28 25 21 23
17 17 17 16 14 11 12 13 13 16 7 14 29 31 41 30 28 35 15 23 8 8 9 15 6 17 14 13 13 15 13 13 16 5 5 2 3 3 11 10 18 27 29 23 27
16 16 13 12 11 5 2 4 11 14 4 7 9 14 27 19 11 38 40 18 8 17 11 9 22 12 10 14 13 12 12 14 6 2 4 3 5 5 5 10 11 25 30 33 30
18 14 14 13 8 12 6 10 13 5 4 4 6 5 13 18 9 20 37 27 11 11 10 9 10 15 16 19 13 12 13 9 6 4 1 4 2 6 4 8 12 16 30 35 38
19 16 15 15 17 18 13 15 4 2 10 6 6 7 9 17 4 3 16 16 11 9 8 13 17 10 15 14 14 16 7 1 5 2 3 3 5 5 5 6 5 19 31 38 42
18 17 19 19 23 12 6 3 3 7 4 5 4 3 5 8 7 1 6 18 10 10 18 9 18 12 8 7 10 14 5 1 3 3 6 1 3 8 9 8 10 20 31 39 46
21 18 21 24 17 12 8 4 12 13 19 11 3 11 5 5 6 5 4 9 16 3 8 11 6 13 9 18 7 8 8 5 5 4 4 4 6 6 7 19 20 29 41 43 43
19 22 25 26 21 16 12 11 10 13 4 15 25 15 6 4 4 9 9 5 12 18 6 10 9 6 11 13 12 5 5 8 7 2 2 4 7 9 3 2 6 13 29 37 42
23 26 31 26 24 20 9 23 11 4 7 8 4 5 6 9 11 6 8 8 9 17 11 3 2 13 9 2 5 8 7 4 1 5 3 5 5 5 1 3 3 6 18 31 39
24 15 17 29 26 18 17 13 22 23 10 6 8 6 6 4 5 8 8 6 16 11 17 10 2 5 2 7 6 1 3 3 5 6 4 3 5 6 7 7 8 8 21 31 37
28 6 21 34 15 10 18 11 15 16 16 15 8 11 10 7 7 10 10 8 13 14 17 12 5 6 9 5 5 7 11 9 5 5 5 3 5 3 9 7 7 12 22 23 22
19 10 32 43 14 17 12 21 23 18 13 6 7 10 8 4 1 9 14 13 24 8 12 8 6 3 4 9 7 8 9 9 6 5 8 8 5 4 7 4 7 17 23 23 20
13 6 11 35 14 19 16 18 20 26 25 26 14 13 8 7 9 8 8 8 23 7 16 19 6 17 14 7 2 5 9 14 10 5 6 6 5 13 7 8 6 21 21 26 27
20 8 12 9 19 14 20 11 23 16 20 13 13 20 13 6 5 5 5 5 13 11 4 7 6 8 9 11 9 14 15 8 12 8 9 11 11 14 9 8 13 20 22 26 27
15 8 13 4 22 24 20 19 18 22 16 17 18 7 18 19 11 12 5 3 2 12 7 4 2 5 9 13 10 17 18 11 10 7 9 8 11 9 17 19 16 19 19 21 33
31 24 16 14 13 18 30 24 18 13 22 36 16 19 19 15 12 9 7 5 3 5 6 3 1 5 6 13 6 10 17 16 10 8 6 7 10 8 10 10 16 23 28 27 29

GFSSW_850_spd_075.txt.gz
Wind_Speed
20 19 18 19 17 17 19 19 21 21 21 20 22 24 22 26 26 25 23 16 13 7 9 6 8 10 9 5 7 6 3 3 5 2 7 13 4 3 4 7 8 8 8 7 4
18 22 21 20 20 19 19 19 18 19 20 21 21 21 20 23 25 27 19 10 9 9 9 6 8 9 5 3 6 5 4 7 6 6 10 18 2 7 5 4 7 9 11 7 7
17 18 21 22 21 21 21 20 19 19 19 20 20 21 18 18 22 7 5 4 5 9 9 7 7 7 3 5 6 5 6 4 17 23 19 14 8 8 8 6 13 12 12 11 10
18 18 19 21 21 21 22 22 21 19 20 21 22 21 18 11 5 4 6 7 3 6 10 9 9 5 3 4 6 3 11 7 17 26 10 4 7 7 18 7 6 11 9 13 13
18 22 21 20 22 23 22 21 22 21 20 20 21 21 18 9 23 14 15 15 6 9 14 12 13 8 5 4 2 4 6 12 19 22 24 9 7 8 13 12 7 7 9 9 13
14 17 22 20 20 21 23 22 21 21 21 20 19 18 10 9 9 5 16 26 29 19 15 14 7 13 5 4 5 5 9 15 16 21 15 8 5 2 12 16 10 11 13 11 13
17 16 17 21 22 23 24 20 21 21 20 20 17 15 13 33 14 20 19 15 17 20 18 14 14 10 2 3 6 6 8 7 7 8 6 12 2 9 11 21 13 16 15 14 13
17 18 18 19 19 23 25 21 19 20 19 18 16 10 15 28 25 28 24 28 21 22 18 14 11 15 8 7 6 4 1 3 3 3 5 7 9 8 15 19 19 18 18 18 16
19 19 19 19 20 20 22 22 21 20 20 16 13 9 18 17 15 5 6 18 21 21 18 13 11 12 5 3 3 2 4 6 10 4 3 3 10 5 17 18 15 20 20 20 18
18 20 20 19 19 18 20 21 16 13 13 9 6 7 22 18 7 6 10 10 13 18 14 12 9 3 3 4 7 6 5 5 6 6 6 5 12 4 15 17 16 19 21 20 20
17 18 17 15 18 15 18 21 8 2 5 11 10 13 15 10 12 8 6 9 10 15 9 7 4 16 15 9 3 4 3 5 8 15 3 10 6 10 8 14 15 19 20 21 22
18 17 16 14 16 12 13 9 9 8 15 22 34 37 39 33 17 25 7 9 9 7 8 3 12 14 6 8 9 6 5 10 11 18 4 9 9 6 7 11 20 22 24 24 23
18 16 15 14 15 10 9 4 11 10 8 15 30 32 41 34 23 39 21 7 6 8 12 14 7 10 15 7 8 8 10 8 11 7 5 5 5 4 5 8 18 22 22 26 28
18 15 13 12 10 11 4 4 12 7 4 6 7 10 17 20 10 35 26 21 7 15 6 8 11 7 6 10 11 11 11 13 9 3 5 3 5 4 6 10 7 17 22 26 29
19 15 14 11 7 8 3 5 13 1 5 3 4 5 7 16 2 8 30 26 12 7 8 8 9 18 17 14 9 12 7 9 9 6 3 1 1 7 2 6 11 17 27 32 33
18 15 14 15 18 15 11 12 6 1 9 6 3 5 7 9 5 5 10 7 15 5 6 8 5 9 11 19 13 6 4 4 1 3 3 5 5 5 6 9 9 12 29 32 33
19 17 19 19 21 9 7 2 2 6 5 3 3 4 3 3 5 2 6 14 7 12 16 4 11 3 4 7 7 5 3 3 2 1 5 3 3 8 8 8 9 10 24 34 33
21 20 21 23 18 12 7 1 10 5 9 4 7 17 5 2 5 4 6 8 11 4 5 12 5 15 8 16 6 8 9 5 5 4 4 0 5 6 7 8 20 27 27 34 34
20 21 25 25 23 16 10 9 7 4 4 4 7 3 3 3 3 4 6 6 12 9 7 6 7 5 9 7 17 5 5 10 6 3 2 4 7 8 8 8 6 15 19 25 34
23 23 28 27 27 22 6 17 9 1 6 5 2 2 3 5 6 10 3 3 5 18 2 3 3 8 4 9 11 10 8 4 1 5 4 3 5 6 8 8 6 6 15 30 34
25 13 14 30 27 20 12 11 14 19 7 3 2 4 3 4 1 2 6 9 2 3 15 9 2 6 6 6 8 4 4 2 4 4 6 1 6 7 10 9 8 8 22 30 33
26 5 23 32 11 6 14 12 17 13 17 12 4 8 9 5 4 4 8 4 20 5 6 9 6 10 10 3 3 5 6 6 5 3 1 5 7 4 8 6 3 9 20 27 28
14 9 36 39 10 12 12 15 17 12 11 3 4 9 5 4 4 7 6 5 17 7 5 6 6 1 5 5 5 5 5 4 4 3 8 6 6 2 5 4 9 9 16 25 28
12 5 10 29 12 19 17 10 20 17 17 9 6 5 7 4 4 5 8 5 14 15 25 9 5 15 17 3 5 4 1 1 6 6 5 7 9 6 11 6 8 14 18 19 25
18 6 11 8 17 13 21 11 17 17 20 19 12 18 11 6 8 7 10 7 10 18 8 4 9 5 12 13 5 3 3 1 5 13 13 11 16 12 10 10 9 19 20 23 26
12 8 11 3 21 21 17 21 19 19 16 15 10 6 13 22 20 8 6 4 3 6 6 7 5 3 8 10 12 16 10 7 5 9 5 4 9 7 16 18 9 19 17 21 31
27 15 12 12 13 16 25 19 21 16 15 25 14 16 14 15 21 25 24 20 9 4 2 4 5 3 4 6 4 8 9 17 6 6 6 5 7 6 8 10 13 24 21 23 29

GFSSW_850_spd_078.txt.gz
Wind_Speed
17 18 20 21 19 20 20 21 22 24 23 24 22 21 21 24 24 25 23 16 14 10 14 10 11 14 12 7 7 6 4 3 5 6 6 5 2 4 6 8 10 8 10 9 6
14 16 18 20 21 21 21 21 21 23 24 25 24 22 20 22 25 26 17 17 13 8 11 10 11 14 7 6 6 4 4 8 7 5 5 13 4 12 5 4 9 12 15 9 6
17 18 18 19 20 22 23 23 22 22 24 25 25 24 20 20 21 3 3 4 12 12 11 9 6 11 6 5 6 6 6 5 8 17 16 7 6 6 6 5 19 11 18 12 8
18 21 22 21 22 22 24 24 22 22 24 24 25 24 22 16 5 2 2 6 8 10 13 9 9 5 5 5 7 3 10 8 11 15 5 4 6 4 14 19 12 14 11 16 14
15 15 17 20 22 23 23 21 22 22 23 23 23 23 22 10 19 13 13 10 10 11 11 11 11 7 5 5 5 5 5 13 17 19 18 12 11 6 15 24 20 11 13 15 13
18 18 18 19 20 21 23 22 20 20 22 22 20 20 13 7 10 8 10 17 23 18 10 14 6 10 5 5 6 4 6 13 14 20 15 6 1 3 17 20 18 14 13 14 15
20 19 20 20 21 22 21 22 22 19 19 21 18 17 16 32 15 17 23 20 12 15 18 17 12 7 2 2 7 6 7 8 7 9 7 7 5 8 27 15 20 14 14 14 15
20 19 21 22 23 22 21 23 23 22 21 21 20 13 14 29 26 30 26 31 26 19 18 13 10 7 5 8 4 2 1 3 2 5 2 8 9 13 17 20 20 15 15 16 19
19 18 20 21 23 23 22 24 24 26 24 20 16 10 17 16 13 3 4 7 10 21 19 12 7 7 4 4 3 2 5 5 9 5 3 5 10 7 3 13 16 18 18 18 17
16 18 18 19 21 22 24 24 22 15 10 5 7 6 19 13 7 5 3 5 4 14 13 14 9 4 2 4 7 5 5 5 7 2 2 3 11 11 7 12 12 17 20 21 21
17 17 18 18 18 18 20 22 7 4 4 10 8 9 7 10 8 7 6 7 6 12 7 9 4 9 17 9 5 4 4 4 5 4 4 8 7 16 4 10 13 17 21 23 23
16 16 16 16 16 16 16 6 6 10 15 23 31 37 33 19 8 12 6 5 6 6 6 2 11 19 8 10 8 6 4 11 12 11 8 8 12 11 4 7 15 20 20 24 24
16 15 13 15 15 15 10 2 8 13 7 14 20 20 28 32 20 30 18 6 6 6 8 15 4 11 11 7 10 13 13 10 10 7 5 5 7 7 3 7 8 15 17 22 27
15 16 13 13 13 9 6 7 11 13 4 7 5 5 6 13 7 28 25 20 6 10 7 9 13 5 12 12 12 7 11 10 7 2 4 2 5 7 6 7 5 13 19 23 26
14 16 14 13 9 7 2 8 10 6 5 0 3 1 7 10 5 0 23 18 17 8 7 8 6 16 7 8 9 11 9 10 6 6 1 5 2 7 2 6 9 9 23 25 26
16 16 13 14 19 11 9 10 8 1 8 5 3 3 0 6 5 3 2 8 11 6 4 6 3 8 9 9 13 1 4 4 1 2 4 9 6 5 5 7 6 6 20 23 27
20 17 17 17 19 8 7 2 1 5 6 4 3 3 6 2 3 3 4 9 5 6 13 3 5 2 3 4 8 6 4 2 1 1 6 6 4 10 7 9 8 10 20 21 25
21 18 20 21 19 11 5 2 10 4 6 4 4 6 2 3 1 4 4 5 7 2 2 12 7 11 6 8 7 11 10 5 6 5 4 2 6 6 8 8 13 17 21 17 19
22 21 25 24 22 17 8 7 6 4 5 5 6 2 4 3 2 7 2 5 6 8 7 6 6 6 8 8 12 6 13 8 5 2 2 4 6 8 8 7 7 13 15 21 21
23 24 29 26 25 22 4 13 7 3 4 5 3 4 4 6 6 5 4 2 4 6 6 4 3 6 4 6 13 8 7 4 1 5 4 4 4 6 8 12 9 8 9 18 20
23 16 20 30 29 20 12 8 9 19 6 4 3 4 3 3 4 3 3 4 6 7 4 3 1 5 4 6 9 5 14 3 4 5 6 3 6 7 8 8 9 9 13 18 18
25 8 21 26 15 5 14 8 11 2 6 6 2 3 3 4 3 2 3 5 17 5 7 4 5 5 10 5 4 9 9 10 5 4 2 3 8 5 6 7 3 12 13 15 16
17 14 28 34 11 11 6 14 13 3 4 1 5 6 0 3 4 5 4 3 10 7 5 9 4 3 6 12 3 5 4 5 4 4 6 6 4 4 3 2 7 9 12 12 15
8 6 10 30 17 17 13 16 11 19 15 1 3 2 2 2 3 4 4 5 7 8 6 10 5 8 11 5 4 5 6 5 5 4 5 5 4 5 7 8 7 11 13 13 17
18 6 10 6 12 16 18 11 18 13 16 18 4 7 3 3 4 4 7 10 9 7 4 2 6 9 14 11 16 5 5 7 9 6 9 4 8 10 9 9 11 20 12 8 18
12 6 8 1 21 16 17 18 20 17 12 11 11 7 15 14 14 13 4 0 4 4 3 3 6 10 10 9 11 12 11 10 7 5 4 2 8 6 15 19 11 16 15 14 18
22 19 8 11 10 12 18 20 16 14 16 19 18 13 9 16 21 26 27 30 16 13 8 5 1 5 3 5 6 7 13 7 4 6 5 4 4 7 7 9 11 25 23 19 21

GFSSW_850_spd_081.txt.gz
Wind_Speed
13 15 17 18 19 20 20 21 22 22 22 22 22 21 21 23 23 25 24 17 13 12 12 14 15 15 16 10 8 6 2 5 5 7 4 5 4 4 9 6 7 9 14 15 12
18 18 22 22 20 21 22 22 22 23 23 23 22 23 21 23 25 27 12 15 17 12 13 18 18 18 9 8 7 5 4 9 6 6 5 2 5 8 3 4 8 13 21 19 15
16 17 19 21 20 20 22 22 22 21 22 23 24 22 20 20 21 4 7 7 15 13 13 13 12 17 7 6 8 5 9 6 7 13 9 7 6 4 5 6 16 13 17 19 17
16 18 19 20 20 20 20 21 22 20 20 21 22 23 20 15 5 3 5 4 10 14 14 15 14 10 6 7 8 5 11 10 7 12 6 4 6 5 10 15 17 13 13 14 17
17 17 19 20 21 21 21 21 20 20 20 20 20 21 18 8 18 19 16 7 8 14 17 14 16 9 6 7 7 6 6 11 16 13 13 9 15 9 17 26 21 17 13 15 15
18 19 20 21 21 21 20 20 20 20 20 19 18 21 13 6 13 9 13 13 15 10 13 15 7 13 5 6 8 5 8 12 11 10 9 9 7 5 23 17 19 18 15 15 14
19 19 20 21 22 21 21 20 20 21 20 20 19 21 18 28 18 14 17 14 12 14 20 18 14 7 5 3 7 4 8 10 12 17 10 9 6 9 19 10 13 15 15 14 15
18 19 19 21 23 23 22 22 21 22 22 22 22 17 14 21 22 25 27 30 28 23 19 14 13 11 7 3 1 2 2 5 2 2 3 9 11 12 7 9 14 15 14 14 16
17 17 19 20 22 24 24 23 22 23 21 17 14 11 15 11 8 1 5 12 9 16 23 10 13 6 4 7 5 3 9 8 8 4 3 7 6 6 5 8 14 16 16 17 17
15 17 19 20 21 23 24 22 19 14 10 2 5 4 14 6 4 5 3 3 5 9 14 14 7 5 3 8 13 9 7 5 9 1 2 4 14 17 8 11 16 18 17 18 18
16 18 17 18 18 21 23 16 5 4 3 8 7 10 10 5 6 7 10 0 6 11 7 8 9 14 27 15 4 7 7 9 6 4 2 9 11 17 11 8 12 16 19 21 22
16 19 17 17 16 20 18 5 4 10 15 21 25 36 38 20 8 11 10 8 8 6 7 4 15 19 5 10 13 10 7 18 11 8 7 9 15 16 12 8 10 19 20 22 19
19 17 15 16 15 18 11 4 3 18 7 11 11 13 16 25 17 19 11 8 6 9 15 14 5 14 12 9 12 16 18 16 14 6 9 7 8 7 3 5 6 12 19 20 24
17 14 12 14 14 6 5 6 6 16 4 5 4 3 5 9 7 20 33 15 5 14 9 12 14 7 16 17 16 17 12 15 14 7 6 2 6 7 12 11 7 12 19 23 25
15 11 11 11 11 9 6 3 8 8 5 2 3 1 6 8 10 1 13 16 19 6 5 6 6 17 11 12 15 14 6 12 16 12 7 12 6 3 3 7 11 9 20 24 27
15 13 14 14 18 15 9 8 7 2 7 2 4 3 3 7 3 3 4 8 7 11 6 4 2 7 10 13 16 3 8 1 1 4 7 14 6 7 6 8 6 7 8 17 26
16 17 15 15 17 9 5 4 2 5 3 2 2 1 5 1 1 2 4 8 4 6 10 10 14 3 3 6 7 7 5 2 3 5 8 8 9 14 6 8 10 13 15 8 20
18 19 20 19 20 13 2 2 10 2 3 3 3 3 2 3 1 3 4 5 6 3 2 10 7 16 9 9 8 15 11 5 7 5 6 6 7 8 10 10 10 12 15 7 15
17 22 24 22 21 18 9 7 4 4 3 4 3 3 3 4 2 4 2 2 2 7 6 4 5 4 7 9 16 7 11 15 4 2 3 4 4 7 9 7 6 10 10 11 17
18 19 27 23 23 20 5 11 6 1 3 3 1 4 2 5 4 5 2 3 4 4 6 3 4 6 4 8 12 9 11 6 8 7 11 4 3 7 2 5 7 9 13 7 14
18 11 22 23 22 18 12 9 6 10 2 4 3 2 2 3 3 1 2 1 6 7 6 4 1 3 3 5 13 9 10 4 6 7 8 4 5 8 12 7 7 9 11 4 13
18 6 16 22 16 4 9 10 6 1 7 5 1 1 2 2 1 1 3 1 6 3 5 8 3 6 11 4 2 12 18 18 7 5 5 6 11 2 7 5 5 10 10 3 7
13 18 16 29 11 15 2 6 14 5 5 4 8 5 2 1 2 2 4 3 6 7 5 7 3 3 3 10 6 7 7 14 17 5 14 8 4 2 4 6 5 8 12 11 4
14 5 14 30 20 15 17 6 7 18 8 1 0 2 3 2 4 3 3 4 10 12 7 8 4 6 5 8 11 6 8 10 16 10 15 17 9 4 4 5 8 14 16 15 9
20 6 11 6 15 11 15 11 14 10 15 13 6 6 2 2 2 6 8 11 10 19 7 4 8 10 16 19 20 21 15 14 16 17 12 8 15 10 7 8 7 13 16 16 14
13 6 5 10 15 19 21 19 19 16 11 12 10 10 14 15 16 14 8 5 4 4 6 5 2 3 10 15 19 21 21 19 15 11 8 5 8 8 11 12 10 20 15 19 22
28 20 14 10 7 10 10 19 20 14 17 19 17 9 11 20 23 27 20 17 12 10 9 4 2 3 6 10 18 12 21 18 17 14 10 13 10 8 7 7 9 13 19 21 26

GFSSW_850_spd_087.txt.gz
Wind_Speed
16 16 13 13 14 15 16 18 18 18 19 21 21 21 20 22 24 21 21 17 15 15 17 11 14 15 15 18 19 12 13 16 20 17 9 4 8 13 10 12 12 9 14 2 4
13 13 15 15 16 17 17 18 19 19 18 19 20 21 20 21 23 25 21 24 22 20 18 20 19 17 21 19 20 18 13 21 19 12 9 11 11 16 16 16 19 16 15 11 8
15 14 15 15 16 17 18 19 20 20 19 19 20 20 17 16 19 7 9 8 12 16 17 17 17 19 22 22 22 21 19 21 20 10 15 16 16 19 16 19 20 17 14 10 12
18 17 16 16 17 18 18 20 20 20 20 21 21 22 17 8 6 4 6 7 12 8 14 18 22 22 20 21 24 20 25 23 24 23 15 18 21 21 23 21 20 22 16 15 16
17 17 17 17 18 19 19 20 21 21 20 20 21 21 20 8 25 19 21 21 12 7 14 19 22 23 22 16 22 21 20 24 23 20 22 23 22 23 25 24 24 21 22 19 17
17 16 17 17 18 19 19 20 21 21 20 21 20 19 12 18 10 11 14 9 12 14 15 17 19 19 20 20 20 18 21 23 26 26 23 21 24 24 29 23 21 19 20 19 17
16 16 16 16 18 19 21 22 22 21 21 20 20 18 16 31 10 8 11 9 10 17 21 19 18 12 12 15 21 21 19 20 22 24 23 24 25 24 31 25 22 20 20 16 16
19 17 16 17 19 21 23 23 23 22 22 19 18 11 14 17 16 19 19 21 15 11 16 14 15 17 22 18 12 13 18 19 18 25 20 23 25 21 21 19 19 18 16 13 15
20 18 16 17 19 21 23 24 23 21 18 15 9 10 16 11 10 12 15 21 19 22 20 17 14 20 17 17 16 15 18 20 20 17 13 13 18 15 4 8 14 15 14 13 15
19 19 16 16 19 21 22 22 16 12 6 2 9 8 12 8 5 5 4 11 16 14 18 18 16 17 18 17 20 18 21 20 20 20 16 14 20 17 17 18 18 17 14 15 17
22 20 14 15 18 19 21 19 7 7 9 14 7 17 11 5 8 7 8 8 12 15 17 22 17 23 24 23 24 21 24 23 18 12 5 11 18 18 17 19 18 18 20 17 18
19 20 14 16 16 14 11 9 6 5 14 21 30 33 33 24 17 16 12 13 17 17 18 13 24 28 23 22 19 24 26 24 20 22 11 14 20 20 20 20 22 22 21 17 17
19 18 16 15 12 8 6 8 5 8 9 15 21 21 20 19 23 22 19 21 17 18 19 21 10 24 20 20 21 25 24 21 24 22 16 14 21 23 23 26 27 26 19 17 19
21 17 16 11 8 5 3 1 3 6 6 6 6 3 7 7 8 25 19 20 17 23 19 19 21 13 17 24 23 22 21 22 20 19 15 17 15 17 15 12 18 18 19 22 18
20 16 15 11 8 5 1 4 6 3 6 7 8 5 6 10 5 6 10 23 24 18 11 18 16 20 22 21 17 21 17 17 21 20 17 20 15 16 17 19 15 15 22 21 19
15 17 15 9 13 13 8 6 5 5 9 6 8 10 10 13 8 6 3 13 16 20 18 22 8 9 18 14 15 17 16 16 14 12 16 18 16 13 14 16 13 12 15 20 18
18 16 14 12 9 5 10 7 6 8 4 9 7 9 8 8 10 10 10 11 10 10 19 19 22 17 12 12 17 18 14 9 11 11 13 17 13 13 10 5 4 8 7 12 15
18 15 12 14 14 13 8 8 11 4 18 4 3 9 10 7 6 10 9 10 15 14 11 13 11 28 21 18 11 18 17 8 11 10 10 20 9 10 13 13 19 15 10 4 9
14 12 14 15 16 14 7 10 11 17 10 3 8 10 9 8 5 9 12 7 2 12 8 4 12 2 12 25 21 17 17 19 22 17 9 9 8 8 11 10 8 7 11 14 17
9 12 19 13 17 15 6 14 18 7 7 5 12 5 12 8 8 6 12 1 3 3 7 5 9 6 13 12 22 24 15 12 12 16 17 13 17 14 5 9 11 9 6 9 16
9 6 9 14 15 11 5 9 21 19 2 7 7 1 2 0 6 3 1 7 1 3 6 4 6 2 5 10 13 14 20 16 12 13 11 9 7 10 4 8 5 4 6 7 10
9 4 9 15 10 6 10 8 5 20 21 12 6 8 6 5 6 4 4 3 3 6 5 4 5 7 11 3 9 13 16 18 12 16 12 14 15 9 2 5 7 5 5 4 3
8 15 9 12 8 12 15 13 10 11 9 11 18 12 14 9 6 9 8 3 2 4 7 9 2 6 12 10 11 10 11 12 15 16 20 13 10 3 13 8 8 7 3 6 6
7 5 16 15 17 9 16 21 21 9 21 15 8 12 9 11 11 7 6 3 1 6 7 6 8 10 11 10 10 6 10 9 13 13 14 17 20 20 9 11 5 9 6 6 6
15 7 11 6 15 18 19 12 15 22 11 14 11 15 11 10 12 14 14 13 10 7 7 6 11 12 15 19 16 17 14 14 18 17 18 17 20 18 18 18 20 19 8 9 11
12 8 17 21 21 14 18 19 21 20 10 15 15 13 15 16 13 4 7 8 7 8 6 2 7 8 13 15 20 21 20 21 19 19 23 22 25 20 15 17 16 21 22 15 14
31 22 18 17 19 17 16 18 16 19 21 23 15 14 13 13 13 16 14 12 13 10 10 6 5 3 12 15 11 13 20 21 17 17 20 21 21 21 18 13 14 15 17 21 10

GFSSW_850_spd_090.txt.gz
Wind_Speed
14 13 13 14 14 15 17 18 18 18 18 19 19 21 22 24 25 23 23 17 16 18 13 10 11 16 16 22 22 21 13 15 20 19 19 8 2 6 7 10 14 12 9 7 11
16 15 16 16 16 16 17 17 18 19 20 20 20 20 20 22 25 30 21 23 24 24 24 17 19 17 21 19 25 18 14 22 20 19 17 14 8 12 14 19 20 17 19 15 13
18 18 17 17 18 18 18 19 19 19 20 19 20 21 20 19 20 4 3 6 6 15 19 18 19 19 23 24 26 25 20 21 25 27 27 12 16 18 15 17 17 15 17 9 12
17 16 16 17 18 19 19 20 21 21 21 21 21 21 19 11 6 2 9 11 14 15 13 16 21 23 21 21 28 24 28 29 26 26 24 20 18 19 23 20 20 16 17 17 13
17 17 17 18 18 18 19 19 19 20 20 21 21 21 21 7 24 16 23 20 22 13 13 17 20 24 22 22 25 24 24 29 29 28 27 23 21 22 22 24 23 19 23 19 16
20 19 19 19 19 19 20 21 20 20 20 21 20 19 14 16 13 7 13 12 14 13 15 16 19 22 22 23 22 29 25 26 30 27 25 25 22 23 25 24 27 25 24 24 26
21 21 21 20 19 21 22 23 22 20 20 20 19 17 14 35 12 15 10 12 11 14 20 19 18 20 17 17 27 26 22 22 22 24 20 26 22 23 26 27 29 26 22 20 21
21 23 23 20 20 21 24 24 22 21 21 18 15 10 14 20 15 18 18 22 21 14 15 18 17 23 24 23 26 16 17 19 21 21 25 26 22 21 26 30 29 25 23 20 21
22 23 24 20 21 22 24 25 22 17 19 14 9 9 13 12 11 11 14 21 17 20 17 12 8 13 15 15 16 17 19 23 22 19 22 23 20 15 23 19 7 12 18 21 13
24 24 26 24 21 21 24 24 16 16 10 4 8 8 15 11 4 7 7 12 17 17 20 20 10 13 14 14 17 20 22 24 23 19 21 25 19 15 24 21 15 15 18 19 15
22 24 26 24 18 19 21 21 8 5 10 13 8 16 10 7 7 10 9 6 12 17 16 22 15 19 22 21 25 22 24 25 22 25 22 18 14 13 15 19 15 21 22 18 16
21 23 23 23 16 14 12 6 11 9 16 24 35 39 39 26 27 26 12 11 15 16 15 16 21 21 23 23 23 25 22 27 22 28 22 20 17 16 17 19 20 21 20 22 23
17 19 22 21 14 9 6 10 9 12 10 20 37 32 29 26 34 33 23 22 18 18 19 20 18 23 21 23 25 23 24 18 23 26 25 22 24 16 19 21 25 28 24 23 22
17 16 19 15 11 8 8 8 4 10 6 8 9 7 18 13 8 21 29 26 19 23 19 20 20 21 16 19 24 22 18 20 20 20 18 21 16 17 17 17 21 29 27 23 20
16 15 19 13 10 5 4 2 7 8 6 12 9 10 13 16 3 4 17 18 22 21 15 23 21 20 20 21 15 21 13 14 19 19 22 25 14 14 16 18 17 13 18 20 15
15 15 16 11 13 16 9 7 6 6 10 7 11 11 13 16 10 8 7 14 10 20 22 22 24 19 20 16 20 15 8 14 17 14 17 22 19 14 16 18 17 10 17 25 27
13 16 17 12 16 6 10 7 5 8 6 7 10 12 14 12 12 11 9 10 9 8 18 23 24 23 10 12 16 14 12 9 5 6 12 19 16 14 17 20 12 12 9 9 25
15 16 16 16 17 11 11 6 11 11 16 11 4 10 15 12 12 15 12 11 16 15 11 12 14 22 16 20 16 17 17 9 12 7 5 16 11 14 15 11 7 3 6 6 19
14 17 16 17 15 15 9 9 10 14 14 16 12 12 15 16 5 12 14 14 12 18 13 9 11 14 20 25 21 17 18 16 16 18 4 9 18 10 13 8 6 7 17 11 10
9 15 21 16 15 15 6 13 17 25 11 19 16 10 17 18 14 13 14 11 12 2 4 8 10 9 9 6 22 17 15 14 11 16 16 12 11 9 16 13 9 7 5 9 12
8 7 14 18 16 12 8 16 14 33 7 7 11 9 14 5 8 14 7 9 2 5 4 11 9 13 4 9 12 12 16 13 11 13 10 8 1 5 10 14 9 6 11 8 11
9 4 5 19 11 7 12 18 20 24 22 8 19 5 8 8 12 4 2 8 8 6 4 9 4 7 15 9 13 17 18 17 8 12 8 11 7 12 3 12 7 6 10 6 4
8 17 14 15 7 12 14 17 21 18 16 10 11 16 12 9 6 5 7 11 7 8 8 11 3 5 11 9 8 7 9 16 17 13 16 10 10 9 10 12 5 5 2 9 6
7 3 17 14 17 14 14 17 18 20 10 20 16 19 17 12 10 7 5 5 6 4 8 4 7 9 8 5 8 11 18 14 13 9 11 14 16 17 9 18 17 24 8 5 7
12 6 9 6 13 15 16 13 10 16 25 7 7 17 15 11 11 13 12 9 5 2 4 5 10 13 18 17 13 17 16 16 13 11 11 12 17 15 13 9 14 16 32 9 7
8 6 12 18 18 13 18 18 19 16 9 9 18 18 15 14 14 9 9 7 5 4 6 1 5 10 14 16 16 17 17 18 17 16 16 18 18 16 18 26 21 14 15 19 19
29 18 13 10 14 14 12 12 16 15 16 13 19 15 10 11 14 10 3 10 11 10 7 4 4 5 11 13 14 13 14 17 19 17 15 12 14 17 20 20 18 17 12 10 11

GFSSW_850_spd_093.txt.gz
Wind_Speed
16 16 15 16 15 15 15 16 18 19 18 18 19 21 21 23 25 22 27 21 19 10 12 11 10 12 15 18 23 18 4 9 13 10 17 20 1 6 9 7 6 12 12 15 18
20 19 17 17 17 16 16 17 18 19 19 20 21 22 22 22 25 27 20 20 13 17 18 17 18 13 15 11 14 10 4 14 8 14 15 12 12 5 5 9 9 16 18 20 22
19 20 18 17 18 18 18 18 19 18 18 19 21 23 22 21 22 6 6 7 3 7 14 21 18 19 24 26 27 13 15 16 19 28 28 11 14 20 2 4 11 17 21 27 25
17 18 18 19 19 18 18 19 19 18 18 20 21 22 21 13 5 4 4 15 14 16 16 13 18 19 10 12 28 15 21 24 26 31 30 12 23 9 16 12 15 15 9 14 25
21 21 20 21 21 19 19 19 18 18 18 19 20 22 22 5 26 15 16 14 13 12 13 11 13 17 13 10 19 17 18 26 31 29 29 28 16 16 21 27 23 26 20 16 15
20 20 21 22 23 22 21 20 19 18 18 19 21 21 14 10 14 4 12 13 13 10 9 12 15 19 19 13 15 23 20 24 25 23 23 14 10 18 28 28 25 28 28 27 26
20 20 23 25 24 22 23 23 20 19 18 19 21 19 14 35 17 14 13 15 14 13 15 18 20 23 17 8 29 23 15 17 13 13 7 19 9 9 32 30 25 30 31 30 29
20 22 24 26 26 24 24 25 22 18 17 16 17 14 14 21 15 16 21 20 20 15 15 13 17 18 12 17 16 7 8 11 4 9 11 11 22 13 34 33 31 38 37 36 28
22 22 24 25 29 28 24 25 21 18 17 14 15 11 14 7 16 4 3 11 20 14 18 12 12 7 9 3 4 4 10 16 9 8 10 11 23 14 32 34 29 24 24 34 28
23 22 23 25 27 27 22 21 13 10 9 3 6 7 13 13 6 3 3 10 10 9 13 15 8 3 1 3 11 8 10 10 11 10 16 14 19 17 28 28 19 22 12 19 22
24 21 23 23 24 21 18 15 9 4 3 10 11 14 14 8 5 8 7 7 9 12 7 13 5 10 12 11 11 12 13 15 12 10 13 13 16 21 27 18 12 15 24 24 24
20 22 21 22 22 13 11 5 11 9 13 23 32 42 46 31 22 29 17 12 10 9 7 7 19 14 14 13 15 18 19 20 17 12 13 17 21 20 27 8 14 17 23 31 31
20 17 18 18 16 8 4 8 12 14 7 19 30 26 35 24 32 47 25 23 13 12 12 15 7 20 17 18 18 18 16 13 13 4 4 10 20 15 24 14 17 23 30 25 38
16 16 18 18 11 4 2 1 8 18 4 7 8 9 16 13 9 26 33 22 10 17 13 16 13 19 16 21 17 17 14 17 18 2 4 4 12 20 22 24 19 23 29 35 29
16 16 15 15 10 5 5 5 11 9 5 6 8 4 10 15 2 3 18 30 21 17 8 15 6 7 10 8 9 11 11 14 4 2 4 7 7 7 18 21 19 11 27 37 41
16 14 13 12 9 5 10 9 6 1 8 5 8 6 8 14 6 5 1 16 10 14 16 14 17 6 7 7 12 2 3 2 3 3 7 11 10 4 12 18 17 17 24 24 39
15 13 14 13 14 7 5 4 1 5 9 1 2 11 15 12 12 9 8 6 6 4 8 9 18 15 9 7 8 2 4 2 2 4 6 9 11 16 21 22 22 22 31 30 39
13 14 15 17 11 9 8 4 8 6 10 17 19 17 16 15 14 14 11 7 13 7 1 7 4 14 16 15 8 8 7 4 6 4 3 6 6 5 17 26 34 21 16 30 34
12 15 16 8 4 7 8 4 3 5 4 16 20 8 9 8 6 13 13 11 11 16 7 4 6 2 7 18 14 7 9 11 8 7 2 4 11 18 16 10 15 10 12 14 31
10 12 23 11 9 9 5 8 7 10 15 13 6 9 8 12 12 5 11 4 10 1 5 4 2 7 9 8 12 10 5 6 5 4 10 8 13 8 20 15 16 7 5 15 28
6 6 14 9 12 12 6 7 11 20 20 9 7 6 9 8 13 10 8 4 8 4 4 6 0 5 3 1 6 7 11 4 4 2 3 2 4 6 4 10 17 19 11 13 7
5 2 8 15 5 5 7 4 8 17 22 10 5 8 4 9 6 8 8 6 2 9 3 3 1 2 3 6 7 4 14 14 7 7 8 9 14 5 7 9 15 20 32 8 8
4 10 13 12 4 7 5 11 16 17 16 6 4 3 12 2 5 6 6 8 9 3 1 5 4 2 6 0 11 6 2 6 8 8 14 5 6 9 9 12 4 11 25 27 1
4 3 7 15 6 5 7 10 14 20 16 15 8 7 16 6 12 8 9 8 13 4 7 4 1 2 1 3 4 10 13 7 7 4 7 12 17 14 7 7 9 20 21 21 19
7 5 6 2 5 8 8 9 13 8 9 11 4 7 7 5 13 14 8 4 6 5 4 1 1 3 8 7 11 12 13 15 8 9 8 11 14 9 7 10 6 9 18 17 12
6 4 5 12 14 7 7 15 15 14 5 8 10 13 7 8 15 13 9 5 4 6 5 5 3 5 6 8 9 12 14 13 11 11 10 8 8 7 14 20 23 26 22 26 16
23 15 7 7 4 3 4 6 10 14 15 15 11 5 9 12 15 3 10 4 3 2 4 4 3 4 3 7 8 6 8 11 14 12 7 5 8 15 16 18 22 31 32 15 16

GFSSW_850_spd_096.txt.gz
Wind_Speed
20 20 19 19 18 16 16 17 17 17 17 19 19 21 22 24 25 23 28 22 18 11 15 11 9 5 12 10 15 5 1 6 7 8 10 8 5 21 15 6 10 8 8 8 24
20 19 20 19 19 18 17 17 18 17 17 18 20 22 22 23 26 27 18 20 17 17 17 15 13 8 7 7 9 6 5 10 6 8 11 12 7 22 7 8 6 12 12 9 23
19 19 20 20 20 19 19 19 18 17 17 18 20 22 21 20 22 6 7 11 4 13 14 15 14 11 12 14 10 6 12 13 16 20 25 18 16 22 3 5 15 15 18 15 26
20 21 22 23 23 22 21 20 20 18 17 18 21 23 22 13 6 2 5 6 3 7 11 11 16 8 6 9 25 7 11 14 21 27 24 18 25 12 14 21 23 16 12 15 28
19 21 21 22 24 25 25 22 20 17 16 18 20 23 23 7 25 12 14 15 7 7 12 14 15 15 6 5 13 9 12 23 29 28 30 34 20 19 23 34 26 22 18 16 23
22 22 20 22 25 27 28 24 21 18 16 17 18 22 17 8 12 7 20 21 12 10 8 10 9 12 8 9 9 10 16 20 24 25 25 12 13 10 25 30 27 27 28 25 24
22 24 23 23 27 28 29 29 22 19 17 17 17 16 15 37 17 19 16 17 12 15 15 13 14 18 7 6 15 17 13 13 7 9 7 19 13 10 24 23 23 27 32 35 34
26 24 24 26 26 28 29 28 21 19 19 16 16 11 15 23 19 23 17 25 20 17 17 16 12 15 14 9 12 3 4 4 4 4 7 9 23 11 24 29 28 34 38 41 41
25 26 24 27 27 29 30 25 18 18 21 17 15 11 16 10 10 3 7 14 25 21 18 16 12 7 5 3 3 3 12 9 5 5 5 7 13 8 21 21 18 27 35 39 41
28 25 26 24 27 28 27 16 11 10 9 9 7 6 16 6 3 2 4 5 6 2 13 11 6 3 2 4 13 8 7 5 5 3 8 15 20 10 14 17 20 26 39 38 30
25 23 23 22 25 25 21 9 5 1 6 12 13 15 16 9 13 9 2 2 12 9 6 6 4 7 10 11 4 3 5 7 1 5 5 10 20 11 9 19 20 26 29 35 25
22 22 23 20 20 22 15 9 4 9 14 25 31 38 39 31 15 21 13 4 8 7 5 2 14 7 7 6 7 9 11 17 13 10 12 13 20 11 7 11 18 20 27 31 25
20 20 19 16 22 12 7 8 10 7 6 14 25 22 27 25 26 42 23 5 3 5 8 11 5 15 11 11 12 12 13 12 17 10 7 4 18 14 13 14 22 31 27 32 24
22 19 15 14 17 8 5 13 4 4 3 7 7 9 12 13 9 27 35 18 6 9 7 10 12 13 11 15 13 15 16 18 16 7 9 4 17 13 13 18 20 27 29 32 32
20 18 11 11 18 14 13 6 2 1 2 2 5 5 14 14 3 1 12 18 12 6 6 7 3 14 17 16 13 14 17 15 17 6 4 3 3 8 1 12 20 18 27 30 35
17 15 12 10 16 14 13 7 2 3 6 6 3 2 6 12 1 4 6 10 11 2 12 8 11 1 4 4 7 5 7 5 2 4 4 6 4 21 2 9 16 17 21 30 29
15 11 11 11 14 14 10 7 2 4 8 6 8 10 12 4 5 3 4 6 5 5 13 8 19 13 6 7 7 5 2 2 2 1 6 7 7 15 15 15 20 24 28 36 33
14 10 10 13 13 6 4 1 6 3 3 12 12 13 5 6 6 8 5 5 5 3 0 7 6 13 8 19 8 8 8 5 5 5 7 6 6 5 6 13 30 24 25 36 36
13 11 16 11 4 7 3 5 2 1 9 12 11 5 7 7 9 5 10 9 10 14 7 5 6 3 4 20 14 7 8 7 4 3 3 4 5 6 6 12 21 23 36 28 42
14 12 17 4 9 6 3 3 3 7 10 11 6 8 7 14 11 12 4 3 8 10 13 4 4 3 6 5 6 11 7 1 2 6 13 6 6 8 9 16 15 21 17 26 8
3 7 8 2 12 7 3 4 4 10 13 6 7 7 7 7 8 5 9 6 12 6 8 3 1 5 4 1 7 4 1 1 1 4 5 2 4 6 7 9 19 20 30 27 26
1 2 4 5 4 3 2 2 4 11 11 5 3 6 5 6 5 5 6 4 21 15 6 1 2 4 7 6 4 3 3 5 4 5 4 3 5 9 8 12 5 19 29 35 32
3 7 6 7 3 2 3 5 9 9 8 3 3 4 2 3 6 2 5 14 17 9 7 2 1 2 2 4 6 5 4 6 5 4 12 3 4 3 12 6 4 16 30 35 32
2 3 2 6 4 1 5 8 6 11 11 14 10 9 7 5 9 5 4 7 12 13 26 6 2 2 2 2 3 2 6 7 4 2 4 4 7 8 4 4 8 17 30 27 27
5 4 4 2 3 5 4 4 10 7 4 7 4 9 7 5 3 4 4 6 9 15 7 4 3 3 1 3 4 6 5 13 4 7 3 4 6 4 7 8 12 9 21 10 33
7 3 3 5 7 5 3 1 10 11 8 9 5 9 10 7 5 9 7 5 2 6 6 6 3 4 3 5 5 6 6 4 8 8 11 12 5 8 7 5 10 15 18 5 19
20 10 2 5 1 2 3 3 6 10 11 9 15 11 3 6 3 13 14 17 7 2 1 1 1 3 2 6 6 4 3 7 3 9 5 0 4 7 9 12 15 18 19 19 17

GFSSW_850_spd_099.txt.gz
Wind_Speed
18 20 20 20 22 21 20 18 20 20 20 22 24 25 25 25 27 26 29 24 20 14 20 15 11 12 16 12 11 8 2 5 7 7 5 10 8 7 16 11 8 9 7 7 16
20 21 20 21 22 23 22 22 22 21 20 21 23 26 25 25 28 29 25 23 21 19 18 23 16 11 9 10 12 6 5 11 7 7 10 6 9 22 12 18 16 18 9 9 18
23 22 23 24 24 24 25 24 23 23 22 22 23 24 26 23 24 9 4 4 10 18 18 20 14 13 9 8 10 8 9 6 8 15 15 7 9 13 7 9 23 17 23 12 22
22 23 24 25 26 25 26 25 24 24 23 24 23 25 25 16 6 3 7 3 6 10 15 15 15 10 5 8 14 4 8 19 13 21 13 13 13 7 12 25 34 34 26 14 20
24 24 25 25 25 26 28 28 26 22 21 23 22 23 25 8 24 16 13 14 7 8 14 17 17 17 7 6 12 6 3 13 21 22 23 28 19 14 25 37 33 33 27 22 21
23 25 24 26 27 28 30 30 29 24 20 20 20 21 15 9 17 12 18 29 23 13 15 17 10 17 8 9 7 6 14 21 21 26 21 15 17 12 21 25 27 26 23 23 22
25 26 27 27 28 30 32 34 32 27 23 20 17 19 19 40 16 15 15 13 18 15 19 13 14 13 5 5 18 13 7 7 7 8 9 15 14 11 26 27 25 26 26 25 24
27 28 29 28 29 29 32 36 35 27 21 21 19 14 16 28 23 27 24 33 25 18 20 17 13 14 11 12 5 4 2 2 5 8 8 11 24 8 18 24 26 27 27 28 26
26 28 28 28 31 31 31 37 34 26 23 22 18 13 17 15 15 7 12 21 21 22 20 15 10 8 6 4 3 3 4 5 3 4 4 8 11 4 9 20 13 18 25 31 33
22 22 25 29 28 28 29 35 20 10 12 8 7 7 19 14 3 8 7 8 6 17 19 15 7 4 1 4 11 7 4 4 5 4 5 9 16 7 16 14 18 24 30 33 33
27 25 22 25 24 24 28 27 6 4 5 11 12 13 10 6 12 3 5 1 9 7 6 8 6 11 9 9 6 4 4 4 0 4 6 8 14 10 10 18 14 21 28 32 34
25 28 26 23 21 20 24 13 2 14 16 23 33 39 41 32 16 23 10 5 6 6 5 1 11 7 9 8 5 6 6 5 4 8 7 14 25 15 7 8 19 19 25 31 35
23 26 23 22 22 20 14 11 15 16 7 16 26 22 31 22 18 36 15 6 4 7 7 7 6 10 12 6 7 6 9 3 10 2 6 7 22 9 5 8 19 20 24 34 32
24 22 21 27 12 10 19 10 9 5 4 7 6 9 14 12 8 30 23 19 5 9 5 7 10 10 8 10 8 12 6 13 7 3 4 4 13 12 4 11 7 20 28 37 33
21 18 17 24 14 17 13 13 4 4 3 2 4 4 11 11 7 1 22 15 10 7 6 8 2 7 12 7 9 5 7 9 9 5 1 4 3 4 4 4 12 13 23 30 36
20 18 15 18 15 11 16 13 1 2 8 5 5 3 4 4 5 8 6 9 8 4 4 6 1 2 5 2 5 2 4 4 1 3 5 6 7 16 5 5 6 7 21 34 33
20 16 14 15 15 14 13 8 3 4 8 8 7 6 2 3 2 2 5 6 5 4 4 1 12 3 4 4 4 3 1 3 2 2 7 10 7 14 9 14 8 7 18 33 31
18 15 14 18 14 14 8 2 3 5 5 9 5 9 6 13 4 4 1 2 2 4 3 2 6 10 7 16 7 8 8 5 6 4 8 7 7 5 1 6 14 21 27 34 37
16 17 20 15 11 7 1 1 2 4 9 10 9 6 6 8 8 9 3 2 5 5 6 3 5 5 6 7 13 5 9 8 8 2 2 4 6 5 2 11 15 23 36 40 42
12 15 9 11 9 5 1 3 2 5 7 6 8 8 9 12 9 11 5 7 11 10 6 3 3 5 3 3 8 14 6 3 2 7 13 3 3 5 7 10 13 17 29 44 43
8 9 10 1 10 4 2 4 4 4 10 5 5 5 5 7 6 6 6 3 14 12 9 2 1 6 6 1 4 4 4 5 5 5 8 9 5 6 4 1 7 12 30 36 37
4 2 4 8 3 1 1 3 6 5 9 4 2 2 2 7 5 4 7 9 16 10 6 5 3 4 12 1 2 2 2 5 4 5 2 3 6 7 2 6 4 5 22 36 35
4 6 2 3 2 4 4 4 3 2 2 4 4 2 3 2 4 4 3 4 17 9 5 6 4 3 2 1 3 4 3 3 1 3 4 5 3 5 6 4 4 8 18 38 40
3 3 3 3 2 2 2 4 3 5 6 5 6 5 4 2 6 4 4 5 16 11 6 3 1 6 6 1 2 2 1 2 3 2 1 3 3 3 7 4 1 3 5 23 30
5 4 3 2 2 2 3 2 4 4 4 9 6 4 4 3 3 3 2 4 11 7 2 3 3 11 9 3 2 3 3 5 3 4 3 3 5 5 7 11 12 15 6 10 28
5 3 1 4 6 3 2 2 4 5 3 3 2 12 8 6 6 7 5 4 5 3 7 4 0 4 3 4 2 2 5 4 5 3 3 4 11 4 8 17 17 16 11 9 14
13 7 2 4 3 2 2 4 3 7 5 3 9 13 8 12 23 18 15 16 10 4 5 1 0 3 3 5 6 1 2 3 7 6 1 1 2 6 4 8 13 14 17 16 13

GFSSW_850_spd_102.txt.gz
Wind_Speed
20 22 22 22 23 24 24 24 24 25 24 24 25 26 29 28 29 27 28 26 20 15 17 16 11 12 16 9 9 8 2 5 7 8 6 5 1 3 8 4 20 3 11 8 8
21 22 23 23 25 26 26 27 26 26 25 25 25 26 28 29 30 31 24 20 22 21 21 24 21 16 9 7 7 4 5 11 6 7 6 2 2 4 5 11 13 19 14 11 11
22 23 24 25 26 27 27 27 28 29 28 27 25 25 27 27 27 10 3 5 12 21 22 21 20 18 9 9 10 7 8 3 7 14 13 3 6 8 2 6 22 15 27 20 13
20 22 24 26 27 27 29 29 29 30 30 29 28 26 26 22 8 2 6 2 4 11 20 19 20 10 6 7 12 5 8 11 7 18 8 6 6 4 10 14 29 25 29 27 21
21 22 23 25 28 30 31 31 32 32 31 31 28 25 25 10 24 25 17 13 8 4 18 17 16 12 6 6 9 6 4 9 20 23 17 21 17 13 10 28 29 23 23 22 22
22 23 25 26 27 30 31 33 34 34 33 33 30 21 18 14 23 19 14 24 26 17 15 19 8 17 7 7 8 3 14 21 20 23 15 10 20 8 10 19 24 20 22 22 20
19 22 23 26 29 31 33 35 36 38 35 32 30 20 23 44 25 21 15 17 16 18 18 18 22 9 3 2 12 10 10 8 7 7 7 6 11 13 26 25 24 25 22 21 17
22 23 24 25 27 28 32 36 37 38 36 32 26 17 20 26 32 34 27 33 30 23 17 19 12 12 6 8 5 3 3 3 3 10 7 11 25 3 10 14 13 13 12 10 13
22 24 27 29 31 32 30 34 38 40 32 25 17 12 19 18 18 9 11 23 25 29 25 16 20 10 5 6 3 3 4 5 2 7 5 10 12 2 2 16 14 13 15 20 23
24 25 26 28 30 32 30 32 37 19 10 3 8 5 20 16 7 9 10 7 7 16 17 15 9 4 4 5 12 7 4 4 4 2 3 8 16 6 17 12 17 22 25 25 26
24 26 27 27 28 28 31 32 14 6 6 9 8 14 14 11 10 6 4 2 4 12 8 8 5 11 8 9 5 2 5 5 1 3 3 7 14 6 12 17 12 21 25 25 25
22 25 28 29 30 27 28 22 23 13 17 22 30 36 44 34 17 17 9 6 7 6 6 3 18 7 8 7 6 6 6 5 4 6 5 8 25 9 7 8 19 23 24 22 26
21 23 26 27 29 28 21 21 19 22 9 17 26 23 33 23 24 37 20 5 4 7 10 7 4 11 12 7 9 6 9 3 8 4 3 5 19 9 7 8 19 18 21 20 24
21 23 23 25 19 16 18 10 25 24 5 6 6 7 12 12 9 26 22 18 5 10 6 7 7 5 7 8 7 10 8 9 6 2 3 4 8 0 6 6 4 13 18 20 22
21 23 22 21 19 26 18 23 30 19 5 1 3 4 9 10 9 5 19 16 9 7 6 6 3 8 10 6 8 5 8 8 6 5 1 3 4 5 3 7 9 7 16 18 23
20 24 19 20 20 13 17 29 21 2 5 8 3 0 3 6 3 6 5 3 5 2 0 5 1 3 7 5 8 5 3 3 2 3 3 8 7 3 4 2 3 3 13 18 23
23 21 16 19 20 21 21 18 6 3 9 9 6 7 3 5 1 3 5 5 5 5 6 0 10 2 3 3 2 3 5 1 1 1 5 6 5 8 5 4 4 6 14 19 24
20 19 16 19 17 16 17 3 3 7 6 8 7 9 5 10 5 6 6 3 3 1 4 6 2 10 7 12 8 7 7 4 5 4 3 4 6 5 4 5 7 6 8 19 33
19 17 17 12 13 9 3 2 5 7 9 9 9 7 8 6 4 7 6 8 8 11 3 3 3 2 3 5 12 5 5 7 2 1 1 4 6 5 4 5 6 10 17 23 33
18 18 10 16 3 3 3 4 5 5 9 6 7 7 8 10 8 8 8 8 9 8 5 3 1 3 2 4 4 6 5 3 1 3 5 4 3 5 2 5 6 7 13 22 35
13 8 11 5 5 3 2 3 5 7 6 4 5 4 4 7 6 5 8 5 11 12 8 6 2 6 5 2 2 2 3 4 4 5 3 7 5 5 4 4 5 1 9 19 33
7 3 2 3 3 1 2 3 9 5 9 3 2 2 3 5 4 5 5 5 11 11 6 2 1 2 6 3 3 3 2 6 3 3 2 2 11 5 5 8 6 5 3 17 31
6 6 2 3 0 1 5 4 4 4 5 5 4 2 1 3 4 3 2 1 8 6 4 5 2 1 4 3 3 4 2 1 2 3 5 4 5 3 6 5 7 4 9 15 27
3 3 4 1 3 4 3 4 4 9 4 4 4 5 4 2 4 4 3 2 10 7 12 1 1 2 4 3 5 4 3 2 1 2 3 4 4 6 7 7 10 12 16 11 24
1 3 2 2 1 3 4 3 5 3 4 8 4 6 3 4 5 3 3 4 5 6 8 2 1 2 4 5 10 5 3 2 1 2 4 3 3 2 5 7 10 17 17 11 15
4 3 1 4 6 4 3 2 5 5 3 2 3 9 5 4 4 5 6 2 3 6 3 4 3 2 3 4 10 7 8 4 8 7 10 6 4 1 4 11 17 14 17 14 15
12 8 2 4 3 1 3 3 4 5 4 4 7 7 6 5 11 21 17 11 6 2 3 2 2 2 1 2 7 5 5 2 4 3 2 4 3 7 5 9 14 15 15 15 17

GFSSW_850_spd_105.txt.gz
Wind_Speed
16 17 18 19 21 22 23 24 25 26 27 27 27 29 29 30 29 28 28 24 23 20 17 20 12 21 16 13 11 8 5 10 14 10 7 5 4 4 2 3 8 1 6 11 8
15 16 18 20 21 23 24 24 25 26 28 28 28 28 30 32 32 32 26 20 22 21 21 23 22 20 12 11 11 7 8 13 6 9 6 3 3 2 2 4 5 9 6 12 12
16 17 17 19 21 23 24 26 27 28 29 29 30 30 28 28 29 10 3 4 11 17 24 23 23 24 10 9 11 7 15 7 8 14 8 10 9 7 6 9 11 10 12 16 13
16 17 18 19 22 24 26 27 27 29 29 30 30 32 31 23 7 3 6 4 11 5 18 19 23 15 9 10 10 7 10 14 6 11 10 9 10 10 13 14 25 20 19 20 17
16 18 18 21 23 25 28 29 30 32 32 30 30 30 29 13 24 26 24 19 23 11 15 15 18 18 11 8 8 9 9 9 16 20 16 16 18 19 15 18 29 27 19 18 15
15 16 17 19 22 24 27 29 32 35 33 32 29 29 22 19 27 16 8 13 16 18 16 19 11 20 8 8 13 4 13 18 17 21 14 16 20 10 10 18 23 21 24 20 19
16 16 17 19 22 25 26 29 33 35 37 31 29 31 26 46 22 28 27 26 13 15 18 18 21 11 8 3 9 6 8 9 12 11 8 7 16 15 24 25 23 25 26 23 21
18 20 21 22 24 26 29 32 35 36 38 35 34 22 22 22 26 36 33 33 30 25 21 17 13 17 10 7 3 4 4 9 4 15 11 11 22 5 4 11 11 13 11 11 8
17 19 21 23 25 27 31 34 35 36 36 32 20 16 16 15 17 7 9 18 17 24 27 16 8 7 4 10 7 5 8 5 4 11 7 17 17 2 5 1 5 6 8 11 16
17 19 21 23 25 27 31 33 34 23 19 10 6 7 19 8 7 10 10 8 4 11 13 15 7 7 8 10 15 12 7 8 9 4 7 12 16 10 15 7 8 14 17 20 20
17 19 21 22 25 28 30 34 20 12 9 14 20 20 20 6 7 6 3 5 7 8 9 17 10 17 21 17 11 5 12 15 3 2 4 13 18 11 12 17 18 22 20 20 22
18 19 21 23 27 27 24 18 12 17 20 32 39 41 45 38 15 13 7 10 10 6 9 7 20 15 11 10 14 15 17 14 5 7 7 16 21 15 13 17 25 22 20 22 18
17 19 22 25 24 22 27 17 15 33 11 32 42 31 33 33 24 33 11 5 7 11 16 11 6 16 11 10 13 14 18 13 13 4 7 8 19 14 5 13 14 14 15 12 10
17 18 21 25 13 23 15 15 22 24 6 10 4 8 14 13 10 37 21 15 5 13 13 12 11 5 11 17 13 16 11 12 9 5 8 2 8 5 10 7 5 7 4 4 6
17 19 19 18 18 19 16 20 25 10 5 7 3 0 6 13 5 7 20 16 12 8 8 9 7 14 11 9 15 8 9 12 11 9 6 8 6 2 3 6 1 1 5 3 8
17 19 18 14 16 18 20 21 9 1 6 11 8 11 3 11 3 7 6 6 10 6 2 4 2 6 8 6 17 7 5 3 3 3 6 10 9 3 7 6 2 2 2 6 9
15 17 14 14 16 14 15 16 2 3 14 10 10 8 8 5 3 2 11 6 5 9 11 4 4 1 3 6 6 6 7 3 4 5 6 9 9 7 3 1 3 2 6 9 13
16 14 11 11 14 12 13 2 4 5 10 15 12 11 8 13 8 6 9 4 13 4 4 11 8 15 10 6 8 11 11 5 6 5 1 5 6 2 2 9 5 3 5 10 13
16 11 10 14 13 7 6 3 2 6 11 16 14 9 11 13 6 4 9 5 6 9 2 5 2 4 4 11 9 5 9 1 2 2 2 4 5 4 6 4 3 2 3 11 18
16 9 15 13 7 6 4 4 3 3 12 11 9 8 12 16 10 6 6 5 6 10 2 2 1 1 2 6 4 5 8 6 3 4 6 5 6 5 10 6 3 2 6 12 16
12 4 9 6 6 5 3 3 5 11 12 5 7 7 10 9 9 7 9 7 9 11 5 4 2 1 1 1 6 5 4 1 3 4 3 2 2 3 5 3 2 3 3 10 16
6 2 7 8 5 2 2 4 8 6 7 4 3 5 5 8 7 8 8 6 11 7 4 3 1 2 3 2 0 3 7 9 5 4 4 6 7 2 4 6 4 4 4 7 15
3 3 6 6 2 3 4 4 4 5 5 6 4 6 6 4 4 5 6 5 10 6 5 4 1 2 4 2 3 2 1 3 3 1 9 6 2 3 6 9 6 8 9 3 14
2 3 4 5 3 2 4 4 6 6 4 5 4 4 6 4 2 4 5 3 9 6 12 1 1 2 1 3 2 1 1 1 3 4 4 7 5 3 8 10 9 12 9 6 11
1 1 0 2 1 3 3 3 8 6 4 7 1 8 7 4 5 3 2 7 7 7 5 4 2 2 7 4 4 4 5 2 3 1 5 2 2 4 6 7 9 12 15 15 17
4 3 1 3 5 3 2 2 2 6 2 4 5 13 8 3 4 9 9 5 3 5 4 4 1 1 2 5 4 4 6 6 7 4 7 9 7 7 6 9 12 14 15 16 18
9 6 1 2 2 0 2 3 4 8 5 7 6 13 10 3 14 20 18 15 11 8 3 3 3 3 1 2 6 5 6 8 3 2 2 4 3 7 7 9 13 15 15 17 20

GFSSW_850_spd_108.txt.gz
Wind_Speed
11 12 13 15 15 17 18 19 21 22 24 26 28 28 29 29 28 25 24 19 23 22 19 16 17 12 15 19 18 15 11 17 20 18 15 4 9 7 5 6 4 5 3 2 2
13 13 12 14 15 17 18 20 21 22 24 25 27 29 31 32 32 30 23 19 21 20 21 18 17 19 19 20 16 17 16 25 17 16 8 5 11 7 9 15 11 6 4 2 4
12 12 14 15 17 19 20 22 22 23 26 27 28 29 30 30 22 8 8 6 3 10 15 17 16 20 24 19 25 17 26 16 16 20 20 17 14 13 13 14 15 12 6 6 5
11 11 12 13 15 16 18 20 21 22 25 28 29 29 30 22 8 4 6 8 6 10 10 12 19 24 20 22 24 20 24 26 21 22 17 16 18 19 18 22 21 13 14 13 13
10 11 12 14 16 18 19 21 23 25 26 25 27 28 23 11 22 20 21 22 19 12 8 14 21 22 24 15 24 24 22 20 23 26 22 20 22 21 24 16 23 20 16 16 15
12 12 14 16 18 19 21 23 25 28 29 25 27 28 19 27 25 24 14 17 14 14 15 15 12 23 15 24 19 15 22 28 23 20 21 18 22 22 18 19 27 21 19 16 16
13 14 16 17 19 22 24 26 27 28 28 26 28 22 27 44 26 19 20 20 15 9 13 17 18 13 11 17 23 22 20 18 17 15 16 15 25 26 30 30 32 30 26 23 21
12 15 17 18 20 23 25 28 29 28 26 24 27 20 28 18 16 27 29 33 31 29 16 13 16 17 18 13 11 15 19 20 19 23 24 14 27 5 6 9 18 19 18 17 17
12 14 16 18 20 22 26 28 28 22 18 20 16 12 19 12 16 21 29 32 24 27 22 17 11 18 17 17 14 18 17 20 15 10 15 22 17 15 10 11 11 9 9 10 11
13 15 16 18 21 24 26 29 15 8 8 8 3 6 25 9 11 14 9 18 12 18 20 21 14 13 16 16 23 17 17 16 10 8 15 18 19 8 10 12 9 10 12 14 16
13 14 15 19 22 20 25 19 11 4 19 17 29 24 35 30 25 19 13 15 14 26 18 29 16 24 30 24 19 17 12 15 14 7 13 16 19 19 17 16 17 19 21 22 22
12 14 16 19 21 15 15 8 6 11 18 36 38 40 44 41 39 34 16 15 19 19 21 18 29 23 14 19 18 12 12 20 14 8 11 16 22 19 17 18 22 23 24 23 20
12 14 17 19 11 11 8 8 10 16 11 25 12 20 23 24 37 41 21 22 18 18 25 20 12 22 17 15 18 19 21 18 18 10 14 19 24 24 22 22 26 22 17 15 12
13 16 18 17 4 12 7 12 14 14 6 8 13 9 11 10 16 27 31 26 14 19 20 16 6 18 22 21 19 21 20 18 13 10 14 5 10 5 4 12 11 12 11 9 8
13 15 15 11 10 9 12 14 17 3 6 12 10 18 30 12 12 7 30 22 18 11 10 11 16 13 20 20 20 15 13 12 15 16 15 19 9 12 6 14 11 10 10 7 5
9 13 11 9 10 12 15 17 4 4 5 13 15 24 10 16 15 4 15 22 18 12 10 5 3 15 17 10 18 8 8 9 8 9 12 18 14 11 11 12 8 7 7 4 3
11 11 8 9 8 14 13 7 4 4 15 16 25 18 22 10 6 6 16 17 12 17 16 12 11 7 10 15 15 13 15 6 7 6 10 6 12 13 5 5 8 6 5 4 2
11 8 6 10 14 10 8 3 3 6 12 21 20 16 9 17 7 11 14 12 4 9 11 14 14 14 12 12 12 21 18 6 8 9 10 9 8 5 8 10 6 4 1 2 3
10 3 8 10 8 8 6 1 4 8 15 14 18 10 14 22 10 0 9 6 5 7 5 13 12 4 13 10 12 14 14 10 6 1 3 8 5 4 8 9 7 7 5 6 8
10 1 7 8 11 7 2 3 4 7 15 13 12 9 10 18 15 12 5 10 8 7 5 2 7 9 7 8 18 10 13 9 9 6 8 8 10 5 12 11 9 10 7 4 8
5 1 6 8 10 4 3 4 5 11 13 9 12 11 13 15 12 9 10 6 14 11 6 6 4 8 10 8 14 10 11 9 8 9 5 2 3 4 7 6 6 5 4 6 9
3 1 8 7 1 1 4 5 6 8 9 3 8 12 12 17 10 10 12 9 13 6 7 8 3 7 8 4 6 14 16 15 8 9 10 10 5 4 3 1 3 5 6 9 9
2 2 7 6 1 3 5 3 3 8 10 8 8 11 15 9 6 11 13 10 16 11 9 7 1 6 6 6 5 8 10 14 13 8 10 8 3 6 4 2 2 5 8 6 9
1 1 2 3 3 3 6 5 7 6 5 9 6 10 15 9 9 9 13 10 18 13 13 6 2 3 2 4 2 6 9 10 12 8 9 8 4 10 2 2 5 9 13 14 14
1 1 1 0 1 5 5 3 5 7 4 7 2 11 12 6 10 9 13 16 8 9 7 4 4 6 6 4 4 5 6 9 12 11 6 4 5 7 4 7 8 10 11 13 16
2 2 1 3 3 4 2 1 4 7 5 6 7 14 13 9 8 16 15 12 6 4 8 5 2 4 5 5 6 9 11 11 10 7 7 7 7 3 9 8 10 11 13 16 17
4 3 2 1 2 3 2 3 3 8 5 6 9 15 13 10 18 26 24 21 16 13 6 4 4 3 0 1 3 8 13 13 10 4 5 7 6 5 4 8 10 11 14 16 17

GFSSW_850_spd_111.txt.gz
Wind_Speed
9 10 11 12 13 14 15 17 19 21 22 23 25 27 28 28 29 25 23 20 19 23 20 14 15 18 20 25 25 20 17 20 26 24 21 15 7 12 12 17 9 12 16 4 4
9 9 9 11 11 12 13 14 16 18 19 21 24 27 29 30 30 30 23 27 27 29 28 20 21 20 26 24 30 23 17 27 23 21 18 15 8 14 14 17 14 13 7 4 5
7 8 9 10 11 12 14 15 17 19 20 22 23 25 26 26 24 8 10 13 8 9 14 17 22 24 29 29 30 29 28 22 24 28 23 22 16 16 14 17 22 20 17 12 9
5 6 7 9 12 14 16 18 20 21 22 23 23 26 29 18 8 4 5 6 8 5 7 15 21 28 24 27 31 28 32 29 28 34 20 21 24 24 21 21 16 16 14 11 13
6 7 9 12 15 17 19 21 22 23 24 23 23 26 26 13 27 23 25 20 19 13 13 14 22 27 28 26 29 31 26 31 30 28 29 23 24 22 26 22 20 23 20 20 20
7 9 12 14 16 18 20 22 23 23 24 24 23 25 20 27 17 17 21 23 25 26 27 25 21 25 27 28 27 29 32 31 30 29 23 24 25 27 29 24 27 27 25 26 26
8 10 12 15 17 18 21 22 23 24 24 24 22 23 26 40 29 26 21 20 14 18 25 26 27 23 21 24 30 32 27 24 21 25 28 24 28 28 30 30 25 29 31 29 27
9 11 13 15 17 19 22 24 26 27 24 18 15 19 24 22 19 22 27 37 30 22 17 14 21 26 30 19 23 18 25 26 27 22 20 17 29 20 25 30 36 34 34 30 29
9 11 13 15 18 22 25 25 26 20 15 11 12 12 24 15 18 16 18 31 33 38 35 26 21 26 20 22 18 24 24 29 25 25 25 28 27 23 28 20 17 19 23 25 26
9 11 13 16 19 23 24 24 17 16 8 14 11 12 16 18 25 24 20 23 29 32 33 31 22 17 21 20 25 27 26 24 24 23 26 21 22 20 21 14 15 19 17 17 17
9 11 15 17 19 19 23 23 19 6 9 21 31 35 40 33 31 40 35 29 27 31 29 40 23 26 40 32 30 28 17 21 16 19 11 17 21 20 21 19 18 18 16 17 18
9 12 14 16 17 14 15 14 12 10 18 22 25 21 25 21 39 39 29 15 26 25 27 22 29 40 27 27 30 25 20 23 21 7 10 15 19 18 19 21 24 23 22 24 24
9 11 14 14 10 10 9 10 12 16 8 15 3 18 20 29 26 38 25 27 24 26 26 31 35 27 26 25 26 27 24 22 19 9 16 20 21 21 21 22 26 24 25 26 25
9 10 11 8 8 10 7 11 12 13 5 5 15 5 25 37 15 20 20 28 10 13 25 27 26 27 27 27 22 24 20 19 16 12 19 19 18 19 22 11 23 28 30 25 20
6 8 8 7 9 8 11 13 13 3 6 14 13 11 31 27 23 7 14 23 22 18 24 20 16 23 26 25 20 17 15 14 16 18 18 18 13 17 14 14 13 16 17 15 12
5 8 7 7 6 9 13 11 4 2 4 12 23 22 28 19 24 9 13 21 17 14 20 15 16 13 19 19 19 10 7 11 12 13 15 21 17 11 15 12 18 12 15 15 12
6 8 5 4 7 13 10 6 5 6 13 15 27 23 21 25 15 11 10 18 15 12 7 7 19 19 12 18 16 15 15 6 6 8 15 19 17 15 6 15 17 14 15 10 7
6 4 6 4 9 8 6 2 5 7 13 20 19 15 8 20 21 22 8 13 17 19 13 8 8 10 12 17 14 21 19 6 6 10 12 14 9 12 21 6 12 14 10 8 7
6 3 3 5 7 6 5 5 8 9 13 16 19 14 14 18 10 10 13 16 9 10 11 11 13 18 15 13 15 22 16 14 5 8 4 8 9 4 6 17 10 11 8 7 2
4 3 2 6 8 4 2 4 6 6 12 12 13 13 20 21 16 15 14 12 11 14 14 9 6 9 16 13 12 15 14 13 8 5 6 8 11 5 14 10 10 7 6 5 3
1 5 3 7 4 2 2 4 6 7 9 9 14 16 16 17 15 10 12 8 20 14 14 9 8 7 12 14 20 12 12 12 11 11 5 7 1 12 15 14 11 8 2 2 3
1 2 6 3 1 1 3 5 7 6 6 5 7 13 14 18 9 8 13 9 14 11 8 7 7 14 19 12 15 23 16 18 9 14 9 9 2 2 10 9 3 2 0 5 7
2 2 4 3 2 2 3 4 2 7 5 6 5 10 14 10 7 9 12 9 20 13 11 9 3 2 5 6 8 15 17 14 13 11 7 8 7 7 9 9 7 6 15 10 11
2 1 1 1 2 5 5 3 7 2 5 8 6 8 12 12 14 6 13 13 12 11 10 10 5 5 4 5 5 11 16 18 14 9 11 11 12 16 13 7 15 13 13 11 11
2 2 2 1 1 6 5 4 8 7 6 6 5 12 14 11 12 11 17 13 15 5 10 7 7 8 3 9 4 4 10 10 12 12 9 4 14 16 5 14 14 12 8 10 12
4 2 4 1 2 4 1 3 7 9 10 9 10 15 16 13 16 19 19 17 9 10 11 11 5 8 9 8 6 6 7 7 11 10 11 12 9 15 12 16 13 10 10 12 14
3 1 5 1 2 3 2 6 8 11 7 7 13 16 16 15 24 28 29 27 20 17 9 6 6 7 3 3 3 7 11 12 11 11 8 12 6 4 10 11 11 9 11 12 14

GFSSW_850_spd_114.txt.gz
Wind_Speed
10 11 11 12 12 12 12 14 15 16 17 18 20 22 24 25 26 25 22 19 21 24 21 21 14 17 17 23 26 26 16 20 26 24 22 26 22 9 7 15 19 20 13 8 10
10 9 9 10 9 10 10 11 13 14 16 18 20 21 22 25 28 30 18 22 21 27 30 22 22 20 25 21 30 21 18 29 24 22 20 25 25 15 8 15 17 15 9 8 6
6 6 7 7 8 9 11 12 15 16 18 18 20 23 25 27 23 2 7 8 11 12 12 17 22 25 29 30 31 30 30 23 28 31 33 27 22 23 12 14 17 16 16 12 11
3 4 5 6 9 11 13 15 18 19 20 20 22 25 29 18 6 3 15 10 7 7 7 13 18 27 24 26 33 29 33 33 34 35 31 22 28 24 17 19 19 20 24 24 20
3 4 6 9 11 14 16 18 20 20 21 23 23 26 27 9 21 21 25 26 26 22 18 19 21 26 27 26 30 32 28 36 37 34 33 30 26 22 23 23 17 23 18 13 19
4 5 8 11 13 16 17 18 19 20 22 22 23 24 16 19 15 12 18 20 23 27 31 32 30 28 33 27 28 31 33 33 35 35 34 26 25 26 28 24 23 21 21 24 18
5 7 9 12 14 16 18 19 20 20 21 20 19 19 18 32 21 20 22 27 29 28 31 33 35 34 29 24 34 32 28 28 28 33 27 30 25 30 29 27 27 29 28 28 27
6 8 10 12 14 17 18 19 19 18 17 13 11 12 13 14 16 17 18 20 24 28 34 28 31 41 40 37 29 24 25 25 32 26 23 26 32 25 29 30 31 32 32 30 30
7 9 10 13 15 18 19 19 14 14 14 9 10 10 22 7 14 25 25 27 24 24 28 34 29 30 28 26 21 24 25 33 26 25 26 24 33 23 28 30 34 37 36 33 34
9 9 11 12 15 18 19 16 16 11 11 14 13 12 15 22 29 30 28 28 31 29 28 34 40 21 20 20 25 36 29 22 25 23 25 28 29 21 26 25 25 26 20 29 33
10 10 10 12 14 14 20 19 17 3 9 13 24 28 31 24 28 39 36 32 30 35 24 28 23 28 33 32 31 26 26 27 26 25 25 26 27 23 25 21 19 20 29 19 16
9 8 9 11 10 14 17 13 12 8 15 23 22 22 24 21 37 43 29 25 27 23 24 17 29 30 34 31 28 29 28 27 19 17 2 6 17 16 15 19 23 21 17 21 18
8 8 7 7 8 14 8 9 8 12 7 10 6 8 11 22 34 34 32 25 23 23 20 23 24 31 33 30 32 28 27 23 25 5 14 10 15 20 17 17 21 23 28 29 24
7 6 6 4 7 8 5 10 9 8 4 2 4 5 16 31 17 43 19 12 2 10 22 21 26 33 30 34 30 25 26 26 20 6 4 12 8 17 15 18 17 21 23 17 19
4 4 5 9 5 5 9 11 8 2 5 8 13 14 26 23 35 18 13 2 9 16 16 8 18 26 28 32 31 24 19 21 11 6 8 13 10 20 20 22 20 27 35 27 20
3 4 2 7 7 4 12 7 3 4 1 9 19 24 22 26 23 26 21 26 20 12 21 23 33 22 32 25 27 21 4 7 5 7 8 20 15 15 17 26 23 19 12 15 18
4 4 3 2 6 11 6 6 5 4 14 14 24 23 19 21 19 25 24 14 11 9 11 23 10 14 16 14 22 14 13 4 4 7 13 14 15 18 15 14 20 11 20 25 20
4 3 2 1 8 7 6 5 5 14 15 18 17 17 11 19 17 27 24 13 11 12 14 15 10 11 16 14 14 16 16 6 7 7 9 19 11 17 23 17 19 18 24 22 16
5 3 2 7 8 6 9 5 6 8 13 14 19 13 14 18 6 11 8 19 14 18 11 10 1 11 17 7 15 21 18 16 2 7 4 8 17 5 22 8 14 15 21 13 13
2 4 6 9 6 3 5 4 5 6 10 13 12 13 16 19 13 7 13 13 17 17 17 6 9 20 18 10 14 16 17 13 7 3 3 5 15 4 6 19 17 12 13 15 11
3 6 2 5 3 9 3 3 5 9 8 7 12 12 15 16 15 8 12 4 21 18 18 13 6 9 13 7 12 9 13 11 11 9 2 1 1 13 6 12 5 8 14 23 21
2 2 2 4 5 4 4 3 1 5 7 6 6 12 11 15 10 11 13 12 15 10 12 9 5 4 9 13 13 12 14 16 7 10 5 1 2 9 11 12 11 25 19 22 14
4 1 3 1 3 4 4 3 1 4 8 6 6 7 14 11 6 14 14 14 15 12 11 8 4 5 8 7 14 17 15 12 12 7 5 4 1 12 3 2 22 21 18 16 17
2 2 1 5 4 5 6 2 5 4 5 7 9 9 13 14 14 4 16 15 23 9 8 7 6 5 3 8 9 8 16 15 11 7 8 5 2 10 12 16 15 20 19 19 20
3 3 3 2 3 5 6 7 7 5 5 11 6 9 13 15 14 13 18 19 20 11 14 10 6 5 14 11 6 8 9 7 15 12 8 13 4 10 12 15 13 15 16 17 18
2 2 3 4 2 2 0 5 4 6 9 10 8 14 14 14 13 18 20 17 18 16 14 11 5 14 16 10 13 4 6 10 15 9 10 5 1 13 13 16 15 16 16 14 15
1 3 5 3 4 3 3 5 9 10 7 13 14 15 14 16 23 26 26 25 21 18 13 7 4 9 4 13 10 3 7 5 7 4 3 6 8 10 15 14 13 11 13 15 15

GFSSW_850_spd_117.txt.gz
Wind_Speed
12 12 12 10 9 9 9 9 10 11 12 14 16 18 20 21 22 22 20 13 11 15 19 19 17 17 13 18 22 24 11 18 16 17 19 28 18 18 8 6 6 8 11 15 33
11 10 9 9 8 7 8 9 11 13 14 16 17 18 19 20 22 6 10 9 9 12 21 21 24 22 19 17 13 8 11 22 9 15 18 24 26 23 7 8 7 8 25 29 28
9 8 7 7 6 7 8 10 11 13 15 16 18 21 22 22 11 2 5 11 14 8 8 12 16 17 22 26 27 20 28 11 17 28 34 27 28 35 5 7 17 21 26 22 23
7 6 6 6 7 8 10 12 14 16 17 19 20 23 22 13 1 4 18 18 17 14 16 13 11 7 5 10 21 21 31 24 30 32 30 22 29 17 15 15 18 20 23 27 23
7 6 5 6 8 10 12 14 16 18 19 20 21 22 21 7 15 8 13 8 13 17 20 20 24 22 17 9 22 27 19 31 33 36 44 41 28 20 29 24 21 13 9 28 29
7 6 6 8 10 12 14 16 17 18 18 20 21 21 13 7 5 10 14 17 19 19 22 21 23 26 29 25 20 19 28 30 32 40 40 29 26 20 35 24 23 20 18 10 21
6 6 8 9 12 13 15 16 16 17 16 15 17 16 13 22 7 6 14 20 19 18 25 30 30 27 16 21 25 32 22 21 29 38 29 27 19 31 24 27 20 22 26 22 16
6 8 9 11 12 14 16 15 14 13 10 10 11 11 10 10 8 10 17 23 21 22 25 22 27 35 26 31 38 26 16 22 41 24 22 20 30 27 26 26 29 31 28 30 30
8 8 10 11 13 15 16 15 10 9 8 8 10 7 13 5 7 16 17 23 27 28 26 27 20 25 25 18 18 22 25 33 28 12 17 19 28 16 24 28 25 27 32 34 36
8 9 10 12 12 13 14 11 5 5 3 9 11 11 11 15 21 20 23 31 31 31 28 23 18 9 14 15 21 26 25 15 17 14 19 21 28 7 19 20 27 28 32 35 39
9 9 9 9 9 10 16 10 10 3 14 9 14 11 26 22 24 23 31 28 20 19 17 19 13 15 22 23 23 23 19 21 17 15 19 27 25 18 14 23 18 23 30 34 36
9 8 7 5 6 11 13 11 10 7 11 9 9 14 17 21 23 31 25 23 17 18 11 15 22 24 22 23 25 25 24 23 17 15 18 17 8 17 9 9 29 24 25 23 29
8 7 4 1 6 9 9 9 4 11 3 11 10 9 10 14 17 24 26 12 9 6 9 16 20 19 20 21 27 27 24 22 17 2 5 8 7 9 5 7 19 35 32 26 23
7 3 1 1 5 5 8 8 8 11 2 5 3 3 15 24 4 20 19 5 1 3 5 6 12 17 24 29 25 23 23 25 23 18 4 3 4 7 11 9 6 9 9 13 23
2 1 4 7 5 10 6 14 4 5 4 3 6 8 26 5 20 9 23 8 9 8 5 11 17 22 18 29 24 22 24 24 25 9 6 5 3 6 6 6 12 9 18 16 16
1 1 6 4 6 4 10 4 4 1 2 3 11 14 10 7 13 20 16 8 18 7 13 20 17 13 12 18 20 26 22 13 3 6 2 8 6 5 5 10 8 13 20 21 13
3 1 3 5 4 10 4 4 3 2 9 9 10 13 10 7 7 12 17 13 12 7 11 18 20 13 13 14 20 22 14 6 1 2 4 12 7 14 8 11 18 18 20 9 26
1 3 3 5 3 4 6 3 1 7 8 11 12 13 7 13 5 10 13 15 15 17 10 9 19 12 10 3 8 12 8 5 2 5 4 4 7 7 14 19 24 24 21 31 32
6 6 4 6 7 2 3 2 1 3 8 8 13 7 7 11 5 6 4 4 10 13 11 8 10 22 11 6 10 9 11 3 0 2 3 5 4 7 13 4 12 23 30 24 30
6 4 4 1 2 4 1 3 4 7 5 9 8 5 7 10 9 5 7 1 10 8 15 7 8 13 18 12 2 11 6 4 3 1 4 4 4 3 8 14 12 19 22 24 35
8 3 6 5 2 1 2 2 3 6 6 5 7 5 9 11 8 9 6 3 7 6 8 9 5 5 9 4 5 3 5 4 1 4 1 2 3 7 9 11 18 17 32 22 27
1 2 3 6 1 3 1 1 2 5 12 4 4 4 7 12 5 6 6 8 20 11 9 6 3 6 6 17 8 13 6 5 3 4 2 6 3 8 18 11 19 24 28 20 24
2 5 4 8 1 2 2 4 3 2 4 2 4 4 9 7 6 8 8 15 24 14 11 6 4 5 10 9 11 3 11 11 12 2 1 2 4 9 19 19 22 23 25 19 22
3 2 4 6 6 2 4 2 4 8 4 7 5 6 6 7 10 10 11 12 23 22 18 7 3 3 1 6 6 10 16 15 6 2 3 3 8 13 16 13 14 23 21 19 24
2 2 1 1 1 4 4 5 9 4 6 12 5 9 7 5 10 6 18 21 15 9 8 6 4 8 13 13 9 13 10 12 9 8 2 5 13 13 11 13 14 15 16 18 19
1 2 5 7 6 4 1 3 7 8 7 6 6 9 8 8 9 13 15 15 9 3 9 7 3 9 6 11 9 6 8 9 7 12 11 11 10 16 16 16 17 22 17 19 24
1 3 4 6 4 2 4 1 4 3 4 11 6 5 8 7 17 24 28 31 21 15 12 4 4 5 4 16 6 6 15 9 11 18 4 4 9 12 12 13 17 17 19 22 19

GFSSW_850_spd_120.txt.gz
Wind_Speed
12 13 13 12 12 10 9 8 8 10 12 15 16 16 16 18 17 19 8 7 4 3 8 11 12 11 10 12 15 8 3 12 11 7 12 20 9 19 25 24 13 12 9 26 42
13 12 11 10 9 9 8 8 9 11 13 15 16 15 15 17 17 9 6 10 12 10 9 11 12 11 7 8 6 9 8 10 6 12 15 21 23 21 10 19 22 4 10 36 47
12 11 10 9 8 8 7 8 10 12 13 14 16 16 15 18 8 3 8 8 9 8 9 12 8 9 7 12 9 6 23 10 17 16 28 26 30 31 11 19 24 13 22 38 50
11 10 8 8 8 8 8 9 11 12 13 15 18 19 17 15 2 6 8 9 8 10 10 10 5 4 3 5 14 14 23 21 22 30 31 18 23 22 15 20 24 17 24 41 50
11 9 9 8 7 8 9 10 12 14 15 16 18 18 17 8 9 10 12 11 13 16 14 13 13 14 5 6 11 20 17 31 26 34 38 29 33 30 41 28 26 27 21 37 43
10 9 8 8 8 8 10 11 13 14 15 16 16 16 11 3 7 9 4 4 9 14 16 15 9 17 16 17 18 15 21 24 30 43 36 25 27 24 53 30 27 30 18 29 36
10 8 8 8 9 10 11 13 13 14 13 11 12 11 13 10 4 2 8 13 15 15 16 14 15 14 15 10 20 14 15 19 23 37 29 23 23 30 43 32 28 31 27 22 25
10 9 8 8 9 10 12 13 12 11 8 10 8 11 9 5 4 9 13 14 16 17 17 19 22 23 21 19 18 15 12 18 27 13 26 18 30 35 34 30 35 33 33 25 21
10 9 7 6 8 11 11 13 12 9 6 8 7 6 8 1 10 17 18 18 21 23 23 23 19 20 13 6 12 11 16 21 26 8 11 19 28 36 29 29 32 29 33 34 30
11 9 6 5 6 7 10 9 4 3 3 4 6 7 4 6 14 19 22 21 22 21 12 3 10 4 3 3 14 22 14 18 17 16 12 20 23 31 19 25 32 30 27 29 32
11 7 4 2 2 5 9 5 2 2 6 7 3 7 13 10 17 20 21 20 16 9 5 5 3 11 16 17 18 19 21 22 24 23 19 22 23 28 15 20 21 27 32 33 36
10 7 3 2 7 8 9 5 8 7 8 7 7 20 14 17 12 20 19 7 8 9 6 1 13 20 17 20 19 20 22 23 22 23 21 22 26 24 19 18 27 25 30 33 37
9 6 5 7 8 5 7 8 8 10 2 7 7 8 10 10 10 11 11 14 5 6 6 8 14 7 11 15 19 25 29 20 21 20 20 17 8 15 7 19 22 14 21 30 34
8 7 7 11 11 7 4 7 10 5 3 2 3 4 7 18 3 22 13 16 3 6 3 8 7 9 13 20 19 25 19 20 22 18 10 2 7 5 6 9 6 7 2 19 35
8 8 10 14 12 9 1 5 2 2 3 2 1 4 19 1 14 7 28 3 12 9 5 12 7 9 15 19 11 17 18 19 22 19 12 15 3 7 6 5 9 9 8 6 8
9 11 11 12 15 6 2 1 1 4 1 2 4 6 7 4 12 8 14 16 7 4 8 19 17 5 16 24 13 9 16 17 17 6 12 19 10 6 6 13 7 5 8 10 23
9 11 12 10 8 1 2 4 3 3 4 5 4 7 8 5 8 4 5 8 4 7 7 13 3 2 9 15 6 7 7 1 4 6 7 17 9 17 6 5 7 7 1 7 34
7 9 9 10 6 8 7 3 4 2 1 2 3 10 3 8 5 5 5 3 4 3 12 7 9 6 9 2 6 8 11 5 4 3 4 13 8 6 11 12 10 5 18 29 25
10 11 11 7 6 9 4 4 5 2 1 3 8 2 4 6 2 5 1 4 4 4 8 7 8 20 8 11 3 1 6 17 2 7 2 5 4 6 10 11 10 24 34 34 33
12 11 8 7 9 6 3 3 3 3 1 2 2 3 5 5 6 4 3 4 6 6 7 4 9 7 15 9 3 7 4 3 3 2 3 1 3 3 10 19 20 19 22 32 31
14 5 7 4 6 2 3 4 3 2 5 2 2 4 5 6 4 4 4 6 10 10 7 7 4 8 6 4 4 7 3 5 2 1 3 3 2 5 10 13 21 17 23 29 31
9 2 9 9 2 2 2 4 5 3 5 1 3 3 2 4 5 3 5 3 17 11 8 4 4 6 11 9 11 5 11 7 2 3 2 2 2 14 16 17 17 21 23 26 32
9 5 6 10 2 1 4 2 7 3 1 1 2 2 2 3 5 4 5 11 23 12 4 6 3 6 8 3 10 5 9 14 4 2 5 1 2 13 18 19 25 23 24 27 31
5 2 4 7 2 3 0 2 3 3 0 4 1 2 3 4 1 7 5 6 19 17 12 8 3 2 5 10 6 7 16 16 8 3 3 1 4 15 14 13 19 23 20 23 26
2 2 3 2 2 4 2 1 2 3 5 8 4 3 2 4 6 2 7 9 12 6 8 2 4 5 15 9 5 5 12 12 9 10 3 9 4 8 10 13 16 20 17 19 17
3 3 3 1 6 4 1 1 2 3 2 4 1 5 4 4 4 13 11 11 6 7 6 5 4 6 6 4 6 11 11 15 11 13 13 16 9 11 17 18 20 16 14 16 18
4 3 2 2 2 3 3 3 2 2 1 3 5 3 6 7 15 24 24 26 15 10 13 4 3 5 4 13 7 8 15 17 12 22 7 5 6 10 14 16 18 16 17 15 16

GFSSW_850_spd_126.txt.gz
Wind_Speed
15 14 14 14 12 11 9 8 7 8 10 11 11 13 13 12 10 3 7 8 6 5 5 7 10 10 8 4 5 2 1 3 4 5 4 9 7 9 15 16 24 16 12 25 31
16 15 14 14 12 11 9 8 8 9 11 13 12 14 14 12 4 5 7 5 6 8 10 14 14 11 1 1 3 4 3 4 6 4 7 12 18 22 12 23 20 27 21 23 22
18 16 15 14 12 10 9 8 9 10 12 14 13 13 13 11 1 3 5 5 10 15 16 13 7 6 2 2 3 3 5 3 2 10 14 7 18 22 15 25 12 24 20 14 20
19 18 16 14 12 11 9 9 9 10 13 14 15 14 12 4 2 2 5 7 10 12 13 10 7 3 2 3 4 6 7 5 8 14 18 10 18 20 32 40 28 30 35 32 27
19 17 17 15 13 11 10 10 10 10 12 14 14 13 7 2 2 0 3 6 7 8 10 10 10 5 2 3 11 6 3 14 18 25 20 20 16 21 45 32 35 33 37 35 30
20 19 18 14 12 11 11 10 9 11 11 13 12 10 6 2 4 6 5 3 7 10 10 8 6 8 4 3 2 7 20 21 19 21 21 19 24 22 27 29 32 33 38 38 37
22 19 18 15 12 11 10 10 10 10 11 10 9 8 4 4 7 5 6 7 7 8 9 7 8 7 6 5 11 9 12 16 10 10 5 8 17 13 30 33 41 39 41 39 35
23 20 17 15 12 11 10 10 11 11 10 8 6 6 1 7 5 3 5 6 7 7 8 7 8 7 5 6 7 6 5 7 1 5 7 2 27 7 20 12 22 32 33 37 39
25 20 16 12 11 10 10 9 9 7 6 4 3 2 3 2 3 6 5 8 10 8 9 9 7 4 2 2 4 3 7 7 10 4 6 7 17 3 24 31 30 32 35 35 40
23 19 15 11 10 11 8 6 2 2 4 4 3 2 4 2 5 9 6 9 11 8 5 2 2 2 2 3 4 5 7 6 12 6 11 18 25 31 37 31 35 34 39 42 39
20 17 15 12 11 10 6 6 3 2 7 3 2 2 5 1 5 7 7 11 4 2 1 2 0 6 9 10 10 8 11 15 22 21 24 21 24 23 34 29 31 31 35 44 43
22 18 14 12 12 9 9 7 5 2 3 10 11 9 6 6 3 7 5 5 3 4 3 2 8 9 6 7 10 12 11 22 22 23 18 25 29 26 24 29 32 34 36 42 47
26 20 16 15 14 10 8 9 3 3 3 3 5 3 2 3 1 6 2 6 2 4 4 5 6 4 4 4 10 16 10 19 19 23 25 23 28 31 20 27 43 41 47 46 47
26 18 16 16 12 13 8 4 3 5 4 4 3 2 3 2 2 7 7 2 1 4 3 6 4 3 2 6 8 12 6 14 17 12 11 6 15 29 22 23 26 25 36 42 47
25 23 22 21 8 17 8 5 5 3 0 4 2 6 1 2 3 4 7 1 3 4 5 8 4 4 5 7 5 10 9 12 14 14 10 19 6 17 16 23 21 20 33 41 41
27 23 23 22 14 14 9 9 6 5 3 1 3 2 3 5 2 4 6 6 3 3 4 10 8 4 6 6 11 14 10 11 4 2 5 9 6 17 6 9 11 11 14 8 17
25 22 24 24 17 16 10 9 4 4 1 2 3 3 2 2 3 3 3 5 3 5 6 8 4 3 4 4 3 3 4 4 5 2 7 7 10 12 21 21 15 3 21 27 29
25 25 22 22 19 16 15 4 2 4 4 2 3 3 3 5 3 5 1 2 3 2 4 5 7 2 3 5 7 9 5 2 5 5 17 17 6 7 14 20 25 23 27 32 33
24 23 21 20 19 16 9 2 4 3 6 5 4 3 3 3 2 3 1 1 1 4 3 4 6 6 13 15 4 1 4 5 5 9 6 5 5 1 14 18 17 22 29 28 30
23 21 19 17 14 18 2 3 3 4 6 3 3 3 2 2 2 3 2 2 1 1 3 4 7 6 6 3 4 2 5 2 1 4 5 3 5 12 10 14 16 17 21 24 27
25 10 15 15 17 5 3 3 4 7 8 3 4 3 3 2 2 1 3 3 0 4 3 1 1 9 9 1 5 4 3 3 4 4 4 5 3 13 14 13 14 16 21 22 26
11 4 18 20 4 2 3 4 6 4 4 3 4 3 3 2 0 2 3 3 2 2 5 2 3 6 12 14 3 1 4 3 3 4 4 3 4 11 14 15 16 18 20 22 23
9 9 15 12 3 1 2 3 3 3 3 3 3 3 1 2 1 3 3 3 9 5 1 3 2 5 9 4 4 6 6 7 8 4 2 4 3 9 14 15 21 19 24 26 25
10 3 4 7 1 3 5 4 4 6 4 6 4 4 3 1 3 3 3 2 14 3 4 2 3 6 5 8 5 13 11 12 4 3 6 4 5 12 14 15 18 26 28 28 29
3 3 6 4 3 4 3 3 5 4 4 5 3 3 3 3 3 3 2 4 4 5 3 2 4 3 9 13 5 13 18 18 10 12 4 7 8 10 11 11 14 19 26 26 30
5 5 5 5 15 6 2 2 5 3 4 2 5 4 5 4 5 3 2 1 3 3 2 1 3 2 5 6 5 9 14 16 15 14 5 7 8 7 7 14 24 25 26 27 22
7 10 8 2 3 4 3 5 5 7 6 6 4 3 4 5 4 11 15 12 8 1 2 1 2 2 4 5 7 3 9 8 8 16 7 9 4 5 11 18 21 22 23 23 24